[[{"header":{"parameterUnit":"m.s-1","parameterCategory":1,"la1":30.6,"la2":29.2853,"lo1":-89.7004,"lo2":-87.6739,"dy":0.0162,"dx":0.0183,"nx":112,"ny":82,"refTime":"2025-05-14T12:00:00:Z","depth":0,"parameterNumber":2,"parameterNumberName":"U-component_of_WINDS"},"data":[0.0,0.0,0.0,0.0,0.0,0.0,0.0,0.0,0.0,0.0,0.0,0.0,0.0,0.0,0.0,0.0,0.0,0.0,0.0,0.0,0.0,0.0,0.0,0.0,0.0,0.0,0.0,0.0,0.0,0.0,0.0,0.0,0.0,0.0,0.0,0.0,0.0,0.0,0.0,0.0,0.0,0.0,0.0,0.0,0.0,0.0,0.0,0.0,0.0,0.0,0.0,0.0,0.0,0.0,0.0,0.0,0.0,0.0,0.0,0.0,0.0,0.0,0.0,0.0,0.0,0.0,0.0,0.0,0.0,0.0,0.0,0.0,0.0,0.0,0.0,0.0,0.0,0.0,0.0,0.0,0.0,0.0,0.0,0.0,0.0,0.0,0.0,0.0,0.0,0.0,-3.4122,-3.7346,-4.2086,-4.4306,-4.2545,-4.1806,-3.8671,-3.2206,0.0,0.0,0.0,0.0,0.0,0.0,0.0,0.0,0.0,0.0,0.0,0.0,0.0,0.0,0.0,0.0,0.0,0.0,0.0,0.0,0.0,0.0,0.0,0.0,0.0,0.0,0.0,0.0,0.0,0.0,0.0,0.0,0.0,0.0,0.0,0.0,0.0,0.0,0.0,0.0,0.0,0.0,0.0,0.0,0.0,0.0,0.0,0.0,0.0,0.0,0.0,0.0,0.0,0.0,0.0,0.0,0.0,0.0,0.0,0.0,0.0,0.0,0.0,0.0,0.0,0.0,0.0,0.0,0.0,0.0,0.0,0.0,0.0,0.0,0.0,0.0,0.0,0.0,0.0,0.0,0.0,0.0,0.0,0.0,0.0,0.0,0.0,0.0,0.0,0.0,0.0,0.0,0.0,0.0,0.0,0.0,0.0,0.0,0.0,0.0,0.0,0.0,0.0,0.0,-3.5276,-4.147,-4.3369,-4.3687,-4.2488,-4.0233,-3.6834,-3.2113,0.0,0.0,0.0,0.0,0.0,0.0,0.0,0.0,0.0,0.0,0.0,0.0,0.0,0.0,0.0,0.0,0.0,0.0,0.0,0.0,0.0,0.0,0.0,0.0,0.0,0.0,0.0,0.0,0.0,0.0,0.0,0.0,0.0,0.0,0.0,0.0,0.0,0.0,0.0,0.0,0.0,0.0,0.0,0.0,0.0,0.0,0.0,0.0,0.0,0.0,0.0,0.0,0.0,0.0,0.0,0.0,0.0,0.0,0.0,0.0,0.0,0.0,0.0,0.0,0.0,0.0,0.0,0.0,0.0,0.0,0.0,0.0,0.0,0.0,0.0,0.0,0.0,0.0,0.0,0.0,0.0,0.0,0.0,0.0,0.0,0.0,0.0,0.0,0.0,0.0,0.0,0.0,0.0,0.0,0.0,0.0,0.0,0.0,0.0,0.0,0.0,0.0,0.0,-3.3191,-3.6873,-4.1854,-4.3225,-4.3224,-4.1802,-3.9488,-3.6292,-3.2084,-2.9787,0.0,0.0,0.0,0.0,0.0,0.0,0.0,0.0,0.0,0.0,0.0,0.0,0.0,0.0,0.0,0.0,0.0,0.0,0.0,0.0,0.0,0.0,0.0,0.0,0.0,0.0,0.0,0.0,0.0,0.0,0.0,0.0,0.0,0.0,0.0,0.0,0.0,0.0,0.0,0.0,0.0,0.0,0.0,0.0,0.0,0.0,0.0,0.0,0.0,0.0,0.0,0.0,0.0,0.0,0.0,0.0,0.0,0.0,0.0,0.0,0.0,0.0,0.0,0.0,0.0,0.0,0.0,0.0,0.0,0.0,0.0,0.0,0.0,0.0,0.0,0.0,0.0,0.0,0.0,0.0,0.0,0.0,0.0,0.0,0.0,0.0,0.0,0.0,0.0,0.0,0.0,0.0,0.0,0.0,0.0,0.0,0.0,0.0,0.0,0.0,0.0,0.0,-3.6238,-3.8373,-4.1325,-4.2462,-4.2458,-4.1131,-3.8577,-3.5535,-3.2017,-2.8356,0.0,0.0,0.0,0.0,0.0,0.0,0.0,0.0,0.0,0.0,0.0,0.0,0.0,0.0,0.0,0.0,0.0,0.0,0.0,0.0,0.0,0.0,0.0,0.0,0.0,0.0,0.0,0.0,0.0,0.0,0.0,0.0,0.0,0.0,0.0,0.0,0.0,0.0,0.0,0.0,0.0,0.0,0.0,0.0,0.0,0.0,0.0,0.0,0.0,0.0,0.0,0.0,0.0,0.0,0.0,0.0,0.0,0.0,0.0,0.0,0.0,0.0,0.0,0.0,0.0,0.0,0.0,0.0,0.0,0.0,0.0,0.0,0.0,0.0,0.0,0.0,0.0,0.0,0.0,0.0,0.0,0.0,0.0,0.0,0.0,0.0,0.0,0.0,0.0,0.0,0.0,0.0,0.0,0.0,0.0,0.0,0.0,0.0,0.0,0.0,0.0,0.0,-3.6334,-3.9423,-4.0984,-4.1233,-4.115,-4.086,-3.6907,-3.3696,-3.1905,-2.7297,0.0,0.0,0.0,0.0,0.0,0.0,0.0,0.0,0.0,0.0,0.0,0.0,0.0,0.0,0.0,0.0,0.0,0.0,0.0,0.0,0.0,0.0,0.0,0.0,0.0,0.0,0.0,0.0,0.0,0.0,0.0,0.0,0.0,0.0,0.0,0.0,0.0,0.0,0.0,0.0,0.0,0.0,0.0,0.0,0.0,0.0,0.0,0.0,0.0,0.0,0.0,0.0,0.0,0.0,0.0,0.0,0.0,0.0,0.0,0.0,0.0,0.0,0.0,0.0,0.0,0.0,0.0,0.0,0.0,0.0,0.0,0.0,0.0,0.0,0.0,0.0,0.0,0.0,0.0,0.0,0.0,0.0,0.0,0.0,0.0,0.0,0.0,0.0,0.0,0.0,0.0,0.0,0.0,0.0,0.0,0.0,0.0,0.0,0.0,0.0,0.0,0.0,-3.5395,-3.8192,-4.03,-4.076,-4.0516,-3.9517,-3.6712,-3.3875,-3.1218,0.0,0.0,0.0,0.0,0.0,0.0,0.0,0.0,0.0,0.0,0.0,0.0,0.0,0.0,0.0,0.0,0.0,0.0,0.0,0.0,0.0,0.0,0.0,0.0,0.0,0.0,0.0,0.0,0.0,0.0,0.0,0.0,0.0,0.0,0.0,0.0,0.0,0.0,0.0,0.0,0.0,0.0,0.0,0.0,0.0,0.0,0.0,0.0,0.0,0.0,0.0,0.0,0.0,0.0,0.0,0.0,0.0,0.0,0.0,0.0,0.0,0.0,0.0,0.0,0.0,0.0,0.0,0.0,0.0,0.0,0.0,0.0,0.0,0.0,0.0,0.0,0.0,0.0,0.0,0.0,0.0,0.0,0.0,0.0,0.0,0.0,0.0,0.0,0.0,0.0,0.0,0.0,0.0,0.0,0.0,0.0,0.0,0.0,0.0,0.0,0.0,0.0,-3.1849,-3.4764,-3.7289,-3.9593,-3.9939,-3.9556,-3.8471,-3.5897,-3.315,-3.0381,0.0,0.0,0.0,0.0,0.0,0.0,0.0,0.0,0.0,0.0,0.0,0.0,0.0,0.0,0.0,0.0,0.0,0.0,0.0,0.0,0.0,0.0,0.0,0.0,0.0,0.0,0.0,0.0,0.0,0.0,0.0,0.0,0.0,0.0,0.0,0.0,0.0,0.0,0.0,0.0,0.0,0.0,0.0,0.0,0.0,0.0,0.0,0.0,0.0,0.0,0.0,0.0,0.0,0.0,0.0,0.0,0.0,0.0,0.0,0.0,0.0,0.0,0.0,0.0,0.0,0.0,0.0,0.0,0.0,0.0,0.0,0.0,0.0,0.0,0.0,0.0,0.0,0.0,0.0,0.0,0.0,0.0,0.0,0.0,0.0,0.0,0.0,0.0,0.0,0.0,0.0,0.0,0.0,0.0,0.0,0.0,0.0,0.0,0.0,0.0,0.0,0.0,-3.1598,-3.463,-3.7079,-3.8899,-3.8602,-3.8178,-3.7915,-3.4135,-3.1106,0.0,0.0,0.0,0.0,0.0,0.0,0.0,0.0,0.0,0.0,0.0,0.0,0.0,0.0,0.0,0.0,0.0,0.0,0.0,0.0,0.0,0.0,0.0,0.0,0.0,0.0,0.0,0.0,0.0,0.0,0.0,0.0,0.0,0.0,0.0,0.0,0.0,0.0,0.0,0.0,0.0,0.0,0.0,0.0,0.0,0.0,0.0,0.0,0.0,0.0,0.0,0.0,0.0,0.0,0.0,0.0,0.0,0.0,0.0,0.0,0.0,0.0,0.0,0.0,0.0,0.0,0.0,0.0,0.0,0.0,0.0,0.0,0.0,0.0,0.0,0.0,0.0,0.0,0.0,0.0,0.0,0.0,0.0,0.0,0.0,0.0,0.0,0.0,0.0,0.0,0.0,0.0,0.0,0.0,0.0,0.0,0.0,0.0,0.0,0.0,0.0,0.0,0.0,-3.1031,-3.372,-3.593,-3.7653,-3.7435,-3.6957,-3.6461,-3.3582,-3.0846,-2.8616,0.0,0.0,0.0,0.0,0.0,0.0,0.0,0.0,0.0,0.0,0.0,0.0,0.0,0.0,0.0,0.0,0.0,0.0,0.0,0.0,0.0,0.0,0.0,0.0,0.0,0.0,0.0,0.0,0.0,0.0,0.0,0.0,0.0,0.0,0.0,0.0,0.0,0.0,0.0,0.0,0.0,0.0,0.0,0.0,0.0,0.0,0.0,0.0,0.0,0.0,0.0,0.0,0.0,0.0,0.0,0.0,0.0,0.0,0.0,0.0,0.0,0.0,0.0,0.0,0.0,0.0,0.0,0.0,0.0,0.0,0.0,0.0,0.0,0.0,0.0,0.0,0.0,0.0,0.0,0.0,0.0,0.0,0.0,0.0,0.0,0.0,0.0,0.0,0.0,0.0,0.0,0.0,0.0,0.0,0.0,0.0,0.0,0.0,0.0,0.0,0.0,0.0,-3.0707,-3.3126,-3.5107,-3.6982,-3.6677,-3.6017,-3.524,-3.3093,-3.0604,-2.7798,0.0,0.0,0.0,0.0,0.0,0.0,0.0,0.0,0.0,0.0,0.0,0.0,0.0,0.0,0.0,0.0,0.0,0.0,0.0,0.0,0.0,0.0,0.0,0.0,0.0,0.0,0.0,0.0,0.0,0.0,0.0,0.0,0.0,0.0,0.0,0.0,0.0,0.0,0.0,0.0,0.0,0.0,0.0,0.0,0.0,0.0,0.0,0.0,0.0,0.0,0.0,0.0,0.0,0.0,0.0,0.0,0.0,0.0,0.0,0.0,0.0,0.0,0.0,0.0,0.0,0.0,0.0,0.0,0.0,0.0,0.0,0.0,0.0,0.0,0.0,0.0,0.0,0.0,0.0,0.0,0.0,0.0,0.0,0.0,0.0,0.0,0.0,0.0,0.0,0.0,0.0,0.0,0.0,0.0,0.0,0.0,0.0,0.0,0.0,0.0,0.0,0.0,-3.0386,-3.2603,-3.4497,-3.6614,-3.6152,-3.5263,-3.4201,-3.2623,-3.0344,-2.7204,0.0,0.0,0.0,0.0,0.0,0.0,0.0,0.0,0.0,0.0,0.0,0.0,0.0,0.0,0.0,0.0,0.0,0.0,0.0,0.0,0.0,0.0,0.0,0.0,0.0,0.0,0.0,0.0,0.0,0.0,0.0,0.0,0.0,0.0,0.0,0.0,0.0,0.0,0.0,0.0,0.0,0.0,0.0,0.0,0.0,0.0,0.0,0.0,0.0,0.0,0.0,0.0,0.0,0.0,0.0,0.0,0.0,0.0,0.0,0.0,-3.2856,0.0,0.0,0.0,0.0,0.0,0.0,0.0,0.0,0.0,0.0,0.0,0.0,0.0,0.0,0.0,0.0,0.0,0.0,0.0,0.0,0.0,0.0,0.0,0.0,0.0,0.0,0.0,0.0,0.0,0.0,0.0,0.0,0.0,0.0,0.0,0.0,0.0,0.0,0.0,0.0,0.0,-2.9075,-3.1496,-3.3557,-3.5396,-3.515,-3.4497,-3.3561,-3.1867,-2.9991,-2.7966,-2.4919,0.0,0.0,0.0,0.0,0.0,0.0,0.0,0.0,0.0,0.0,0.0,0.0,0.0,0.0,0.0,0.0,0.0,0.0,0.0,0.0,0.0,0.0,0.0,0.0,0.0,0.0,0.0,0.0,0.0,0.0,0.0,0.0,0.0,0.0,0.0,0.0,0.0,0.0,0.0,0.0,0.0,0.0,0.0,0.0,0.0,0.0,0.0,0.0,0.0,0.0,0.0,0.0,0.0,0.0,0.0,0.0,0.0,0.0,0.0,0.0,-3.4904,0.0,0.0,0.0,0.0,0.0,0.0,0.0,0.0,0.0,0.0,0.0,0.0,0.0,0.0,0.0,0.0,0.0,0.0,0.0,0.0,0.0,0.0,0.0,0.0,0.0,0.0,0.0,0.0,0.0,0.0,0.0,0.0,0.0,0.0,0.0,0.0,0.0,0.0,0.0,0.0,-2.9813,-3.1751,-3.3374,-3.5026,-3.4639,-3.3857,-3.2821,-3.1488,-2.9946,-2.8217,-2.6135,0.0,0.0,0.0,0.0,0.0,0.0,0.0,0.0,0.0,0.0,0.0,0.0,0.0,0.0,0.0,0.0,0.0,0.0,0.0,0.0,0.0,0.0,0.0,0.0,0.0,0.0,0.0,0.0,0.0,0.0,0.0,0.0,0.0,0.0,0.0,0.0,0.0,0.0,0.0,0.0,0.0,0.0,0.0,0.0,0.0,0.0,0.0,0.0,0.0,0.0,0.0,0.0,0.0,-4.1689,-4.22,-4.2904,-4.2904,-4.2901,-4.2779,-4.0723,-3.9386,-3.8482,-3.642,0.0,0.0,0.0,0.0,0.0,0.0,0.0,0.0,0.0,0.0,0.0,0.0,0.0,0.0,0.0,0.0,0.0,0.0,0.0,0.0,0.0,0.0,0.0,0.0,-3.2469,-3.1444,0.0,0.0,0.0,0.0,0.0,0.0,0.0,0.0,0.0,0.0,0.0,0.0,-3.0891,-3.2449,-3.3672,-3.5093,-3.4442,-3.3443,-3.2307,-3.1374,-3.0133,-2.8481,-2.7615,-2.6163,0.0,0.0,0.0,0.0,0.0,0.0,0.0,0.0,0.0,0.0,0.0,0.0,0.0,0.0,0.0,0.0,0.0,0.0,0.0,0.0,0.0,0.0,0.0,0.0,0.0,0.0,0.0,0.0,0.0,0.0,0.0,0.0,-3.2899,-3.4721,0.0,0.0,0.0,0.0,0.0,0.0,0.0,0.0,0.0,0.0,0.0,0.0,0.0,-4.0719,-4.2239,-4.3797,-4.471,-4.496,-4.6394,-4.7163,-4.7278,-4.7278,-4.7278,-4.724,-4.6912,0.0,-4.0346,-4.0028,0.0,0.0,0.0,0.0,0.0,0.0,0.0,0.0,0.0,0.0,0.0,0.0,0.0,0.0,0.0,0.0,0.0,0.0,0.0,0.0,0.0,0.0,-3.4771,-3.5111,-3.5182,-3.4621,0.0,-2.9172,-2.6666,-2.7088,-2.4767,0.0,0.0,0.0,0.0,0.0,0.0,0.0,-3.0308,-3.2583,-3.4404,-3.5357,-3.4511,-3.3551,-3.2699,-3.167,-3.0599,-2.9467,-2.8661,-2.7651,-2.647,-2.4232,0.0,0.0,0.0,0.0,0.0,0.0,0.0,0.0,0.0,0.0,0.0,0.0,0.0,0.0,0.0,0.0,0.0,0.0,0.0,0.0,0.0,0.0,0.0,0.0,0.0,0.0,0.0,0.0,0.0,-3.1403,-3.4123,-3.5343,-3.5749,-3.5567,0.0,0.0,0.0,0.0,0.0,0.0,0.0,0.0,0.0,-4.2566,-4.3113,-4.397,-4.522,-4.6413,-4.724,-4.774,-4.8471,-4.9086,-4.9548,-4.9548,-4.9548,-4.9548,-4.9548,-4.8046,-4.5406,-4.3069,-4.0699,-3.8433,0.0,0.0,0.0,0.0,-3.6753,-3.5973,-3.8671,-3.8808,0.0,-3.8105,0.0,0.0,0.0,0.0,0.0,0.0,0.0,0.0,0.0,0.0,-3.5989,-3.6939,-3.7132,-3.6903,-3.6124,-3.3358,-3.0699,0.0,-2.7835,-2.6309,-2.5678,0.0,0.0,0.0,0.0,-2.9407,-3.1525,-3.3199,-3.4526,-3.5404,-3.4196,-3.3166,-3.2741,-3.1367,-3.0311,-2.9805,-2.9333,-2.8679,-2.7773,-2.6162,-2.4121,0.0,0.0,0.0,0.0,0.0,0.0,0.0,0.0,0.0,0.0,0.0,0.0,0.0,0.0,0.0,0.0,0.0,0.0,0.0,0.0,0.0,0.0,0.0,0.0,0.0,0.0,0.0,0.0,-3.3429,-3.585,-3.6941,-3.8076,-3.8203,0.0,0.0,0.0,0.0,0.0,0.0,-4.1351,-4.2483,-4.3874,-4.5547,-4.622,-4.699,-4.7855,-4.8471,-4.9086,-4.9721,-4.9721,-5.0067,-5.0712,-5.0712,-5.0712,-5.0712,-5.0712,-5.0327,-4.9461,-4.5918,-4.348,-4.1841,-4.049,-3.8933,-3.7705,-3.999,-3.9872,-3.8998,-4.1777,-4.2187,-4.1465,-4.1269,0.0,-3.8867,-3.6699,0.0,0.0,0.0,0.0,-3.466,-3.7207,-3.7359,-3.7186,-3.8617,-3.8932,-3.8839,-3.8572,-3.6864,-3.4679,0.0,-3.0811,-2.9607,-2.8511,0.0,0.0,0.0,0.0,-3.0918,-3.2968,-3.3988,-3.4693,-3.5122,-3.3814,-3.2775,-3.2474,-3.1044,-3.0102,-2.9954,-2.9809,-2.9432,-2.8813,-2.782,-2.6199,-2.3936,0.0,0.0,0.0,0.0,0.0,0.0,0.0,0.0,0.0,0.0,0.0,0.0,0.0,0.0,0.0,0.0,0.0,0.0,0.0,0.0,0.0,0.0,0.0,0.0,0.0,0.0,0.0,0.0,0.0,-4.1089,-4.2701,0.0,0.0,0.0,0.0,-3.95,-4.182,-4.3813,-4.4985,-4.6052,-4.7413,-4.9086,-4.9183,-4.9625,-5.05,-5.0558,-5.0596,-5.0635,-5.0635,-5.0654,-5.0712,-5.0712,-5.0712,-5.0712,-5.0712,-5.0673,-5.05,-4.8615,-4.6904,-4.5363,-4.4527,-4.3233,-4.2003,-4.2965,-4.2819,-4.2292,-4.3298,-4.3065,-4.2616,-4.4219,-4.3086,-4.0898,-3.9922,-3.7305,0.0,0.0,-3.6543,-3.6464,-3.9006,-3.9621,-3.9794,-4.0582,-4.0767,-4.0524,-3.9621,-3.8682,-3.7497,0.0,-3.3402,-3.1908,-3.2657,0.0,-3.1723,-3.265,-3.2797,-3.313,-3.4025,-3.4905,-3.513,-3.434,-3.3449,-3.2583,-3.1821,-3.0917,-3.0299,-3.0109,-3.0068,-3.0003,-2.9837,-2.8868,-2.7532,-2.5794,-2.3905,0.0,0.0,0.0,0.0,0.0,0.0,0.0,0.0,0.0,0.0,0.0,0.0,0.0,0.0,0.0,0.0,0.0,0.0,0.0,0.0,0.0,0.0,0.0,0.0,0.0,0.0,0.0,0.0,-4.2184,-4.3819,0.0,-4.2426,-4.2797,-4.3193,-4.3256,-4.4777,-4.6225,-4.735,-4.843,-4.9629,-5.0962,-5.101,-5.1433,-5.2299,-5.2318,-5.2029,-5.1471,-5.1471,-5.1202,-5.0712,-5.0712,-5.0712,-5.0712,-5.0712,-5.0712,-5.0654,-5.0029,-4.9095,-4.8022,-4.7241,-4.6608,-4.6187,-4.6672,-4.6326,-4.5672,-4.6066,-4.5643,-4.492,-4.498,-4.3633,-4.1914,-4.1601,-4.0273,-3.9004,-3.9629,-3.959,-3.9551,-4.0467,-4.0673,-4.0693,-4.0972,-4.0953,-4.0801,-4.0475,-3.9243,-3.8019,-3.7425,-3.477,-3.2914,-3.3789,-3.2759,-3.2106,-3.2965,-3.3509,-3.3931,-3.4166,-3.4468,-3.4533,-3.4225,-3.2968,-3.2006,-3.1718,-3.0904,-3.0367,-3.0299,-3.0176,-3.0087,-3.003,-2.9591,-2.8533,-2.6768,-2.5032,-2.2084,0.0,0.0,0.0,0.0,0.0,0.0,0.0,0.0,0.0,0.0,0.0,0.0,0.0,0.0,0.0,0.0,0.0,0.0,0.0,0.0,0.0,0.0,0.0,0.0,0.0,-3.9733,-4.2222,-4.3856,-4.5751,-4.6475,-4.5361,-4.6011,-4.6655,-4.7063,-4.7997,-4.8911,-4.9771,-5.0596,-5.1404,-5.2154,-5.2267,-5.2615,-5.3203,-5.3203,-5.275,-5.1904,-5.1904,-5.1491,-5.0712,-5.0712,-5.0712,-5.0712,-5.0712,-5.0712,-5.0712,-5.0712,-5.0366,-4.9798,-4.9299,-4.8968,-4.8735,-4.8667,-4.8113,-4.7372,-4.723,-4.6773,-4.6208,-4.5624,-4.4257,-4.2832,-4.2832,-4.207,-4.1191,-4.1191,-4.1191,-4.1191,-4.1191,-4.1169,-4.1121,-4.1111,-4.0811,-4.0513,-4.0474,-3.9068,-3.7799,-3.7779,-3.5718,-3.4156,-3.4742,-3.3886,-3.332,-3.3884,-3.4425,-3.4751,-3.4679,-3.4422,-3.4121,-3.384,-3.2531,-3.1576,-3.1287,-3.0737,-3.0404,-3.0404,-3.0267,-3.0196,-3.0196,-2.9789,-2.884,-2.731,-2.5241,-2.2794,-1.9936,0.0,0.0,0.0,0.0,0.0,0.0,0.0,0.0,0.0,0.0,0.0,0.0,0.0,0.0,0.0,0.0,0.0,0.0,0.0,0.0,0.0,0.0,0.0,-4.0285,-4.2575,-4.4692,-4.6382,-4.8686,-4.954,-4.7999,-5.0042,-5.1244,-5.0703,-5.1375,-5.1933,-5.2176,-5.25,-5.2691,-5.2742,-5.3064,-5.3231,-5.328,-5.328,-5.2837,-5.1942,-5.1942,-5.151,-5.0712,-5.0712,-5.0712,-5.0712,-5.0712,-5.0712,-5.0712,-5.0712,-5.0712,-5.0712,-5.0712,-5.0256,-4.9544,-4.8819,-4.8049,-4.7297,-4.655,-4.6297,-4.6302,-4.6306,-4.5115,-4.371,-4.3691,-4.2539,-4.1191,-4.1191,-4.1191,-4.1191,-4.1191,-4.1191,-4.1171,-4.1078,-4.0426,-3.9761,-3.9599,-3.8212,-3.6977,-3.6931,-3.6251,-3.5704,-3.5704,-3.5704,-3.5684,-3.5665,-3.5665,0.0,-3.5529,-3.4756,-3.3895,-3.3051,-3.2174,-3.1322,-3.0475,-3.0402,-3.0404,-3.0404,-3.0404,-3.0404,-3.0404,-2.9455,-2.8462,-2.7452,-2.4671,-2.3229,-2.3203,0.0,0.0,0.0,0.0,0.0,0.0,0.0,0.0,0.0,0.0,0.0,0.0,0.0,0.0,0.0,0.0,0.0,0.0,0.0,0.0,0.0,-3.9064,-4.1813,-4.2853,-4.4636,-4.642,-4.8054,-4.9893,-5.1101,-5.1249,-5.2401,-5.2847,-5.2119,-5.2268,-5.224,-5.1936,-5.1989,-5.2541,-5.3601,-5.3726,-5.4181,-5.4991,-5.5011,-5.428,-5.2837,-5.2837,-5.2087,-5.0712,-5.0712,-5.0712,-5.0712,-5.0712,-5.0712,-5.0712,-5.0712,-5.0712,-5.0712,-5.0712,-5.0587,-5.0305,-4.9571,-4.8494,-4.7297,-4.6554,-4.6297,-4.6302,-4.6306,-4.5115,-4.371,-4.3691,-4.2539,-4.1191,-4.1191,-4.1191,-4.1191,-4.1191,-4.1191,-4.1035,-4.0389,-4.0009,-3.9618,-3.895,-3.7845,-3.6995,-3.6987,-3.6284,-3.5704,-3.5704,-3.5704,-3.5496,-3.4858,-3.4761,0.0,-3.3862,-3.3032,-3.2383,-3.2097,-3.1289,-3.0667,-3.0417,-3.0402,-3.0396,-3.04,-3.0396,-3.0404,-3.0404,-3.0137,-2.9461,-2.8355,-2.5668,-2.3923,0.0,0.0,0.0,0.0,0.0,0.0,0.0,0.0,0.0,0.0,0.0,0.0,0.0,0.0,0.0,0.0,0.0,0.0,0.0,0.0,0.0,0.0,-4.2612,-4.5379,-4.6884,-4.7646,-4.8649,-5.0265,-5.1899,-5.3237,-5.4073,-5.4574,-5.45,-5.3683,-5.3608,-5.333,-5.2671,-5.2771,-5.3239,-5.4107,-5.4408,-5.4847,-5.552,-5.5314,-5.453,-5.3203,-5.2837,-5.1972,-5.0712,-5.0712,-5.0712,0.0,-5.0712,-5.0712,-5.0712,-5.0712,-5.0712,0.0,0.0,0.0,0.0,0.0,-4.7863,-4.6807,-4.6431,-4.6291,-4.6295,-4.6301,-4.5111,-4.3706,-4.369,-4.2519,-4.1152,-4.1191,-4.1191,-4.1191,-4.1191,-4.1191,-4.1074,-4.0566,-3.9861,-3.915,-3.8612,-3.7479,-3.6515,-3.6472,-3.6047,0.0,-3.5695,-3.54,-3.511,-3.4974,-3.4311,-3.3803,-3.3666,-3.2564,-3.1781,-3.1744,-3.0962,-3.0449,-3.0449,-3.0442,0.0,0.0,0.0,-3.0248,-2.9871,-2.9805,0.0,0.0,0.0,0.0,0.0,0.0,0.0,0.0,-2.4695,-2.4584,0.0,0.0,0.0,0.0,0.0,0.0,0.0,0.0,0.0,0.0,0.0,0.0,0.0,0.0,0.0,0.0,-4.6364,-4.8816,-5.1193,-5.1156,-5.1379,-5.2717,-5.4221,-5.5503,-5.6357,-5.6525,-5.6172,-5.5224,-5.515,-5.476,-5.385,0.0,0.0,0.0,0.0,-5.5205,-5.5148,-5.4718,-5.401,-5.3049,-5.2269,-5.1491,-5.0712,-5.0712,-5.0712,-5.0712,-5.0712,-5.0712,-5.0712,-5.0712,-5.0712,-5.0693,-5.0596,-5.001,-4.9075,-4.7695,-4.6698,-4.6098,-4.6238,0.0,0.0,-4.6192,-4.5043,-4.3678,-4.359,-4.24,-4.1112,-4.1172,-4.1191,-4.1191,-4.1191,-4.1191,-4.1152,-4.0957,-3.9726,-3.8534,-3.8268,-3.6992,-3.5857,-3.5751,-3.571,-3.5691,-3.5702,-3.5057,-3.4781,-3.5458,-3.4151,-3.3339,-3.4026,-3.2687,-3.1657,-3.1652,0.0,0.0,-3.0496,-3.0495,-3.0474,-3.0428,-3.0398,-3.0059,-2.928,-2.9123,-2.8966,-2.876,-2.864,-2.8849,-2.9396,-2.9396,-2.9396,-2.9322,-2.6414,-2.5819,0.0,0.0,0.0,0.0,0.0,0.0,0.0,0.0,0.0,0.0,0.0,0.0,0.0,0.0,0.0,-4.5565,-4.8054,-5.0283,-5.2104,-5.3961,-5.4964,-5.4593,-5.5429,-5.6376,-5.7193,-5.7862,-5.7639,-5.6172,-5.606,-5.5391,-5.3887,-5.387,-5.4017,-5.4298,-5.47,-5.4685,-5.4256,-5.441,-5.3703,-5.2154,0.0,0.0,-5.0712,-5.0712,-5.0712,-5.0712,-5.0712,-5.0712,-5.0712,-5.0712,-5.0712,-5.0635,-4.9933,-4.9125,-4.8248,-4.7368,-4.6563,-4.5969,-4.6095,-4.6211,-4.6184,-4.5489,-4.4554,-4.3579,-4.2864,-4.193,0.0,-4.1112,-4.1152,-4.1191,-4.1191,-4.1191,-4.0859,-3.9434,-3.8848,-3.8203,-3.6796,-3.6183,-3.589,-3.5877,-3.5762,-3.5693,-3.5696,-3.5568,-3.5264,-3.4723,-3.377,-3.2914,-3.2372,-3.1449,-3.0801,-3.0757,-3.0593,-3.0496,-3.0496,-3.0495,-3.049,-3.0481,-3.0419,-3.0323,-3.0154,-3.0117,-2.9953,-2.9655,-2.9615,-2.953,-2.9396,-2.9396,-2.9396,-2.9378,-2.8756,-2.8626,0.0,0.0,0.0,0.0,0.0,0.0,0.0,0.0,0.0,0.0,0.0,-4.0253,-4.1887,0.0,-4.6067,-4.8556,-5.0636,-5.2549,-5.4221,-5.5874,-5.6599,-5.5763,-5.6747,-5.7658,-5.8066,-5.8103,-5.7602,-5.6395,-5.5912,-5.5113,-5.3868,-5.3813,-5.3889,-5.4035,-5.4544,-5.4448,-5.3748,-5.3817,-5.3203,-5.1904,-5.1491,-5.1087,-5.0712,-5.0712,-5.0712,-5.0712,-5.0712,-5.0712,-5.0712,-5.0712,-5.0442,-4.9952,-4.9086,-4.849,-4.7951,-4.6816,-4.6177,-4.5877,-4.6037,-4.5868,-4.5489,-4.5127,-4.4118,-4.2968,-4.2528,-4.1789,-4.1107,-4.1091,-4.1112,-4.1152,-4.1191,-4.1191,-4.0879,-3.9551,-3.8926,-3.8242,-3.6934,-3.6287,-3.5948,-3.5917,-3.5845,-3.5788,-3.571,-3.5372,-3.5093,-3.5057,-3.3228,-3.1985,-3.2391,-3.1371,-3.0593,-3.0559,-3.0554,-3.0554,-3.0554,-3.0515,-3.05,-3.05,-3.0439,-3.04,-3.0404,-3.0404,-3.0273,-3.0,-2.9923,-2.976,-2.9502,-2.9429,-2.9396,-2.9396,-2.9396,-2.9396,0.0,0.0,0.0,0.0,0.0,0.0,0.0,-3.8484,-3.9425,-4.0341,-4.224,-4.4153,-4.5509,-4.707,-4.8872,-5.1045,-5.2884,-5.4574,-5.6097,-5.6989,-5.7268,-5.6617,-5.7676,-5.8475,-5.8475,-5.7751,-5.6933,-5.6116,-5.541,-5.4648,-5.385,-5.3813,-5.3813,-5.3813,-5.4296,-5.4128,-5.3257,-5.3058,-5.2529,-5.1654,-5.101,-5.0712,-5.0712,-5.0712,-5.0712,-5.0712,-5.0712,-5.0712,-5.0712,-5.0712,-5.0192,-4.9317,-4.8432,-4.8009,-4.7701,-4.6291,-4.5778,-4.5822,-4.6002,-4.5519,-4.478,-4.4762,-4.3684,-4.2376,-4.2208,-4.1664,-4.11,-4.1108,-4.1091,-4.1111,-4.1172,-4.1054,-4.0723,-3.9844,-3.8984,-3.8105,-3.7246,-3.6504,-3.5976,-3.5926,-3.5918,-3.5818,-3.5532,-3.4808,-3.4527,-3.5338,-3.2803,-3.1313,-3.2662,-3.1521,-3.0598,-3.0598,-3.0598,-3.0598,-3.0598,-3.0554,-3.0515,-3.049,-3.0444,-3.0411,-3.0396,-3.0404,-3.0305,-3.0089,-2.9992,-2.9836,-2.9608,-2.9482,-2.9419,-2.9396,-2.9396,-2.9396,-3.8552,-3.7859,-3.7747,-3.984,-3.9946,-4.0612,0.0,-4.467,-4.4116,-4.5406,-4.6457,-4.7218,-4.7404,-4.876,-5.019,-5.1231,-5.3348,-5.5206,-5.6172,-5.6989,-5.7472,-5.7379,-5.7528,-5.7639,-5.7639,-5.6915,-5.6079,-5.5224,-5.5076,-5.4648,-5.385,-5.3813,-5.3813,-5.3813,-5.3712,-5.3223,-5.2338,-5.2146,-5.1645,-5.0827,-5.075,-5.0712,-5.0712,-5.0712,-5.0712,-5.0712,-5.0712,-5.0712,-5.0712,-5.0712,-5.0192,-4.9317,-4.8432,-4.7663,-4.6913,-4.5977,-4.57,-4.5808,-4.5897,-4.5432,-4.4683,-4.4042,-4.3196,-4.2259,-4.148,-4.1172,-4.1099,-4.11,-4.1104,-4.1108,-4.1111,-4.0584,-3.9823,-3.8945,-3.8086,-3.7207,-3.6328,-3.6074,-3.5996,-3.5996,-3.5948,-3.5658,-3.4867,-3.3963,-3.3619,-3.4429,-3.2899,-3.1734,-3.1927,-3.1159,-3.0598,-3.0598,-3.0598,-3.0598,-3.0598,-3.0593,-3.0559,-3.0491,-3.049,-3.0463,-3.0392,-3.0402,-3.0305,-3.0089,-3.0095,-2.9912,-2.9608,-2.958,-2.9522,-2.9396,-2.9396,-2.9396,-4.127,-4.1421,-4.1675,-4.2562,-4.3295,-4.4252,-4.6026,-4.6166,-4.619,-4.7221,-4.7963,-4.8407,-4.8407,-4.9745,-5.1138,-5.1955,-5.3738,-5.5484,-5.6822,-5.645,-5.6227,-5.6747,-5.5949,-5.5726,-5.671,-5.6042,-5.5391,-5.5039,-5.4574,-5.4166,-5.3831,-5.3813,-5.3813,-5.3813,-5.3599,-5.3072,-5.2205,-5.2012,-5.151,-5.0712,-5.0712,-5.0712,-5.0712,-5.0712,-5.0712,-5.0712,-5.0712,-5.0712,-5.0712,-5.0712,-4.9894,-4.8606,-4.824,-4.7298,-4.6105,-4.5729,-4.5637,-4.563,-4.5228,-4.4591,-4.3852,-4.312,-4.2319,-4.1576,-4.1207,-4.1091,-4.1094,-4.1098,-4.11,-4.0986,-4.0523,-4.0153,-3.9549,-3.8163,-3.7578,-3.7051,-3.6191,-3.5996,-3.5996,-3.5996,-3.5975,-3.5833,-3.5429,-3.4215,-3.3414,-3.3715,-3.2243,-3.1275,-3.1734,-3.1101,-3.0598,-3.0598,-3.0598,-3.0598,-3.0598,-3.0598,-3.0564,-3.0496,-3.0495,-3.0469,-3.0398,-3.0402,-3.0361,-3.0286,-3.015,-2.9981,-2.9758,-2.9662,-2.9522,-2.9396,-2.9396,-2.9396,-4.2989,-4.4047,-4.504,-4.5103,-4.6396,-4.7588,-4.7296,-4.7535,-4.7952,-4.8455,-4.8821,-4.9044,-4.9044,-5.0149,-5.1305,-5.2141,-5.3627,-5.5169,-5.6617,-5.5577,-5.4909,-5.554,-5.4147,-5.3701,-5.515,-5.4909,-5.4686,-5.4686,-5.4128,-5.3813,-5.3813,-5.3813,-5.3813,-5.3813,-5.3313,-5.2756,-5.2205,-5.1694,-5.12,-5.0712,-5.0712,-5.0712,-5.0712,-5.0712,-5.0712,-5.0712,-5.0712,-5.0712,-5.0712,-5.0712,-4.9798,-4.8432,-4.8202,-4.7221,-4.5932,-4.5691,-4.5594,-4.5486,-4.4764,-4.4026,-4.3282,-4.2548,-4.1757,-4.1109,-4.1109,-4.1109,-4.109,-4.1095,-4.1097,-4.0903,-4.0108,-3.972,-3.9157,-3.7655,-3.7128,-3.6777,-3.6133,-3.5996,-3.5996,-3.5996,-3.5996,-3.5839,-3.5302,-3.4203,-3.3216,-3.268,-3.1482,-3.0823,-3.1394,-3.096,-3.0598,-3.0598,-3.0598,-3.0598,-3.0598,-3.0598,-3.0588,-3.053,-3.0505,-3.0479,-3.0428,-3.0414,-3.0396,-3.0404,-3.0254,-3.0114,-2.9946,-2.9767,-2.9589,-2.9451,-2.9427,-2.9396,-4.3297,-4.4932,-4.7,-4.7788,-4.9269,-5.0489,-5.0157,-5.0087,-5.0035,-4.98,-4.955,-4.9365,-4.9365,-4.9801,-5.0432,-5.1305,-5.2791,-5.4128,-5.4964,-5.437,-5.385,-5.3868,-5.2457,-5.1806,0.0,-5.3385,-5.385,-5.385,-5.3813,-5.3813,-5.3813,-5.3813,-5.3813,-5.3813,-5.2535,-5.1946,-5.2205,-5.0901,-5.0388,-5.0712,-5.0712,-5.0712,-5.0712,-5.0712,-5.0712,-5.0712,-5.0712,-5.0712,-5.0712,-5.0712,-5.0164,-4.9279,-4.8432,-4.7586,-4.6759,-4.5913,-4.5594,-4.5486,-4.4764,-4.4026,-4.3282,-4.2548,-4.1757,-4.1109,-4.1109,-4.1109,-4.1109,-4.1109,-4.1109,-4.0915,-4.0103,-3.9265,-3.8408,-3.7517,-3.6659,-3.6034,-3.6016,-3.5996,-3.5996,-3.5996,-3.5996,-3.5469,-3.3769,-3.3432,-3.2833,-3.1132,-3.0773,-3.0686,-3.0639,-3.0617,-3.0598,-3.0598,-3.0598,-3.0598,-3.0598,-3.0598,-3.0598,-3.0598,-3.055,-3.0505,-3.0504,-3.0433,-3.04,-3.0404,-3.0398,-3.0299,-3.0082,-2.9954,-2.9794,-2.9589,-2.9461,-2.9396,-4.524,-4.6644,-4.7894,-4.8759,-4.9837,-5.0673,-5.0554,-5.0358,-5.0171,-5.0068,-4.9712,-4.9399,-4.9399,-4.978,-5.0395,-5.1268,-5.2308,-5.3478,-5.4816,-5.4314,-5.3608,-5.307,-5.2995,0.0,0.0,0.0,0.0,-5.372,-5.3311,-5.3237,-5.3775,-5.3813,-5.3571,-5.3032,-5.2219,-5.1663,-5.1405,-5.0596,-5.0369,-5.0712,-5.0712,-5.0712,-5.0712,-5.0712,-5.0712,-5.0712,-5.0712,-5.0712,-5.0712,-5.0712,-4.9856,-4.8509,-4.8221,-4.7259,-4.599,-4.571,-4.5594,-4.5488,-4.4661,-4.3887,-4.3148,-4.2417,-4.1652,-4.103,-4.1081,-4.1109,-4.1109,-4.1109,-4.1109,-4.0777,-3.9394,-3.8812,-3.823,-3.6789,-3.6207,-3.5995,-3.5995,-3.5996,-3.5996,-3.5996,-3.5996,-3.5801,-3.5234,-3.4179,-3.2808,-3.1058,-3.0735,-3.0669,-3.0603,-3.0591,-3.0591,-3.0607,-3.0598,-3.0598,-3.0598,-3.0598,-3.0598,-3.0598,-3.053,-3.0505,-3.0504,-3.0433,-3.04,-3.0404,-3.0404,-3.0305,-3.0109,-3.0059,-2.9872,-2.9608,-2.9561,-2.9491,-4.7105,-4.8394,-4.9221,-5.0087,-5.0952,-5.1433,-5.0846,-5.0525,-5.0292,-4.9986,-4.9334,-4.8754,-4.8673,-4.8559,-4.9047,-5.0691,-5.1379,-5.2382,-5.4314,-5.3887,-5.3181,-5.2661,-5.281,-5.2661,-5.1899,-5.1565,0.0,-5.3683,-5.333,-5.3255,-5.3775,-5.3813,-5.3441,-5.2624,-5.1985,-5.1458,-5.0988,-5.0374,-5.026,-5.0712,-5.0712,-5.0712,-5.0712,-5.0712,-5.0712,-5.0712,-5.0712,-5.0712,-5.0673,-5.0366,-4.9586,-4.8509,-4.7913,-4.7009,-4.6028,-4.571,-4.5594,-4.5441,-4.4259,-4.3574,-4.3015,-4.1945,-4.1328,-4.1019,-4.1057,-4.1078,-4.1109,-4.1109,-4.1109,-4.0719,-3.904,-3.8594,-3.8168,-3.6414,-3.6009,-3.5993,-3.5995,-3.5995,-3.5996,-3.5996,-3.5996,-3.5898,-3.5586,-3.4101,-3.2499,-3.1048,-3.0801,-3.0734,-3.0645,-3.061,-3.0595,-3.0597,-3.0601,-3.0598,-3.0598,-3.0598,-3.0598,-3.0598,-3.0559,-3.052,-3.0495,-3.0455,-3.0428,-3.0402,-3.0402,-3.0336,-3.0202,-3.0136,-2.9958,-2.9716,-2.9635,-2.9541,-4.8798,-5.0125,-5.101,-5.1769,-5.2538,-5.2722,-5.1106,-5.0712,-5.0385,-4.951,-4.8438,-4.753,-4.7195,-4.6345,-4.6652,-4.961,-5.0134,-5.1044,-5.3515,-5.3237,-5.2772,-5.2735,-5.2122,-5.1955,-5.2605,-5.2011,-5.2197,-5.3701,0.0,-5.3775,-5.3813,-5.3813,-5.3423,-5.2568,-5.1806,-5.1245,-5.0932,-5.021,-5.013,-5.0712,-5.0712,-5.0712,-5.0712,-5.0712,-5.0712,-5.0712,-5.0712,-5.0712,-5.0635,-4.976,-4.9375,-4.9163,-4.7548,-4.6865,-4.674,-4.5893,-4.5594,-4.5364,-4.3682,-4.3142,-4.293,-4.1287,-4.0864,-4.0981,-4.101,-4.1033,-4.1106,-4.1108,-4.1109,-4.0719,-3.904,-3.8591,-3.8163,-3.6412,-3.6004,-3.6007,-3.5993,-3.5995,-3.5995,-3.5996,-3.5996,-3.5723,-3.4844,-3.334,-3.1973,-3.1094,-3.0937,-3.0855,-3.0722,-3.0642,-3.0597,-3.0609,-3.0593,-3.0598,-3.0598,-3.0598,-3.0598,-3.0598,-3.0598,-3.0564,-3.0496,-3.0496,-3.0471,-3.0398,-3.0398,-3.04,-3.0404,-3.0202,-3.0044,-2.991,-2.9716,-2.9532,-5.0019,-5.1433,-5.2606,-5.2818,-5.2538,-5.2115,-5.1702,-5.0625,-4.9471,-4.8606,-4.7527,-4.6323,-4.5006,-4.5924,-4.7241,-4.8383,-5.0141,-5.2166,-5.439,-5.5076,-5.5131,-5.4481,-5.5317,-5.5299,-5.3664,-5.385,-5.3998,0.0,-5.3237,-5.3181,-5.3775,-5.3813,-5.3162,-5.1751,-5.1509,-5.0983,-5.0112,-5.034,-5.0544,-5.0712,-5.0712,-5.0712,-5.0712,-5.0712,-5.0712,-5.0712,-5.0712,-5.0712,-5.0635,-4.976,-4.9029,-4.8336,-4.7298,-4.6509,-4.5893,-4.5691,-4.5594,-4.5364,-4.3682,-4.311,-4.2954,-4.1931,-4.122,-4.08,-4.096,-4.1003,-4.1044,-4.1081,-4.1109,-4.0719,-3.904,-3.8591,-3.8162,-3.6405,-3.6,-3.6005,-3.6007,-3.5992,-3.5995,-3.5995,-3.5996,-3.5723,-3.4844,-3.3809,-3.2812,-3.1992,-3.1328,-3.0855,-3.0722,-3.0697,-3.0652,-3.0613,-3.0592,-3.0598,-3.0598,-3.0598,-3.0598,-3.0598,-3.0598,-3.0564,-3.0496,-3.0496,-3.0471,-3.0398,-3.0398,-3.04,-3.0404,-3.0355,-3.0228,-3.0052,-2.9891,-2.9725,-5.1933,-5.3049,-5.3683,-5.3299,-5.2837,-5.2077,-5.0558,-4.951,-4.8279,-4.6317,-4.5083,-4.3943,-4.2497,-4.3896,-4.5697,-4.6911,-4.9449,-5.2076,-5.4372,-5.5284,-5.5689,-5.5577,-5.6413,-5.6283,-5.45,-5.4741,-5.4686,-5.3868,-5.3385,-5.333,-5.3775,-5.3478,-5.2698,-5.1435,-5.1026,-5.0497,-4.9803,-5.0388,-5.0712,-5.0712,-5.0712,-5.0712,-5.0712,-5.0712,-5.0712,-5.0712,0.0,-5.0481,-5.0048,-4.9183,-4.8336,-4.749,-4.6663,-4.6028,-4.5594,-4.5594,-4.5594,-4.5364,-4.3682,-4.3104,-4.2909,-4.1673,-4.1016,-4.0736,-4.0861,-4.0948,-4.1006,-4.1078,-4.0816,-4.0229,-3.8942,-3.8318,-3.7692,-3.6324,-3.5996,-3.6,-3.6003,-3.6009,-3.5992,-3.5994,-3.5996,-3.5723,-3.4844,-3.4297,-3.3574,-3.2383,-3.1777,-3.1286,-3.0803,-3.0722,-3.0675,-3.0618,-3.0606,-3.0598,-3.0598,-3.0598,-3.0598,-3.0598,-3.0598,-3.0569,-3.0554,-3.0535,-3.0515,-3.0449,-3.0444,-3.0422,-3.0408,-3.039,-3.0299,-3.0109,-3.0022,-2.9851,-5.3876,-5.4587,-5.4453,-5.3587,-5.3299,-5.2337,-4.9029,-4.8009,-4.6855,-4.3605,-4.2143,-4.1124,-4.0031,-4.1332,-4.3306,-4.5519,-4.8405,-5.1281,-5.3941,-5.4781,-5.5471,-5.6339,-5.649,-5.6175,-5.5261,-5.5076,-5.4686,-5.3868,-5.3813,-5.3813,-5.3813,-5.3051,-5.2178,-5.1268,-5.0465,-4.9977,-4.9803,-5.0388,-5.0712,-5.0712,-5.0712,-5.0712,-5.0712,-5.0712,-5.0712,-5.0693,-5.0577,0.0,-4.9317,-4.8336,-4.7528,-4.6817,-4.5932,-4.5594,-4.5594,-4.5594,-4.5537,-4.521,-4.3643,-4.3028,-4.2662,-4.1035,-4.0586,-4.0694,-4.0756,-4.0874,-4.0974,-4.0933,-4.0382,-3.9585,-3.8669,-3.7869,-3.7087,-3.6207,-3.5992,-3.5995,-3.6001,-3.6003,-3.6007,-3.5994,-3.5996,-3.5762,-3.5,-3.4785,-3.4219,-3.2754,-3.2344,-3.1893,-3.1077,-3.0817,-3.0677,-3.0603,-3.061,-3.0592,-3.0598,-3.0598,-3.0598,-3.0598,-3.0598,-3.0598,-3.0598,-3.0598,-3.0622,-3.067,-3.0558,-3.0527,-3.0571,-3.0581,-3.0426,-3.0136,-3.023,-3.0114,-5.4184,-5.4991,-5.5299,-5.4472,-5.3722,-5.2491,-4.9798,-4.7548,-4.5259,-4.2585,-4.0796,-3.9442,-3.852,-4.0318,-4.2678,-4.4895,-4.7467,-5.0388,-5.3804,-5.5178,-5.6184,-5.7181,-5.7546,-5.7286,-5.6193,-5.5429,-5.4686,0.0,-5.3813,-5.3813,-5.3813,-5.3051,-5.1936,-5.045,-5.0047,-4.9839,-4.9803,-5.0388,-5.0712,-5.0712,-5.0712,-5.0712,-5.0712,-5.0712,-5.0712,-5.0654,-4.9933,0.0,-4.9279,-4.774,-4.7019,-4.6817,-4.5932,-4.5594,-4.5594,-4.5594,-4.5152,-4.4393,-4.3431,-4.2624,-4.1854,-4.0843,-4.0512,-4.0564,-4.0668,-4.0775,-4.0719,-4.0114,-3.9872,-3.9449,-3.7926,-3.7419,-3.7087,-3.6207,-3.5992,-3.5992,-3.5994,-3.6,-3.6007,-3.5994,-3.5995,-3.5956,-3.5801,-3.5176,-3.4609,-3.4316,-3.3086,-3.2128,-3.1898,-3.1247,-3.073,-3.061,-3.0602,-3.0607,-3.0607,-3.0598,-3.0598,-3.0598,-3.0598,-3.0598,-3.0598,-3.0598,-3.0917,-3.1569,-3.0863,-3.0813,-3.1476,-3.1471,-3.1095,-3.0368,-3.0917,-3.1145,-5.426,-5.5088,-5.5395,-5.4145,-5.351,-5.2183,-4.8298,-4.6133,-4.3951,-4.0527,-3.8815,-3.77,-3.6853,-3.9123,-4.1621,-4.3139,-4.5757,-4.8915,-5.2673,-5.3518,-5.454,-5.6622,-5.7019,-5.6723,-5.5727,-5.5261,-5.4686,-5.3868,-5.3813,-5.3627,-5.32,-5.1992,-5.0748,-4.9559,-4.9568,-4.967,-4.9803,-5.0225,-5.0534,-5.0712,-5.0712,-5.0712,-5.0712,-5.0712,-5.0712,-5.0654,-4.9779,0.0,-4.8625,-4.7413,-4.6624,-4.6182,-4.5768,-4.5594,-4.5556,-4.5094,-4.4662,-4.4124,-4.2854,-4.2162,-4.1662,-4.0785,-4.0496,-4.0527,-4.0655,-4.0717,-4.0703,-4.0454,-3.9744,-3.8894,-3.8175,-3.7301,-3.6519,-3.6109,-3.5992,-3.5992,-3.5992,-3.5999,-3.6006,-3.5992,-3.5994,-3.5995,-3.5996,-3.5644,-3.5215,-3.4766,-3.3633,-3.2656,-3.2203,-3.1382,-3.0801,-3.0661,-3.0617,-3.0598,-3.0599,-3.061,-3.0598,-3.0598,-3.0598,-3.0598,-3.0598,-3.1004,-3.1405,-3.1796,-3.14,-3.1379,-3.1758,-3.1262,-3.081,-3.0427,-3.12,-3.1492,-5.4271,-5.511,-5.5323,-5.3636,-5.3068,-5.1645,-4.673,-4.4643,-4.2662,-3.8796,-3.718,-3.6308,-3.5846,-3.7911,-4.0142,-4.1566,-4.4001,-4.7053,-5.0944,-5.1741,-5.2909,-5.5566,-5.6049,-5.5842,-5.5076,-5.4853,-5.4481,-5.385,-5.3478,-5.3014,-5.2382,-5.0933,-4.9745,-4.8927,-4.9225,-4.9529,-4.9803,-5.0075,-5.0317,-5.0585,-5.0663,-5.0663,-5.0604,-5.0673,-5.0596,-5.0366,-4.949,0.0,0.0,-4.6971,-4.622,-4.5594,-4.5594,-4.5594,-4.5498,-4.4624,-4.4182,-4.3835,-4.2316,-4.1681,-4.1412,-4.0727,-4.0496,-4.0519,-4.0641,-4.0675,-4.0703,-4.0676,-3.9575,-3.8391,-3.8348,-3.7165,-3.5992,-3.5992,-3.5992,-3.5992,-3.5992,-3.5998,-3.6004,-3.6009,-3.5992,-3.5995,-3.5996,-3.5996,-3.5762,-3.5078,-3.4082,-3.3164,-3.2539,-3.1543,-3.0856,-3.0742,-3.0675,-3.0626,-3.0597,-3.0595,-3.0601,-3.0598,-3.0598,-3.0598,-3.0598,-3.1217,-3.1618,-3.1792,-3.1622,-3.1709,-3.2071,-3.1347,-3.0967,-3.0975,-3.1838,-3.2154,-5.4303,-5.5172,-5.5458,-5.3657,-5.2596,-5.0885,-4.6576,-4.3739,-4.1258,-3.8565,-3.6738,-3.5808,-3.6462,-3.6846,-3.8096,-4.1269,-4.2703,-4.4757,-4.8651,-5.116,-5.3062,-5.4334,-5.5164,-5.5489,-5.504,-5.4351,-5.3887,-5.3813,-5.2457,-5.1584,-5.1509,-5.0618,-4.9745,-4.8927,-4.9225,-4.9529,-4.9803,-5.0075,-5.0218,-5.026,-5.0554,-5.0544,-5.026,-5.0554,-5.0269,-4.9471,-4.8606,0.0,0.0,-4.6086,-4.5671,-4.5594,-4.5594,-4.5594,-4.5498,-4.4624,-4.3835,-4.3085,-4.2143,-4.1277,-4.0612,-4.0535,-4.0496,-4.0496,-4.0512,-4.0595,-4.055,-3.9835,-3.9046,-3.8255,-3.7585,-3.6716,-3.5992,-3.5992,-3.5992,-3.5992,-3.5992,-3.5992,-3.5996,-3.6003,-3.6009,-3.5992,-3.5995,-3.5996,-3.5976,-3.5898,-3.4473,-3.3379,-3.3301,-3.1894,-3.0898,-3.0878,-3.0828,-3.0728,-3.0607,-3.0609,-3.0591,-3.0602,-3.0598,-3.0598,-3.0598,-3.0675,-3.1043,-3.1792,-3.1076,-3.1453,-3.2979,-3.2891,-3.2819,-3.2792,-3.3595,-3.3955,-5.2588,-5.359,-5.3986,-5.2742,-5.1798,-5.0067,-4.5778,-4.3258,-4.0923,-3.7853,-3.6288,-3.5596,-3.5923,-3.6365,-3.7488,-3.9892,-4.0585,-4.212,-4.5909,-4.7276,-4.8856,-5.1456,-5.2525,-5.3385,-5.4203,-5.3998,-5.3608,-5.3107,-5.1546,-5.0618,-5.0618,-4.9837,-4.9243,-4.8909,-4.9027,-4.9255,-4.9558,-4.967,-4.9803,-4.9955,-5.0249,-5.0336,-5.0187,-5.0006,-4.9721,-4.9317,-4.7971,0.0,0.0,-4.5951,-4.5594,-4.5594,-4.5594,-4.5594,-4.5441,-4.4085,-4.3374,-4.2893,-4.1489,-4.0785,-4.0496,-4.0496,-4.0496,-4.0496,-4.0496,-4.0542,-4.0538,-4.0334,-3.9686,-3.8905,-3.8243,-3.7048,-3.5992,-3.5992,-3.5992,-3.5992,-3.5992,-3.5992,-3.5995,-3.6003,-3.6008,-3.5992,-3.5994,-3.5996,-3.5996,-3.5996,-3.4961,-3.418,-3.418,-3.3144,-3.2402,-3.2402,-3.1438,-3.0765,-3.0664,-3.1103,-3.1371,-3.1318,-3.1811,-3.1869,-3.1347,-3.1831,-3.2256,-3.2585,-3.2275,-3.2681,-3.3875,-3.3351,-3.3073,-3.3008,-3.3839,-3.4199,-5.1164,-5.2387,-5.3032,-5.2135,-5.1106,-4.9269,-4.522,-4.2797,-4.0527,-3.7346,-3.6058,-3.55,-3.55,-3.5962,-3.6808,0.0,0.0,-4.0468,-4.3833,-4.4742,-4.6207,-4.9262,-5.0444,-5.1454,-5.2605,-5.294,-5.2754,-5.1918,-5.0766,-5.0005,-4.9763,-4.9206,-4.8909,-4.8909,-4.8874,-4.9044,-4.9399,-4.9365,-4.9469,-4.9698,-5.0019,-5.0159,-5.0061,-4.9611,-4.926,-4.8933,-4.7528,0.0,0.0,-4.5845,-4.5594,-4.5594,-4.5594,-4.5441,-4.5037,-4.3624,-4.2931,-4.2508,-4.1016,-4.0496,-4.0496,-4.0496,-4.0496,-4.0496,-4.0496,-4.0496,-4.053,-4.0726,-4.0009,-3.9031,-3.8379,-3.7106,-3.5992,-3.5992,-3.5992,-3.5992,-3.5992,-3.5992,-3.5994,-3.6,-3.6006,-3.5991,-3.5992,-3.5995,-3.5996,-3.5996,-3.5254,-3.4707,-3.4707,-3.3945,-3.3398,-3.3398,-3.2301,-3.1544,-3.1494,-3.2005,-3.2283,-3.2216,-3.2779,-3.2817,-3.2217,-3.2778,-3.3107,-3.3107,-3.3107,-3.3532,-3.4394,-3.3773,-3.3578,-3.3776,-3.4351,-3.461,-5.0519,-5.2036,-5.3155,-5.2156,-5.0644,-4.8509,-4.5086,-4.2343,-3.9785,-3.7238,-3.6058,-3.55,-3.55,-3.5519,-3.5788,-3.6596,-3.8161,0.0,-4.275,-4.478,-4.6625,-4.8304,-4.9458,-5.0135,-5.0153,-5.0915,-5.1063,-5.019,-5.0116,0.0,-4.8946,-4.8909,-4.8909,-4.8909,-4.884,-4.8995,-4.9399,-4.9265,-4.9265,-4.9396,-4.9949,-5.0056,-4.9792,-4.9518,-4.8933,0.0,0.0,0.0,0.0,-4.5594,-4.5594,-4.5594,-4.5594,-4.5075,-4.4201,-4.3393,-4.2547,-4.17,-4.0804,-4.0496,-4.0496,-4.0496,-4.0496,-4.0496,-4.0496,-4.0496,-4.0527,-4.0662,-3.9592,-3.8233,-3.7507,-3.6657,-3.5992,-3.5992,-3.5992,-3.5992,-3.5992,-3.5992,-3.5992,-3.5992,-3.6,-3.6004,-3.6004,-3.5992,-3.5995,-3.5995,-3.5254,-3.4707,-3.4707,-3.3945,-3.3398,-3.3398,-3.3379,-3.3377,-3.3362,-3.3327,-3.3256,-3.3188,-3.3131,-3.3107,-3.3088,-3.3107,-3.3107,-3.3107,-3.3107,-3.3532,-3.4394,-3.4394,-3.4803,-3.5562,-3.5581,-3.5552,-4.6112,-4.7178,-4.7713,-4.6257,-4.549,-4.4355,-4.1527,-4.0265,-3.895,-3.6404,-3.5673,-3.55,-3.55,-3.55,-3.6327,-3.8873,-3.9765,-4.0957,-4.3388,-4.5229,-4.6663,-4.758,-4.9967,-5.1544,-5.1544,0.0,-5.0738,-5.0457,-4.9716,-4.9169,-4.8909,-4.8856,-4.884,-4.884,-4.8875,-4.8909,-4.8995,-4.8974,-4.9027,-4.9061,-4.9032,-4.8978,-4.8875,-4.802,-4.7473,0.0,0.0,0.0,0.0,-4.5522,-4.5559,-4.5594,-4.5594,-4.5075,-4.4201,-4.3393,-4.2547,-4.1681,-4.0804,-4.0496,-4.0496,-4.0496,-4.0496,-4.0496,-4.0496,-4.0496,-4.053,-4.0726,-3.9621,-3.8372,-3.823,-3.7106,-3.5992,-3.5992,-3.5992,-3.5992,-3.5992,-3.5992,-3.5992,-3.5992,-3.5999,-3.6004,-3.6004,-3.6009,-3.5993,-3.5995,-3.5761,-3.5586,-3.5586,-3.5351,-3.5176,-3.5176,-3.5176,-3.4686,-3.35,-3.3832,-3.4107,-3.4097,-3.4584,-3.4601,-3.4002,-3.3982,-3.3982,-3.3982,-3.3982,-3.4427,-3.5284,-3.5284,-3.5403,-3.5601,-3.554,-3.5528,-4.2829,-4.3953,-4.4376,-4.3319,-4.281,-4.1984,-3.9762,-3.9012,-3.8146,-3.5942,-3.55,-3.55,-3.55,-3.55,-3.6173,-3.8277,-3.9142,-4.0284,-4.2381,-4.4326,-4.6069,-4.7606,-4.9614,-5.0964,0.0,-5.0549,-5.01,-5.015,-4.934,0.0,-4.8856,-4.8822,-4.8769,-4.8679,-4.8733,-4.8732,-4.8715,-4.8732,-4.8638,-4.8411,-4.8318,-4.8173,-4.7983,-4.7037,-4.6614,0.0,0.0,0.0,0.0,-4.5438,-4.5522,-4.5568,-4.5586,-4.4883,-4.3778,-4.3261,-4.231,-4.1226,-4.066,-4.0476,-4.0511,-4.0511,-4.05,-4.0496,-4.0496,-4.0496,-4.053,-4.0715,-3.9591,-3.839,-3.8497,-3.7271,-3.5992,-3.5992,-3.5992,-3.5992,-3.5992,-3.5992,-3.5992,-3.5992,-3.5996,-3.6,-3.6,-3.6005,-3.6009,-3.5992,-3.5994,-3.5995,-3.5996,-3.5996,-3.5996,-3.5996,-3.5996,-3.5566,-3.4467,-3.4771,-3.5017,-3.4996,-3.5435,-3.5461,-3.4916,-3.4897,-3.4897,-3.4897,-3.4897,-3.5168,-3.5704,-3.5704,-3.5679,-3.5637,-3.5571,-3.5547,0.0,-4.1788,-4.2527,-4.2469,-4.1884,-4.0905,-3.93,-3.8293,0.0,-3.5724,-3.5404,-3.5442,-3.5558,-3.5538,-3.5615,-3.5981,-3.7296,-3.8873,-4.0612,-4.2794,-4.5328,-4.8403,-4.8758,-4.9029,-4.9768,-4.9472,-4.9277,-4.938,0.0,0.0,-4.8787,-4.8787,-4.8679,-4.8513,-4.8494,-4.8513,-4.8587,-4.855,-4.82,-4.7583,-4.7739,-4.7549,-4.7057,-4.646,-4.6176,0.0,0.0,0.0,0.0,-4.5332,-4.5476,-4.5504,-4.5568,-4.4558,-4.3069,-4.3015,-4.1923,-4.0474,-4.0424,-4.0441,-4.0502,-4.0502,-4.0495,-4.0496,-4.0496,-4.0496,-4.0527,-4.0585,-3.9486,-3.8281,-3.8296,-3.7169,-3.5989,-3.5992,-3.5992,-3.5992,-3.5992,-3.5992,-3.5992,-3.5992,-3.5992,-3.5992,-3.5992,-3.5999,-3.6004,-3.6004,-3.5991,-3.5995,-3.5995,-3.5996,-3.5996,-3.5996,-3.5996,-3.5996,-3.5996,-3.5948,-3.5862,-3.5799,-3.5748,-3.5697,-3.5701,-3.569,-3.5704,-3.5704,-3.5704,-3.5704,-3.5704,-3.5704,-3.5704,-3.5704,-3.5637,-3.5606,-3.4668,0.0,-3.7936,-3.7287,-3.7459,-3.7517,0.0,-3.6105,-3.5698,-3.4632,-3.4428,-3.4838,-3.6173,-3.5904,-3.6769,-4.0681,-4.1085,-4.1739,-4.4075,-4.5973,-4.7885,-4.9956,-5.0214,-5.0178,-5.0116,-4.9838,-4.9546,-4.928,0.0,-4.8769,-4.866,-4.8606,-4.855,-4.8513,-4.8401,-4.8401,-4.8532,-4.8569,-4.8199,-4.744,-4.7076,-4.6535,-4.5798,-4.5211,-4.4921,0.0,0.0,0.0,-4.4938,-4.5007,-4.5191,-4.5429,-4.5438,-4.4421,-4.2944,-4.2935,-4.1852,-4.0424,-4.0407,-4.0415,-4.0432,-4.0474,-4.0495,-4.0496,-4.0496,-4.0496,-4.0392,-3.987,-3.8946,-3.8038,-3.753,-3.6676,-3.5936,-3.5986,-3.5992,-3.5992,-3.5992,-3.5992,-3.5992,-3.5992,-3.5992,-3.5992,-3.5992,-3.5994,-3.5998,-3.6003,-3.6006,-3.5991,-3.5994,-3.5995,-3.5996,-3.5996,-3.5996,-3.5996,-3.5996,-3.5948,-3.5892,-3.5884,-3.5775,-3.5709,-3.5706,-3.5693,-3.5704,-3.5704,-3.5704,-3.5704,-3.5704,-3.5704,-3.5704,-3.5704,-3.5637,-3.5606,-3.2151,-3.4044,-3.5887,-3.5419,-3.5937,-3.6423,-3.5956,-3.5274,-3.4625,-3.4196,-3.4094,-3.4408,-3.5365,-3.6161,-3.7546,-4.0315,-4.1354,-4.2827,-4.5751,-4.7615,-4.9173,-5.05,-5.0673,-5.0624,0.0,-4.9968,-4.958,0.0,0.0,-4.8624,-4.8569,-4.8513,-4.8457,-4.8401,-4.7976,-4.7793,-4.7868,-4.7887,-4.7353,-4.619,-4.5884,-4.5398,-4.48,-4.4423,-4.4279,0.0,0.0,0.0,-4.4511,-4.4788,-4.5007,-4.5152,-4.493,-4.4039,-4.2859,-4.2449,-4.1482,-4.0353,-4.0354,-4.0354,-4.037,-4.0458,-4.0499,-4.0503,-4.0508,-4.0246,-3.9877,-3.9462,-3.8743,-3.792,-3.7199,-3.6417,-3.5814,-3.5847,-3.5912,-3.5949,-3.5949,-3.5981,-3.5992,-3.5992,-3.5992,-3.5992,-3.5992,-3.5992,-3.5994,-3.5999,-3.6002,-3.6007,-3.5993,-3.5994,-3.5995,-3.5996,-3.5996,-3.5996,-3.5996,-3.5974,-3.5927,-3.5895,-3.5834,-3.5752,-3.5702,-3.5708,-3.5698,-3.5709,-3.5704,-3.5704,-3.5704,-3.5704,-3.5704,-3.5704,-3.5648,-3.5643,-3.1687,-3.3609,-3.5411,-3.517,-3.582,-3.6471,-3.6337,-3.5112,-3.4025,-3.4086,-3.4215,-3.4402,-3.4718,-3.6642,-3.8373,-3.8873,-4.1008,-4.3656,-4.6743,-4.8462,-4.9702,-5.0488,-5.0653,0.0,-5.0614,-4.9949,0.0,0.0,0.0,-4.8494,-4.8457,-4.8457,-4.8364,-4.8122,-4.7461,-4.6984,-4.6746,-4.6856,-4.6195,-4.4777,-4.4744,-4.4458,-4.4017,-4.3939,-4.3926,-4.3942,0.0,0.0,-4.4033,-4.4585,-4.4849,-4.4851,-4.4353,-4.3637,-4.2774,-4.1914,-4.1044,-4.0308,-4.0301,-4.03,-4.0325,-4.0441,-4.0474,-4.0471,-4.033,-3.9827,-3.9238,-3.8981,-3.8413,-3.7693,-3.6911,-3.6198,-3.5681,-3.5693,-3.5801,-3.5908,-3.5908,-3.5947,-3.5992,-3.5992,-3.5992,-3.5992,-3.5992,-3.5992,-3.5992,-3.5992,-3.5999,-3.6004,-3.6009,-3.5992,-3.5995,-3.5996,-3.5996,-3.5996,-3.5996,-3.5996,-3.5975,-3.5922,-3.5917,-3.5841,-3.5706,-3.5698,-3.5693,-3.5709,-3.5704,-3.5704,-3.5704,-3.5704,-3.5704,-3.5704,-3.5704,-3.5704,-3.3012,-3.4923,-3.5982,-3.4549,-3.5351,-3.6307,-3.5562,-3.4663,-3.4026,-3.4088,-3.4685,-3.5648,-3.7135,-3.8334,-4.0027,-4.2874,-4.4893,-4.677,-4.8644,-4.9202,-4.9702,-5.0488,0.0,-5.0565,-5.0237,0.0,0.0,0.0,0.0,-4.8457,-4.8343,-4.8325,-4.7994,-4.7314,-4.7168,-4.6452,-4.5076,-4.5736,-4.5626,-4.4726,-4.4709,-4.4303,-4.3599,-4.3582,-4.3565,-4.3582,0.0,-4.3779,-4.4017,-4.4346,-4.4612,-4.4761,-4.4249,-4.3521,-4.2699,-4.1839,-4.0988,-4.0291,-4.031,-4.03,-4.0307,-4.0325,-4.0405,-4.034,-3.9567,-3.9276,-3.8923,-3.7502,-3.7012,-3.6735,-3.5985,-3.5715,-3.5635,-3.57,-3.5801,-3.5908,-3.5908,-3.5947,-3.5992,-3.5992,-3.5992,-3.5992,-3.5992,-3.5992,-3.5992,-3.5992,-3.5994,-3.5998,-3.6004,-3.6006,-3.6009,-3.5995,-3.5995,-3.5995,-3.5996,-3.5996,-3.5996,-3.5995,-3.5926,-3.5841,-3.5706,-3.5698,-3.5693,-3.5709,-3.5704,-3.5704,-3.5704,-3.5704,-3.5704,-3.5704,-3.5704,-3.5704,-3.1625,-3.3509,-3.4961,-3.4186,-3.6623,-3.8973,-3.8143,-3.7337,-3.6651,-3.6239,-3.647,-3.7006,-3.7846,-3.945,-4.1758,-4.5143,-4.7144,-4.8481,-4.9142,-4.972,-5.0181,0.0,0.0,-5.0573,-5.0377,0.0,0.0,0.0,0.0,0.0,-4.7682,-4.7645,-4.7278,-4.6489,-4.603,-4.5443,-4.4727,-4.4635,-4.4415,-4.4048,-4.4048,-4.3864,-4.3515,-4.3515,-4.3515,-4.3515,0.0,-4.3582,-4.3747,-4.4217,-4.4202,-4.3857,-4.3488,-4.2851,-4.1991,-4.117,-4.0616,-4.0301,-4.0301,-4.0301,-4.0309,-4.0298,-4.0334,-4.0234,-3.9361,-3.8821,-3.825,-3.7037,-3.6695,-3.6512,-3.5753,-3.554,-3.5559,-3.5574,-3.5674,-3.5745,-3.5787,-3.5867,-3.597,-3.5989,-3.5992,-3.5992,-3.5992,-3.5992,-3.5992,-3.5992,-3.5992,-3.5995,-3.6003,-3.6004,-3.6008,-3.5994,-3.5995,-3.5995,-3.5996,-3.5996,-3.5996,-3.5996,-3.5948,-3.5861,-3.5816,-3.5765,-3.5749,-3.5694,-3.5694,-3.5703,-3.5704,-3.5704,-3.5704,-3.5704,-3.5704,-3.5704,-3.0937,-3.2504,-3.409,-3.4483,-3.7483,-4.0329,-4.0301,-3.9687,-3.9089,-3.9065,-3.9076,-3.9115,-3.9173,-4.1277,-4.3923,-4.6703,-4.8577,-4.9624,-4.9493,-5.0099,-5.0542,-5.0489,-5.0562,-5.0593,0.0,0.0,0.0,0.0,0.0,0.0,-4.6874,-4.6819,-4.6434,-4.5645,-4.5021,-4.4617,-4.4415,-4.3809,-4.3515,-4.3515,-4.3515,-4.3515,-4.3515,-4.3515,-4.3515,-4.3515,-4.3515,-4.3404,-4.3255,-4.3804,-4.3526,-4.2795,-4.2514,-4.1914,-4.1132,-4.054,-4.0301,-4.0301,-4.0301,-4.0301,-4.0291,-4.029,-4.0164,-3.9895,-3.9261,-3.8512,-3.7753,-3.7122,-3.6803,-3.6473,-3.5698,-3.55,-3.55,-3.55,-3.5553,-3.5609,-3.5669,-3.579,-3.5921,-3.5976,-3.5988,-3.5992,-3.5992,-3.5992,-3.5992,-3.5992,-3.5992,-3.5995,-3.6001,-3.6002,-3.6005,-3.5993,-3.5993,-3.5994,-3.5996,-3.5996,-3.5996,-3.5996,-3.5951,-3.5921,-3.5895,-3.5849,-3.5774,-3.5698,-3.5698,-3.5693,-3.5704,-3.5704,-3.5704,-3.5704,-3.5704,-3.5704,-3.3077,-3.3861,-3.4369,-3.5927,-3.6596,-3.7455,-3.9766,-3.9668,-3.9749,-4.2064,-4.2588,-4.2659,-4.2712,-4.4816,-4.6838,-4.7769,-4.9382,-5.0466,-5.0328,0.0,-5.0489,-5.0424,-5.0511,0.0,0.0,0.0,0.0,0.0,0.0,0.0,-4.603,-4.5993,-4.5626,-4.4801,-4.4728,-4.4342,-4.3589,-4.3533,-4.3515,-4.3515,-4.3515,-4.3515,-4.3515,-4.3515,-4.3515,-4.3515,-4.3515,-4.3075,-4.2411,-4.2706,-4.2496,-4.1931,-4.1415,-4.0886,-4.0377,-4.032,-4.0301,-4.0301,-4.0301,-4.0301,-4.0301,-4.031,-3.9793,-3.9159,-3.9038,-3.8454,-3.78,-3.7751,-3.7138,-3.6366,-3.5684,-3.55,-3.55,-3.55,-3.5553,-3.5588,-3.5618,-3.5753,-3.5892,-3.5914,-3.5951,-3.5992,-3.5992,-3.5992,-3.5992,-3.5992,-3.5992,-3.5992,-3.5994,-3.5994,-3.5996,-3.6004,-3.6005,-3.6009,-3.5995,-3.5996,-3.5996,-3.5996,-3.5996,-3.5954,-3.5896,-3.5892,-3.5834,-3.5702,-3.5698,-3.5693,-3.5704,-3.5704,-3.5704,-3.5704,-3.5704,-3.5704,-3.056,-3.2382,-3.4147,-3.4789,-3.6929,-3.9384,-4.1399,-4.2489,-4.3493,-4.4959,-4.5323,-4.5187,-4.4622,-4.5755,-4.7031,-4.7864,-4.8968,-4.9897,-5.0336,-5.0424,-5.0224,-4.9666,0.0,0.0,0.0,0.0,0.0,0.0,0.0,0.0,-4.5204,-4.5149,-4.48,-4.3975,-4.3956,-4.3809,-4.3515,-4.3515,-4.3515,-4.3515,-4.3515,-4.3515,-4.3515,-4.3515,-4.3515,-4.3478,-4.2965,-4.258,-4.2283,-4.2045,-4.1547,-4.0853,-4.0303,-4.0179,-4.0291,-4.0108,-4.0157,-4.0301,-4.0301,-4.0301,-4.0301,-4.0301,-4.009,-3.965,-3.8523,-3.7978,-3.7536,-3.6528,-3.602,-3.5833,-3.6154,-3.583,-3.5453,-3.5493,-3.5521,-3.5547,-3.559,-3.5655,-3.5741,-3.5875,-3.5926,-3.5947,-3.5989,-3.5992,-3.5992,-3.5992,-3.5992,-3.5992,-3.5992,-3.5992,-3.5996,-3.6003,-3.6007,-3.5991,-3.5995,-3.5995,-3.5996,-3.5996,-3.5996,-3.5996,-3.5954,-3.5953,-3.5922,-3.5829,-3.5774,-3.5737,-3.5703,-3.5702,-3.5704,-3.5704,-3.5704,-3.5704,-2.9395,-3.1408,-3.3719,-3.4254,-3.7158,-4.054,-4.3023,-4.4556,-4.5841,-4.7172,-4.7309,-4.6887,-4.5956,-4.6301,-4.7001,0.0,-4.8417,-4.9058,-4.9873,-4.9747,-4.9365,0.0,0.0,0.0,0.0,0.0,0.0,0.0,0.0,0.0,0.0,-4.4323,-4.4066,-4.3533,-4.3515,-4.3515,-4.3515,-4.3515,-4.3515,-4.3515,-4.3515,-4.3515,-4.3515,-4.3515,-4.3368,-4.3075,-4.2543,-4.2011,-4.1513,-4.116,-4.057,-3.9905,-3.9696,-3.9848,-4.0157,-3.9975,-4.0077,-4.0301,-4.0301,-4.0301,-4.0244,-3.9976,-3.9881,-3.9623,-3.8151,-3.7693,-3.7472,-3.637,-3.5862,-3.582,-3.6474,-3.6024,-3.5412,-3.5474,-3.55,-3.5508,-3.5565,-3.5599,-3.5635,-3.5784,-3.5862,-3.5902,-3.5953,-3.5986,-3.5992,-3.5992,-3.5992,-3.5992,-3.5992,-3.5992,-3.5995,-3.6,-3.6006,-3.5991,-3.5992,-3.5993,-3.5995,-3.5996,-3.5996,-3.5996,-3.5996,-3.5996,-3.5974,-3.5895,-3.5851,-3.58,-3.5698,-3.5694,-3.5702,-3.5704,-3.5704,-3.5704,-3.0433,-3.1446,-3.3119,-3.48,-3.7158,-4.0157,-4.4341,-4.5367,-4.6116,-4.8594,-4.8525,-4.7712,-4.6777,-4.6704,-4.7011,-4.7687,-4.7854,-4.8162,-4.8957,-4.8334,-4.7788,0.0,0.0,0.0,0.0,0.0,0.0,0.0,0.0,0.0,0.0,-4.3515,-4.3515,-4.3515,-4.3496,-4.3496,-4.3496,-4.3478,-4.3478,-4.3478,-4.3478,-4.3496,-4.3515,-4.3496,-4.3039,-4.2304,-4.2286,-4.1368,-3.99,-3.9882,-3.9586,-3.9137,-3.9682,-3.9892,-3.9903,-3.9903,-4.0077,-4.0301,-4.0301,-4.0301,-4.0148,-3.9298,-3.9011,-3.8839,-3.796,-3.7693,-3.7693,-3.7693,-3.712,-3.6489,-3.6509,-3.5948,-3.5412,-3.5474,-3.55,-3.55,-3.55,-3.5553,-3.5607,-3.5607,-3.5753,-3.5908,-3.5908,-3.5968,-3.5992,-3.5992,-3.5992,-3.5992,-3.5992,-3.5992,-3.5992,-3.5992,-3.6,-3.6004,-3.6004,-3.6009,-3.5992,-3.5995,-3.5995,-3.5995,-3.5996,-3.5996,-3.5974,-3.5896,-3.5895,-3.5836,-3.5698,-3.5698,-3.5708,-3.5709,-3.5709,-3.5704,-3.0268,-3.2286,-3.4724,-3.5832,-3.9346,-4.3023,-4.4857,-4.5778,-4.6967,-4.9483,-4.8903,-4.7822,-4.7507,-4.6515,0.0,-4.6748,-4.6893,-4.721,-4.8067,-4.796,0.0,0.0,0.0,0.0,0.0,0.0,0.0,0.0,0.0,0.0,0.0,-4.3515,-4.3515,-4.3515,-4.2947,-4.2653,-4.2653,-4.2084,-4.1809,-4.1809,-4.1809,-4.2396,-4.3478,-4.291,-4.2525,-4.2249,-4.1093,-4.0341,-3.9845,-3.9294,-3.9054,-3.9101,-3.9073,-3.9395,-3.9881,-3.9693,-3.9922,-4.0301,-4.0301,-4.0301,-4.0263,-3.9995,-3.9508,-3.8839,-3.796,-3.7292,-3.6863,-3.6863,-3.6233,-3.5733,-3.6337,-3.5921,-3.5339,-3.5405,-3.546,-3.55,-3.55,-3.5515,-3.5534,-3.559,-3.564,-3.5728,-3.5875,-3.5921,-3.5942,-3.5989,-3.5992,-3.5992,-3.5992,-3.5992,-3.5992,-3.5992,-3.5995,-3.5999,-3.6004,-3.6005,-3.6009,-3.5992,-3.5994,-3.5995,-3.5996,-3.5996,-3.5996,-3.5974,-3.5924,-3.5885,-3.5841,-3.5755,-3.5704,-3.5693,-3.5702,-3.5704,-3.1625,-3.3891,-3.6566,-3.8094,-4.1036,-4.3921,-4.543,-4.6445,-4.7614,-4.9499,-4.8545,-4.7359,-4.7313,-4.6216,0.0,-4.6366,-4.6233,-4.6328,-4.7169,-4.7016,0.0,0.0,0.0,0.0,0.0,0.0,0.0,0.0,0.0,0.0,0.0,-4.3185,-4.302,-4.302,-4.2249,-4.1827,-4.1827,-4.1334,-4.1095,-4.1095,-4.1095,-4.1625,-4.2525,-4.2047,-4.1662,-4.1277,-3.9974,-3.9423,-3.9402,-3.9009,-3.8896,-3.8935,-3.8881,-3.917,-3.9587,-3.9526,-3.9762,-4.0157,-4.0253,-4.0301,-4.0186,-3.9489,-3.9145,-3.8706,-3.7177,-3.6623,-3.6424,-3.608,-3.5602,-3.5324,-3.5854,-3.564,-3.5327,-3.5391,-3.542,-3.546,-3.55,-3.55,-3.5508,-3.5553,-3.5574,-3.563,-3.5768,-3.5856,-3.5899,-3.5949,-3.5985,-3.6129,-3.6461,-3.6207,-3.6129,-3.648,-3.6207,-3.6288,-3.6976,-3.6723,-3.6667,-3.7004,-3.6713,-3.652,-3.6522,-3.6172,-3.5996,-3.5996,-3.5953,-3.5925,-3.5895,-3.5824,-3.5775,-3.5744,-3.5717,-3.5689,-3.3757,-3.5802,-3.8304,-4.0864,-4.2335,-4.373,-4.5984,-4.7111,-4.7933,-4.8793,-4.7709,-4.6572,-4.6511,-4.5893,-4.5607,-4.6282,-4.5774,-4.5564,-4.629,-4.5755,0.0,0.0,0.0,0.0,0.0,0.0,0.0,0.0,0.0,0.0,0.0,-4.2598,-4.2194,-4.2194,-4.1407,-4.0985,-4.0985,-4.0912,-4.0875,0.0,-4.0875,-4.0875,-4.0875,-4.0948,-4.0561,-3.9753,-3.9019,-3.8707,-3.8723,-3.8964,-3.8921,-3.8719,-3.8964,-3.9101,-3.917,-3.9414,-3.9682,-3.9956,-4.0225,-4.0301,-4.0034,-3.8457,-3.8362,-3.8457,-3.6126,-3.587,-3.6233,-3.5526,-3.5267,-3.5229,-3.5305,-3.5291,-3.53,-3.5376,-3.5398,-3.5412,-3.5493,-3.55,-3.55,-3.55,-3.5547,-3.5596,-3.5607,-3.5818,-3.6014,-3.61,-3.6126,-3.6422,-3.7301,-3.6735,-3.6539,-3.7321,-3.6716,-3.6872,-3.8474,-3.7869,-3.7753,-3.854,-3.7858,-3.7411,-3.7415,-3.6503,-3.5996,-3.5996,-3.5996,-3.5974,-3.5918,-3.5896,-3.5878,-3.5816,-3.5748,-3.571,-3.3757,-3.5802,-3.8304,-4.0864,-4.3615,-4.5851,-4.6385,-4.6653,-4.7035,-4.7895,-4.7256,-4.6511,-4.65,-4.5842,-4.5375,-4.5536,-4.5411,-4.5364,-4.5526,0.0,0.0,0.0,0.0,0.0,0.0,0.0,0.0,0.0,0.0,0.0,-4.166,-4.1444,-4.1352,-4.1352,-4.0579,-4.0157,-4.0157,-3.9533,-3.9221,0.0,-3.9221,-3.9221,-3.9239,-3.9863,-3.9717,-3.8946,-3.8781,-3.8707,-3.8707,-3.8765,-3.875,-3.8707,-3.8765,-3.9031,-3.9427,-3.9489,-3.9804,-4.0225,-4.0291,-4.0301,-4.0244,-3.9862,-3.8935,-3.7884,-3.733,-3.6375,-3.5583,-3.608,-3.5736,-3.5362,-3.6042,-3.5725,-3.5234,-3.53,-3.5361,-3.5412,-3.5493,-3.55,-3.55,-3.55,-3.5508,-3.5547,-3.559,-3.6206,-3.6948,-3.7738,-3.7373,-3.734,-3.8201,-3.8162,-3.8103,-3.8298,-3.8142,-3.8181,-3.8572,-3.8435,-3.8396,-3.8594,-3.8422,-3.8328,-3.8329,-3.6833,-3.5995,-3.5995,-3.5996,-3.5996,-3.5975,-3.5924,-3.5892,-3.5884,-3.5819,-3.5771,-3.4025,-3.6107,-3.8495,-4.1858,-4.4322,-4.5927,-4.5927,-4.5602,-4.542,-4.5878,-4.5946,-4.5793,-4.5382,-4.4972,-4.4551,-4.4169,-4.4093,-4.4093,-4.4093,0.0,0.0,0.0,0.0,0.0,0.0,0.0,0.0,0.0,0.0,-4.1841,-4.113,-4.0728,-4.0524,-4.0524,-3.9753,-3.9331,-3.9331,-3.8909,-3.8707,-3.8707,-3.8707,-3.8707,-3.8707,-3.9129,-3.9093,-3.8707,-3.8707,-3.8707,-3.8707,-3.8707,-3.8707,-3.8707,-3.8707,-3.895,-3.9324,-3.9446,-3.9751,-4.0137,-4.0253,-4.0301,-4.0225,-3.9804,-3.8782,-3.7636,-3.7234,-3.6222,-3.5278,-3.5755,-3.5545,-3.5297,-3.5755,-3.5545,-3.5218,-3.5277,-3.5339,-3.5372,-3.5446,-3.5486,-3.55,-3.55,-3.55,-3.5508,-3.554,-3.6334,-3.7428,-3.8812,-3.8389,-3.824,-3.9078,-3.8845,-3.8747,-3.9138,-3.8825,-3.8923,-3.9723,-3.9411,-3.9352,-3.9762,-3.9414,-3.9161,-3.9161,-3.7921,-3.7047,-3.6639,-3.621,-3.5996,-3.5996,-3.5954,-3.5951,-3.595,-3.5885,-3.5847,-3.3586,-3.5974,-3.8648,-4.2593,-4.4227,-4.4857,-4.4857,-4.4303,-4.3796,-4.3796,-4.438,-4.4647,-4.393,-4.3796,-4.3567,-4.2908,-4.2794,-4.2794,-4.2794,0.0,0.0,0.0,0.0,0.0,0.0,0.0,0.0,0.0,0.0,-4.1119,-4.0724,-4.0047,-3.968,-3.968,-3.9056,-3.8707,-3.8707,-3.8707,-3.8707,-3.8707,-3.8707,-3.8634,-3.8487,-3.8487,-3.8579,-3.8689,-3.856,-3.8487,-3.8487,-3.834,-3.8377,-3.8487,-3.8487,-3.8766,-3.9192,-3.9427,-3.967,-3.9935,-4.0215,-4.0263,-4.0091,-3.927,-3.8419,-3.754,-3.6729,-3.5889,-3.5209,-3.5209,-3.5209,-3.5209,-3.5209,-3.5209,-3.5218,-3.5269,-3.5289,-3.5327,-3.5372,-3.5446,-3.5474,-3.5474,-3.5493,-3.5538,-3.5673,-3.6425,-3.7599,-3.9406,-3.9177,-3.9091,-3.9917,-3.945,-3.9294,-3.9956,-3.943,-3.9587,-4.0973,-4.0444,-4.0327,-4.1051,-4.0424,-4.0015,-4.0015,-3.9239,-3.8408,-3.7536,-3.6677,-3.623,-3.6211,-3.6074,-3.5996,-3.5996,-3.5949,-3.5922,-3.0739,-3.4216,-3.8362,-4.1132,-4.2488,-4.3138,-4.3138,-4.3042,-4.2966,-4.2966,-4.3042,-4.31,-4.2985,-4.2966,-4.2928,-4.2813,-4.2794,-4.2794,0.0,0.0,0.0,0.0,0.0,0.0,0.0,0.0,0.0,0.0,-4.0154,-4.0044,-3.9071,-3.8927,-3.8854,-3.8854,-3.8762,-3.8707,-3.8707,-3.8707,-3.8707,-3.8707,-3.8707,-3.8322,-3.7658,-3.7658,-3.8028,-3.867,-3.797,-3.7658,-3.7621,-3.6909,-3.7019,-3.7658,-3.7658,-3.8387,-3.9446,-3.9489,-3.967,-3.9935,-4.0215,-4.0157,-3.9844,-3.9204,-3.8419,-3.754,-3.6729,-3.5889,-3.5209,-3.5209,-3.5209,-3.5209,-3.5209,-3.5209,-3.5209,-3.5209,-3.5269,-3.5308,-3.5308,-3.5364,-3.5412,-3.5412,-3.546,-3.5712,-3.6423,-3.6755,-3.7529,-3.9343,-3.9581,-3.9894,-4.0812,-4.0836,-4.0816,-4.0914,-4.0836,-4.0855,-4.109,-4.0992,-4.0973,-4.109,-4.0992,-4.0934,-4.0934,-4.0094,-3.9259,-3.8446,-3.7574,-3.7127,-3.7127,-3.6367,-3.5996,-3.5996,-3.5996,-3.5996,-3.028,-3.391,-3.7636,-4.0196,-4.1457,-4.2202,-4.2698,-4.2412,-4.2068,-4.2068,-4.1705,-4.1552,-4.1991,-4.2068,-4.1915,-4.1476,-4.1399,-4.1399,0.0,0.0,0.0,0.0,0.0,0.0,0.0,0.0,0.0,0.0,-3.9445,-3.9205,-3.8726,-3.8267,-3.8028,-3.8028,-3.7588,-3.7367,-3.7367,-3.779,-3.8248,-3.8689,-3.823,-3.7841,-3.7474,-3.7033,-3.7019,-3.7331,-3.6982,-3.6831,-3.6813,-3.645,-3.6505,-3.6868,-3.7327,-3.7951,-3.8669,-3.9104,-3.9551,-3.9914,-4.0027,-3.9774,-3.9356,-3.9098,-3.8113,-3.6967,-3.6615,-3.5889,-3.5209,-3.5209,-3.5209,-3.5209,-3.5209,-3.5209,-3.5209,-3.5209,-3.5218,-3.5242,-3.5239,-3.5327,-3.5412,-3.5453,-3.5832,-3.6442,-3.7276,-3.7919,-3.8744,-4.0015,-4.033,-4.0574,-4.0991,-4.1076,-4.1109,-4.1109,-4.1109,-4.1109,-4.1109,-4.1109,-4.1109,-4.1109,-4.1109,-4.1109,-4.1109,-4.0738,-4.0367,-4.0001,-3.8212,-3.7065,-3.6578,-3.6189,-3.5995,-3.5996,-3.5996,-3.5996,-3.0013,-3.2993,-3.5564,-3.8315,-3.9623,-4.0444,-4.1304,-4.0998,-4.052,0.0,-4.0062,-3.9814,-4.0425,-4.0903,-4.0998,-4.0396,-4.0301,-4.0301,0.0,0.0,0.0,0.0,0.0,0.0,0.0,0.0,0.0,0.0,-3.8888,-3.8486,-3.8395,-3.7639,-3.7199,-3.7199,-3.6611,-3.6303,-3.6303,-3.6905,-3.7511,-3.8083,-3.7477,-3.7088,-3.6835,-3.6248,-3.5862,-3.5679,-3.5881,-3.5973,-3.5954,-3.5752,-3.5789,-3.6028,-3.6633,-3.7165,-3.7684,-3.8488,-3.8952,-3.9202,-3.9483,-3.9124,-3.8556,-3.842,-3.7512,-3.6462,-3.6233,-3.5717,-3.5209,-3.5209,-3.5209,-3.5209,-3.5209,-3.5209,-3.5209,-3.5209,-3.5209,-3.5209,-3.5218,-3.5469,-3.564,-3.5484,-3.6286,-3.7139,-3.7589,-3.8619,-3.9593,-4.0268,-4.0689,-4.0949,-4.0987,-4.1033,-4.1078,-4.1108,-4.1109,-4.1109,-4.1109,-4.1109,-4.1109,-4.1109,-4.1109,-4.1109,-4.1109,-4.1109,-4.0992,-4.0777,-3.8693,-3.7312,-3.6653,-3.6225,-3.5992,-3.5994,-3.5994,-3.5994,-2.9108,-3.0395,-3.1312,-3.4636,-3.6118,-3.6958,-3.7789,-3.7922,-3.7903,-3.7903,-3.7865,-3.7846,-3.7884,-3.926,-4.0339,-4.0301,-4.0301,-4.0301,0.0,0.0,0.0,0.0,0.0,0.0,0.0,0.0,0.0,0.0,-3.8536,-3.7831,-3.7581,-3.6813,-3.6358,-3.6358,-3.6321,-3.6303,-3.6303,-3.634,-3.6376,-3.6413,-3.6376,-3.5936,-3.5133,-3.5096,-3.4656,-3.3972,-3.4729,-3.5078,-3.5023,-3.4247,-3.4394,-3.5078,-3.5114,-3.5799,-3.6861,-3.7665,-3.7611,-3.7307,-3.831,-3.8119,-3.7307,-3.6802,-3.6576,-3.6347,-3.5507,-3.5248,-3.5209,-3.5209,-3.5209,-3.5209,-3.5209,-3.5209,-3.5209,-3.5209,-3.5209,-3.5218,-3.5277,-3.5905,-3.6216,-3.5461,-3.6688,-3.7613,-3.6891,-3.8185,-3.9343,-3.9444,-4.019,-4.0779,-4.0974,-4.0994,-4.102,-4.1087,-4.1109,-4.1109,-4.1109,-4.1109,-4.1109,-4.1109,-4.1109,-4.1109,-4.1109,-4.1109,-4.0717,-3.9878,-3.8982,-3.8517,-3.8464,-3.6809,-3.5991,-3.5991,-3.5991,-3.5991,-2.7286,-2.8888,-3.0684,-3.302,-3.3829,-3.4418,-3.5783,-3.6528,-3.692,-3.692,-3.7349,-3.7693,-3.7693,-3.8209,-3.8629,-3.8629,-3.8629,-3.8629,0.0,0.0,0.0,0.0,0.0,0.0,0.0,0.0,0.0,0.0,0.0,-3.698,-3.6754,-3.5936,-3.5463,-3.5463,-3.4963,-3.4945,-3.5463,-3.5463,-3.5752,-3.6285,-3.572,-3.5298,-3.4986,-3.4472,-3.4082,-3.3825,-3.41,-3.4215,-3.4211,-3.3917,-3.3972,-3.427,-3.4802,-3.5239,-3.5717,-3.6565,-3.6848,-3.687,-3.7389,-3.7114,-3.6529,-3.6516,-3.6118,-3.5602,-3.5278,-3.5209,-3.5209,-3.5209,-3.5209,-3.5209,-3.5209,-3.5209,-3.5335,-3.5889,-3.6023,-3.6184,-3.6716,-3.6263,-3.597,-3.6814,-3.7471,-3.7985,-3.8266,-3.9288,-4.0077,-4.0102,-4.0449,-4.073,-4.0795,-4.0844,-4.091,-4.102,-4.1044,-4.1059,-4.1108,-4.1109,-4.1109,-4.1109,-4.1109,-4.1109,-4.1109,-4.1109,-4.0953,-4.0639,-3.9294,-3.8319,-3.7754,-3.6586,-3.6003,-3.6007,-3.6007,-3.6007,-2.6218,-2.7742,-2.9668,-3.139,-3.1821,-3.2264,-3.3944,-3.4792,-3.5316,-3.5602,-3.6088,-3.6528,-3.6814,-3.6852,-3.7043,-3.7617,-3.7693,-3.7693,0.0,0.0,0.0,0.0,0.0,0.0,0.0,0.0,0.0,0.0,0.0,0.0,-3.5877,-3.5059,-3.4601,-3.4601,-3.4082,-3.4064,-3.4582,-3.4601,-3.489,-3.544,-3.4857,-3.4601,-3.4582,-3.4045,-3.3807,-3.3807,-3.3807,-3.3807,-3.3807,-3.3807,-3.3807,-3.3844,-3.438,-3.4601,-3.4692,-3.555,-3.5908,-3.6024,-3.6421,-3.6224,-3.5826,-3.6008,-3.566,-3.5209,-3.5209,-3.5209,-3.5209,-3.5209,-3.5209,-3.5209,-3.5209,-3.5209,-3.5411,-3.629,-3.65,-3.671,-3.7521,-3.7088,-3.6807,-3.7663,-3.8312,-3.8807,-3.9109,-3.9909,-4.0491,-4.0503,-4.0579,-4.0642,-4.0694,-4.0765,-4.0846,-4.0984,-4.1011,-4.1059,-4.1108,-4.1109,-4.1109,-4.1109,-4.1109,-4.1109,-4.1109,-4.1109,-4.1109,-4.1109,-3.945,-3.8318,-3.7731,-3.6578,-3.5995,-3.6001,-3.6001,-3.6001,0.0,0.0,0.0,-2.9619,-3.0018,-3.0428,-3.2119,0.0,-3.2833,-3.3738,-3.3937,-3.4159,-3.498,-3.5133,-3.5668,-3.7292,-3.7578,-3.7636,0.0,0.0,0.0,0.0,0.0,0.0,0.0,0.0,0.0,0.0,-3.6209,-3.5539,-3.4995,-3.4215,-3.3807,-3.3807,-3.3807,-3.3807,-3.3807,-3.3807,-3.3807,-3.3807,-3.3807,-3.3807,-3.3807,-3.3807,-3.3807,-3.3807,-3.3807,-3.3807,-3.3807,-3.3807,-3.3807,-3.3807,-3.3807,-3.3807,-3.3899,-3.4674,-3.476,-3.461,-3.5398,-3.5456,-3.5201,-3.5201,-3.5209,-3.5209,-3.5209,-3.5209,-3.5209,-3.5209,-3.5209,-3.5209,-3.5209,-3.5209,-3.543,-3.6328,-3.6538,-3.6748,-3.7597,-3.8438,-3.8782,-3.7941,-3.9123,-4.002,-3.9263,-3.9887,-4.0502,-4.0502,-4.0503,-4.0549,-4.0675,-4.0754,-4.0837,-4.0981,-4.1042,-4.1087,-4.1109,-4.1109,-4.1109,-4.1109,-4.1109,-4.1109,-4.1109,-4.1109,-4.109,-4.1051,-3.943,-3.8591,-3.8552,-3.6833,-3.5992,-3.5992,-3.5992,-3.5992,-2.7269,0.0,0.0,0.0,0.0,0.0,0.0,0.0,-3.0378,-3.1878,-3.2191,-3.2439,-3.3234,-3.3387,-3.354,-3.4017,-3.5095,-3.5897,0.0,0.0,0.0,0.0,0.0,0.0,0.0,0.0,0.0,0.0,-3.4977,-3.465,-3.4164,-3.3917,-3.3807,-3.3807,-3.3807,-3.3807,-3.3807,-3.3807,-3.3807,-3.3807,-3.3807,-3.3807,-3.3807,-3.3807,-3.3807,-3.3807,-3.3807,-3.3807,-3.3807,-3.3807,-3.3807,-3.3807,-3.3807,-3.3807,-3.3825,-3.4045,-3.4195,-3.4347,-3.4705,-3.4903,-3.501,-3.5149,-3.5209,-3.5209,-3.5209,-3.5209,-3.5209,-3.5209,-3.5209,-3.5209,-3.5209,-3.5209,-3.5572,-3.7024,-3.7368,-3.7769,-3.926,-3.9766,-3.9862,-3.9642,-3.946,-3.9478,-3.9905,-4.018,-4.0379,-4.0424,-4.0474,-4.0503,-4.055,-4.0579,-4.0655,-4.0833,-4.0871,-4.0932,-4.1085,-4.1109,-4.1109,-4.1109,-4.1109,-4.1109,-4.1109,-4.1109,-4.0797,-4.0171,-3.9138,-3.8298,-3.7653,-3.6539,-3.5992,-3.5992,-3.5992,-3.5992,-2.7714,-2.7748,-2.8002,-2.8002,0.0,0.0,-2.8994,-2.9148,-2.9398,0.0,-3.1484,-3.1706,-3.2546,-3.2699,-3.2699,-3.2699,-3.352,-3.4151,0.0,0.0,0.0,0.0,0.0,0.0,0.0,-3.5209,-3.5053,-3.4694,-3.4561,-3.4295,-3.3815,-3.3807,-3.3807,-3.3807,-3.3807,-3.3807,-3.3807,-3.3807,-3.3807,-3.3807,-3.3807,-3.3807,-3.3807,-3.3807,-3.3793,-3.3766,-3.3766,-3.3739,-3.3712,-3.3712,-3.3753,-3.3807,-3.3807,-3.3807,-3.3807,-3.3807,-3.4018,-3.4337,-3.4464,-3.4734,-3.5046,-3.5157,-3.5209,-3.5209,-3.5209,-3.5209,-3.5209,-3.5209,-3.5209,-3.5286,-3.5641,-3.5469,-3.563,-3.7292,-3.7693,-3.8075,-3.947,-4.0034,-4.0301,-4.0301,-3.9881,-3.9708,-4.0213,-4.0289,-4.0316,-4.0362,-4.0424,-4.0477,-4.0502,-4.0531,-4.0603,-4.0749,-4.0781,-4.0871,-4.1037,-4.1064,-4.1072,-4.1108,-4.1109,-4.1109,-4.1109,-4.1109,-4.0698,-3.9819,-3.9001,-3.7986,-3.6755,-3.6246,-3.5992,-3.5992,-3.5992,-3.5992,-2.7998,-2.8218,-2.8703,-2.8703,-2.8108,0.0,-2.9452,-2.9184,-2.9079,0.0,-3.0935,-3.1107,-3.1958,-3.2207,-3.2245,-3.2149,-3.229,-3.2481,0.0,0.0,0.0,0.0,0.0,0.0,-3.4999,-3.5076,-3.502,-3.4908,-3.4632,-3.4197,-3.3558,-3.3697,-3.3752,-3.3678,-3.3752,-3.3807,-3.3807,-3.3715,-3.3678,-3.3678,-3.3678,-3.3678,-3.3678,-3.3738,-3.3766,-3.3698,-3.3684,-3.3675,-3.3605,-3.3605,-3.3671,-3.3793,-3.3793,-3.3775,-3.3807,-3.3807,-3.4099,-3.4508,-3.4508,-3.4813,-3.5209,-3.5209,-3.5209,-3.5209,-3.5209,-3.5209,-3.5209,-3.5209,-3.5209,-3.5373,-3.6156,-3.5851,-3.5744,-3.7311,-3.7769,-3.8075,-3.8954,-3.9747,-4.0301,-4.0301,-4.0301,-4.0301,-4.0301,-4.0309,-4.0298,-4.0298,-4.0353,-4.0415,-4.0466,-4.0542,-4.061,-4.0687,-4.0749,-4.0829,-4.0974,-4.0981,-4.1009,-4.1081,-4.1083,-4.1085,-4.1109,-4.1012,-4.0542,-3.9683,-3.8767,-3.7555,-3.5992,-3.5992,-3.5992,-3.5992,-3.5992,-3.5992,-2.965,-2.9063,-2.8703,-2.8703,-2.8093,0.0,-2.7925,-2.7388,-2.7105,0.0,-2.7793,-2.7558,-2.8429,-2.9115,-2.9355,-2.8696,-2.972,-3.1096,0.0,0.0,0.0,0.0,0.0,0.0,-3.414,-3.4235,-3.441,-3.487,-3.4502,-3.3555,-3.1942,-3.3091,-3.3495,-3.2839,-3.3458,-3.3807,-3.3807,-3.3151,-3.2821,-3.2821,-3.2821,-3.2821,-3.2839,-3.3446,-3.3712,-3.3698,-3.3629,-3.3601,-3.3605,-3.3605,-3.3661,-3.3726,-3.3726,-3.3753,-3.3807,-3.3807,-3.4099,-3.4508,-3.4508,-3.4813,-3.5209,-3.5209,-3.5209,-3.5209,-3.5209,-3.5209,-3.5209,-3.5209,-3.5209,-3.5248,-3.5411,-3.5851,-3.6481,-3.7464,-3.8247,-3.8992,-3.9862,-4.0186,-4.0301,-4.0301,-4.0301,-4.0301,-4.0301,-4.0291,-4.0301,-4.0301,-4.0308,-4.0325,-4.0334,-4.0394,-4.0489,-4.0616,-4.0636,-4.0696,-4.0829,-4.0837,-4.0894,-4.1006,-4.1011,-4.1033,-4.1108,-4.0424,-3.9663,-3.8845,-3.7301,-3.6344,-3.5992,-3.5992,-3.5992,-3.5992,-3.5992,-3.5992,-3.0143,-2.9612,-2.9309,-2.9309,-2.8684,0.0,0.0,-2.7785,-2.7267,-2.8591,-2.783,-2.7202,-2.8046,-2.8541,-2.8674,-2.8256,-2.9267,-3.0254,-3.0681,0.0,0.0,0.0,0.0,0.0,-3.328,-3.3356,-3.3377,-3.3449,-3.3272,-3.263,-3.1414,-3.2142,-3.2412,-3.2008,-3.2779,-3.3193,-3.3148,-3.279,-3.2588,-3.2549,-3.2184,-3.1983,-3.1975,-3.276,-3.3072,-3.3022,-3.3381,-3.352,-3.3509,-3.3509,-3.3534,-3.3619,-3.3671,-3.3739,-3.382,-3.3947,-3.4208,-3.4518,-3.4653,-3.4917,-3.5209,-3.5209,-3.5209,-3.5209,-3.5209,-3.5209,-3.5209,-3.5209,-3.5209,-3.5209,-3.5209,-3.5526,-3.6061,-3.691,-3.775,-3.8591,-3.947,-3.9995,-4.0301,-4.0301,-4.0301,-4.0301,-4.0301,-4.0301,-4.0301,-4.0301,-4.031,-4.0299,-4.0307,-4.0325,-4.0394,-4.0477,-4.0492,-4.0554,-4.069,-4.0707,-4.0761,-4.089,-4.0898,-4.0951,-4.1054,-4.0218,-3.9176,-3.7985,-3.6677,-3.5992,-3.5992,-3.5992,-3.5992,-3.5992,-3.5992,-3.5992,-3.0389,-3.011,-3.0055,0.0,0.0,-2.9212,0.0,0.0,0.0,0.0,0.0,0.0,0.0,0.0,0.0,0.0,0.0,0.0,0.0,-2.9251,0.0,0.0,0.0,0.0,0.0,-3.2443,-3.2254,-3.1783,-3.1791,-3.1517,-3.0857,-3.1157,-3.1298,-3.1152,-3.1928,-3.2311,-3.2276,-3.2164,-3.2059,-3.2007,-3.1413,-3.1102,-3.1088,-3.1866,-3.2165,-3.2106,-3.2914,-3.3216,-3.3176,-3.3339,-3.3437,-3.3506,-3.3633,-3.3712,-3.3802,-3.4086,-3.4314,-3.454,-3.4783,-3.5028,-3.5201,-3.5193,-3.5201,-3.5209,-3.5209,-3.5209,-3.5209,-3.5209,-3.5209,-3.5209,-3.5209,-3.5316,-3.566,-3.6519,-3.7368,-3.819,-3.9069,-3.9804,-4.0301,-4.0301,-4.0301,-4.0301,-4.0301,-4.0301,-4.0301,-4.0301,-4.0301,-4.0301,-4.0308,-4.0289,-4.0326,-4.037,-4.0379,-4.0436,-4.0554,-4.0561,-4.0623,-4.0742,-4.0752,-4.0742,-4.0737,-3.9737,-3.8497,-3.7028,-3.6337,-3.5989,-3.5983,-3.5989,-3.5992,-3.5992,-3.5992,-3.5992,-3.1261,0.0,0.0,0.0,-3.0233,0.0,0.0,0.0,-2.8408,-2.79,0.0,0.0,0.0,0.0,0.0,0.0,0.0,0.0,-2.6811,-2.7949,0.0,0.0,0.0,0.0,0.0,-3.1554,-3.1347,-3.0889,-3.0858,-3.0341,-2.9144,-3.044,-3.0929,-3.0265,-3.0965,-3.1373,-3.1448,-3.0684,-3.0294,-3.0281,-3.0202,-3.0166,-3.0172,-3.0922,-3.1247,-3.1288,-3.2023,-3.2339,-3.2379,-3.3103,-3.3437,-3.3509,-3.3524,-3.3605,-3.3739,-3.4011,-3.4279,-3.4529,-3.4743,-3.4982,-3.5201,-3.5198,-3.5196,-3.5209,-3.5209,-3.5209,-3.5209,-3.5209,-3.5209,-3.5209,-3.5209,-3.5774,-3.6557,-3.7368,-3.8228,-3.9088,-3.9957,-4.0225,-4.0301,-4.0301,-4.0301,-4.0301,-4.0301,-4.0301,-4.0301,-4.0301,-4.0301,-4.031,-4.0291,-4.0291,-4.0291,-4.0307,-4.0316,-4.0342,-4.0422,-4.043,-4.0481,-4.0617,-4.063,-4.0355,-3.9779,-3.8234,-3.6917,-3.5904,-3.5958,-3.5978,-3.5919,-3.5978,-3.5992,-3.5992,-3.5992,-3.5992,0.0,0.0,0.0,0.0,0.0,0.0,-2.9472,0.0,-2.8741,0.0,0.0,0.0,0.0,0.0,0.0,0.0,-2.7573,0.0,0.0,0.0,-2.7542,0.0,0.0,0.0,0.0,0.0,0.0,0.0,-2.9481,-2.9111,-2.8755,-2.9423,-2.9661,-2.9357,-3.0093,-3.0505,-3.0493,-3.0159,-2.9982,-2.9932,-2.9514,-2.9277,-2.9271,-3.0051,-3.0389,-3.0386,-3.1175,-3.1763,-3.2234,-3.256,-3.3006,-3.3437,-3.3437,-3.352,-3.3684,-3.4074,-3.4295,-3.4434,-3.4841,-3.5047,-3.5153,-3.52,-3.5187,-3.5209,-3.5209,-3.5209,-3.5209,-3.5209,-3.5209,-3.5209,-3.5209,-3.5469,-3.5965,-3.6795,-3.7636,-3.8476,-3.9355,-3.9546,-3.9699,-4.0205,-3.9881,-3.9718,-4.0205,-4.0301,-4.0301,-4.0301,-4.0301,-4.0301,-4.0301,-4.0301,-4.0291,-4.03,-4.03,-4.0318,-4.0344,-4.0334,-4.0386,-4.0481,-4.0079,-3.9289,-3.8023,-3.7368,-3.6616,-3.572,-3.5737,-3.5751,-3.5737,-3.5801,-3.5837,-3.584,-3.5904,-3.5955,-3.0421,0.0,0.0,0.0,0.0,0.0,0.0,0.0,0.0,0.0,0.0,0.0,0.0,0.0,-2.7752,-2.7551,0.0,-2.6909,0.0,0.0,0.0,0.0,0.0,0.0,0.0,0.0,0.0,0.0,0.0,-2.8075,-2.8639,-2.8724,-2.8749,-2.8773,-2.9325,-2.9591,-2.9566,-2.9591,-2.9579,-2.9546,-2.8997,-2.8724,-2.8687,-2.9274,-2.952,-2.9518,-3.0328,-3.0998,-3.1582,-3.2017,-3.2542,-3.3085,-3.3302,-3.3466,-3.3601,-3.4086,-3.4269,-3.4379,-3.4879,-3.5084,-3.5101,-3.5183,-3.5187,-3.5209,-3.5209,-3.5209,-3.5209,-3.5209,-3.5209,-3.5209,-3.5209,-3.5209,-3.5477,-3.6557,-3.7273,-3.7999,-3.9126,-3.9355,-3.9546,-4.0186,-3.9785,-3.9565,-4.0186,-4.0301,-4.0301,-4.0301,-4.0301,-4.0301,-4.0301,-4.0301,-4.0301,-4.0301,-4.0301,-4.0301,-4.0299,-4.0308,-4.023,-4.0045,-3.9119,-3.8009,-3.6807,-3.6629,-3.627,-3.5609,-3.5606,-3.5592,-3.5567,-3.5631,-3.5674,-3.5678,-3.5787,-3.5867,0.0,0.0,0.0,-2.8668,0.0,0.0,0.0,0.0,-3.0222,0.0,0.0,0.0,0.0,-2.9081,-2.84,-2.7619,-2.7494,0.0,0.0,0.0,0.0,0.0,0.0,0.0,0.0,0.0,0.0,0.0,0.0,0.0,-2.8534,-2.86,-2.8637,-2.8694,-2.8668,-2.8674,-2.8748,-2.8674,-2.8636,-2.8636,-2.8618,-2.86,-2.86,-2.8636,-2.8636,-2.869,-2.9481,-2.9857,-3.0002,-3.156,-3.2216,-3.2325,-3.3103,-3.3393,-3.3462,-3.4018,-3.4235,-3.4368,-3.4841,-3.5057,-3.5101,-3.5183,-3.5187,-3.5209,-3.5209,-3.5209,-3.5209,-3.5209,-3.5209,-3.5209,-3.5209,-3.5209,-3.563,-3.7273,-3.7674,-3.8171,-3.9881,-4.0263,-4.0263,-4.0282,-4.0282,-4.0263,-4.0301,-4.0301,-4.0301,-4.0301,-4.0301,-4.0301,-4.0301,-4.0301,-4.0301,-4.0301,-4.0301,-4.0301,-4.031,-4.031,-3.9966,-3.9186,-3.7608,-3.6654,-3.6615,-3.5932,-3.5464,-3.533,-3.5496,-3.5576,-3.5507,-3.5581,-3.5611,-3.5592,-3.5681,-3.5702,0.0,0.0,-3.1473,-2.9661,0.0,0.0,0.0,0.0,0.0,0.0,0.0,0.0,0.0,-2.8905,-2.8409,-2.8135,-2.7278,-2.6046,0.0,0.0,0.0,0.0,0.0,0.0,0.0,0.0,0.0,0.0,-2.695,0.0,0.0,-2.86,-2.8612,-2.8637,-2.8612,-2.8612,-2.8637,-2.8612,-2.86,-2.86,-2.86,-2.86,-2.86,-2.86,-2.86,-2.8618,-2.8889,-2.93,-2.9875,-3.0962,-3.1709,-3.227,-3.3085,-3.3506,-3.3712,-3.408,-3.4208,-3.4291,-3.4782,-3.5011,-3.5092,-3.5129,-3.517,-3.5209,-3.5209,-3.5209,-3.5209,-3.5209,-3.5209,-3.5209,-3.5209,-3.5621,-3.6328,-3.7445,-3.8132,-3.8877,-4.0053,-3.9843,-3.9623,-4.0186,-3.9823,-3.9623,-4.0205,-4.0301,-4.0301,-4.0301,-4.0301,-4.0301,-4.0301,-4.0301,-4.0301,-4.0301,-4.0301,-4.0301,-4.0301,-3.9766,-3.9078,-3.8235,-3.713,-3.6293,-3.5756,-3.5503,-3.535,-3.5289,-3.5314,-3.5328,-3.5296,-3.5376,-3.5411,-3.5391,-3.5419,-3.551,-3.1699,-3.1888,0.0,-3.0201,-3.0114,0.0,-2.8438,0.0,-2.9671,0.0,0.0,0.0,0.0,-2.9103,-2.8559,-2.8014,-2.7137,-2.5831,0.0,-2.3421,0.0,0.0,0.0,0.0,0.0,0.0,-2.53,-2.6692,-2.6188,0.0,0.0,0.0,-2.86,-2.86,-2.86,-2.86,-2.86,-2.86,-2.86,-2.86,-2.86,-2.86,-2.86,-2.86,-2.86,-2.86,-2.86,-2.8889,-2.9463,-3.0563,-3.1324,-3.1872,-3.2977,-3.3563,-3.3829,-3.4099,-3.4316,-3.4491,-3.4802,-3.4964,-3.5075,-3.5084,-3.5145,-3.5204,-3.5201,-3.5209,-3.5209,-3.5209,-3.5209,-3.5209,-3.5209,-3.5851,-3.6691,-3.7502,-3.8362,-3.924,-4.011,-3.9862,-3.9642,-4.0186,-3.9843,-3.9642,-4.0205,-4.0301,-4.0301,-4.0301,-4.0301,-4.0301,-4.0301,-4.0301,-4.0301,-4.0301,-4.0301,-4.0301,-4.0301,-3.9221,-3.8304,-3.7731,-3.6648,-3.5804,-3.5288,-3.5269,-3.5269,-3.5269,-3.5218,-3.5209,-3.5209,-3.5234,-3.5269,-3.5269,-3.5254,-3.5336]},{"header":{"parameterUnit":"m.s-1","parameterCategory":1,"la1":30.6,"la2":29.2853,"lo1":-89.7004,"lo2":-87.6739,"dy":0.0162,"dx":0.0183,"nx":112,"ny":82,"refTime":"2025-05-14T12:00:00:Z","depth":0,"parameterNumber":3,"parameterNumberName":"V-component_of_WINDS"},"data":[0.0,0.0,0.0,0.0,0.0,0.0,0.0,0.0,0.0,0.0,0.0,0.0,0.0,0.0,0.0,0.0,0.0,0.0,0.0,0.0,0.0,0.0,0.0,0.0,0.0,0.0,0.0,0.0,0.0,0.0,0.0,0.0,0.0,0.0,0.0,0.0,0.0,0.0,0.0,0.0,0.0,0.0,0.0,0.0,0.0,0.0,0.0,0.0,0.0,0.0,0.0,0.0,0.0,0.0,0.0,0.0,0.0,0.0,0.0,0.0,0.0,0.0,0.0,0.0,0.0,0.0,0.0,0.0,0.0,0.0,0.0,0.0,0.0,0.0,0.0,0.0,0.0,0.0,0.0,0.0,0.0,0.0,0.0,0.0,0.0,0.0,0.0,0.0,0.0,0.0,-0.6017,-0.6627,-0.8371,-0.9772,-1.0362,-1.1202,-1.1317,-1.0348,0.0,0.0,0.0,0.0,0.0,0.0,0.0,0.0,0.0,0.0,0.0,0.0,0.0,0.0,0.0,0.0,0.0,0.0,0.0,0.0,0.0,0.0,0.0,0.0,0.0,0.0,0.0,0.0,0.0,0.0,0.0,0.0,0.0,0.0,0.0,0.0,0.0,0.0,0.0,0.0,0.0,0.0,0.0,0.0,0.0,0.0,0.0,0.0,0.0,0.0,0.0,0.0,0.0,0.0,0.0,0.0,0.0,0.0,0.0,0.0,0.0,0.0,0.0,0.0,0.0,0.0,0.0,0.0,0.0,0.0,0.0,0.0,0.0,0.0,0.0,0.0,0.0,0.0,0.0,0.0,0.0,0.0,0.0,0.0,0.0,0.0,0.0,0.0,0.0,0.0,0.0,0.0,0.0,0.0,0.0,0.0,0.0,0.0,0.0,0.0,0.0,0.0,0.0,0.0,-0.622,-0.7312,-0.8528,-0.9585,-1.0348,-1.0733,-1.078,-1.0318,0.0,0.0,0.0,0.0,0.0,0.0,0.0,0.0,0.0,0.0,0.0,0.0,0.0,0.0,0.0,0.0,0.0,0.0,0.0,0.0,0.0,0.0,0.0,0.0,0.0,0.0,0.0,0.0,0.0,0.0,0.0,0.0,0.0,0.0,0.0,0.0,0.0,0.0,0.0,0.0,0.0,0.0,0.0,0.0,0.0,0.0,0.0,0.0,0.0,0.0,0.0,0.0,0.0,0.0,0.0,0.0,0.0,0.0,0.0,0.0,0.0,0.0,0.0,0.0,0.0,0.0,0.0,0.0,0.0,0.0,0.0,0.0,0.0,0.0,0.0,0.0,0.0,0.0,0.0,0.0,0.0,0.0,0.0,0.0,0.0,0.0,0.0,0.0,0.0,0.0,0.0,0.0,0.0,0.0,0.0,0.0,0.0,0.0,0.0,0.0,0.0,0.0,0.0,-0.6114,-0.6502,-0.738,-0.904,-1.0128,-1.0277,-1.109,-1.1225,-1.0347,-0.9642,0.0,0.0,0.0,0.0,0.0,0.0,0.0,0.0,0.0,0.0,0.0,0.0,0.0,0.0,0.0,0.0,0.0,0.0,0.0,0.0,0.0,0.0,0.0,0.0,0.0,0.0,0.0,0.0,0.0,0.0,0.0,0.0,0.0,0.0,0.0,0.0,0.0,0.0,0.0,0.0,0.0,0.0,0.0,0.0,0.0,0.0,0.0,0.0,0.0,0.0,0.0,0.0,0.0,0.0,0.0,0.0,0.0,0.0,0.0,0.0,0.0,0.0,0.0,0.0,0.0,0.0,0.0,0.0,0.0,0.0,0.0,0.0,0.0,0.0,0.0,0.0,0.0,0.0,0.0,0.0,0.0,0.0,0.0,0.0,0.0,0.0,0.0,0.0,0.0,0.0,0.0,0.0,0.0,0.0,0.0,0.0,0.0,0.0,0.0,0.0,0.0,0.0,-0.6716,-0.7199,-0.7986,-0.9608,-1.0635,-1.0542,-1.1427,-1.1546,-1.0364,-0.9179,0.0,0.0,0.0,0.0,0.0,0.0,0.0,0.0,0.0,0.0,0.0,0.0,0.0,0.0,0.0,0.0,0.0,0.0,0.0,0.0,0.0,0.0,0.0,0.0,0.0,0.0,0.0,0.0,0.0,0.0,0.0,0.0,0.0,0.0,0.0,0.0,0.0,0.0,0.0,0.0,0.0,0.0,0.0,0.0,0.0,0.0,0.0,0.0,0.0,0.0,0.0,0.0,0.0,0.0,0.0,0.0,0.0,0.0,0.0,0.0,0.0,0.0,0.0,0.0,0.0,0.0,0.0,0.0,0.0,0.0,0.0,0.0,0.0,0.0,0.0,0.0,0.0,0.0,0.0,0.0,0.0,0.0,0.0,0.0,0.0,0.0,0.0,0.0,0.0,0.0,0.0,0.0,0.0,0.0,0.0,0.0,0.0,0.0,0.0,0.0,0.0,0.0,-0.764,-0.8515,-0.9839,-1.0137,-1.0546,-1.1332,-1.1284,-1.0948,-1.0328,-0.8836,0.0,0.0,0.0,0.0,0.0,0.0,0.0,0.0,0.0,0.0,0.0,0.0,0.0,0.0,0.0,0.0,0.0,0.0,0.0,0.0,0.0,0.0,0.0,0.0,0.0,0.0,0.0,0.0,0.0,0.0,0.0,0.0,0.0,0.0,0.0,0.0,0.0,0.0,0.0,0.0,0.0,0.0,0.0,0.0,0.0,0.0,0.0,0.0,0.0,0.0,0.0,0.0,0.0,0.0,0.0,0.0,0.0,0.0,0.0,0.0,0.0,0.0,0.0,0.0,0.0,0.0,0.0,0.0,0.0,0.0,0.0,0.0,0.0,0.0,0.0,0.0,0.0,0.0,0.0,0.0,0.0,0.0,0.0,0.0,0.0,0.0,0.0,0.0,0.0,0.0,0.0,0.0,0.0,0.0,0.0,0.0,0.0,0.0,0.0,0.0,0.0,0.0,-0.7645,-0.8292,-0.9073,-1.0257,-1.0809,-1.0312,-1.0918,-1.0966,-1.0106,0.0,0.0,0.0,0.0,0.0,0.0,0.0,0.0,0.0,0.0,0.0,0.0,0.0,0.0,0.0,0.0,0.0,0.0,0.0,0.0,0.0,0.0,0.0,0.0,0.0,0.0,0.0,0.0,0.0,0.0,0.0,0.0,0.0,0.0,0.0,0.0,0.0,0.0,0.0,0.0,0.0,0.0,0.0,0.0,0.0,0.0,0.0,0.0,0.0,0.0,0.0,0.0,0.0,0.0,0.0,0.0,0.0,0.0,0.0,0.0,0.0,0.0,0.0,0.0,0.0,0.0,0.0,0.0,0.0,0.0,0.0,0.0,0.0,0.0,0.0,0.0,0.0,0.0,0.0,0.0,0.0,0.0,0.0,0.0,0.0,0.0,0.0,0.0,0.0,0.0,0.0,0.0,0.0,0.0,0.0,0.0,0.0,0.0,0.0,0.0,0.0,0.0,-0.739,-0.7787,-0.8395,-0.9688,-1.0702,-1.1063,-1.0443,-1.0846,-1.0731,-0.9835,0.0,0.0,0.0,0.0,0.0,0.0,0.0,0.0,0.0,0.0,0.0,0.0,0.0,0.0,0.0,0.0,0.0,0.0,0.0,0.0,0.0,0.0,0.0,0.0,0.0,0.0,0.0,0.0,0.0,0.0,0.0,0.0,0.0,0.0,0.0,0.0,0.0,0.0,0.0,0.0,0.0,0.0,0.0,0.0,0.0,0.0,0.0,0.0,0.0,0.0,0.0,0.0,0.0,0.0,0.0,0.0,0.0,0.0,0.0,0.0,0.0,0.0,0.0,0.0,0.0,0.0,0.0,0.0,0.0,0.0,0.0,0.0,0.0,0.0,0.0,0.0,0.0,0.0,0.0,0.0,0.0,0.0,0.0,0.0,0.0,0.0,0.0,0.0,0.0,0.0,0.0,0.0,0.0,0.0,0.0,0.0,0.0,0.0,0.0,0.0,0.0,0.0,-0.8245,-0.8194,-0.9116,-1.2311,-1.1618,-1.1263,-1.2182,-1.105,-1.0069,0.0,0.0,0.0,0.0,0.0,0.0,0.0,0.0,0.0,0.0,0.0,0.0,0.0,0.0,0.0,0.0,0.0,0.0,0.0,0.0,0.0,0.0,0.0,0.0,0.0,0.0,0.0,0.0,0.0,0.0,0.0,0.0,0.0,0.0,0.0,0.0,0.0,0.0,0.0,0.0,0.0,0.0,0.0,0.0,0.0,0.0,0.0,0.0,0.0,0.0,0.0,0.0,0.0,0.0,0.0,0.0,0.0,0.0,0.0,0.0,0.0,0.0,0.0,0.0,0.0,0.0,0.0,0.0,0.0,0.0,0.0,0.0,0.0,0.0,0.0,0.0,0.0,0.0,0.0,0.0,0.0,0.0,0.0,0.0,0.0,0.0,0.0,0.0,0.0,0.0,0.0,0.0,0.0,0.0,0.0,0.0,0.0,0.0,0.0,0.0,0.0,0.0,0.0,-0.72,-0.8134,-0.9042,-1.0177,-1.1089,-1.1387,-1.08,-1.0468,-0.9985,-0.9263,0.0,0.0,0.0,0.0,0.0,0.0,0.0,0.0,0.0,0.0,0.0,0.0,0.0,0.0,0.0,0.0,0.0,0.0,0.0,0.0,0.0,0.0,0.0,0.0,0.0,0.0,0.0,0.0,0.0,0.0,0.0,0.0,0.0,0.0,0.0,0.0,0.0,0.0,0.0,0.0,0.0,0.0,0.0,0.0,0.0,0.0,0.0,0.0,0.0,0.0,0.0,0.0,0.0,0.0,0.0,0.0,0.0,0.0,0.0,0.0,0.0,0.0,0.0,0.0,0.0,0.0,0.0,0.0,0.0,0.0,0.0,0.0,0.0,0.0,0.0,0.0,0.0,0.0,0.0,0.0,0.0,0.0,0.0,0.0,0.0,0.0,0.0,0.0,0.0,0.0,0.0,0.0,0.0,0.0,0.0,0.0,0.0,0.0,0.0,0.0,0.0,0.0,-0.6773,-0.7762,-0.8712,-0.9737,-1.069,-1.1055,-1.0522,-1.0395,-0.9907,-0.8999,0.0,0.0,0.0,0.0,0.0,0.0,0.0,0.0,0.0,0.0,0.0,0.0,0.0,0.0,0.0,0.0,0.0,0.0,0.0,0.0,0.0,0.0,0.0,0.0,0.0,0.0,0.0,0.0,0.0,0.0,0.0,0.0,0.0,0.0,0.0,0.0,0.0,0.0,0.0,0.0,0.0,0.0,0.0,0.0,0.0,0.0,0.0,0.0,0.0,0.0,0.0,0.0,0.0,0.0,0.0,0.0,0.0,0.0,0.0,0.0,0.0,0.0,0.0,0.0,0.0,0.0,0.0,0.0,0.0,0.0,0.0,0.0,0.0,0.0,0.0,0.0,0.0,0.0,0.0,0.0,0.0,0.0,0.0,0.0,0.0,0.0,0.0,0.0,0.0,0.0,0.0,0.0,0.0,0.0,0.0,0.0,0.0,0.0,0.0,0.0,0.0,0.0,-0.6597,-0.7153,-0.8163,-1.0197,-1.0324,-1.0445,-1.0907,-1.0521,-0.9823,-0.8806,0.0,0.0,0.0,0.0,0.0,0.0,0.0,0.0,0.0,0.0,0.0,0.0,0.0,0.0,0.0,0.0,0.0,0.0,0.0,0.0,0.0,0.0,0.0,0.0,0.0,0.0,0.0,0.0,0.0,0.0,0.0,0.0,0.0,0.0,0.0,0.0,0.0,0.0,0.0,0.0,0.0,0.0,0.0,0.0,0.0,0.0,0.0,0.0,0.0,0.0,0.0,0.0,0.0,0.0,0.0,0.0,0.0,0.0,0.0,0.0,0.4216,0.0,0.0,0.0,0.0,0.0,0.0,0.0,0.0,0.0,0.0,0.0,0.0,0.0,0.0,0.0,0.0,0.0,0.0,0.0,0.0,0.0,0.0,0.0,0.0,0.0,0.0,0.0,0.0,0.0,0.0,0.0,0.0,0.0,0.0,0.0,0.0,0.0,0.0,0.0,0.0,0.0,-0.5389,-0.6444,-0.7363,-0.809,-0.9254,-0.9933,-0.9862,-0.9933,-0.9709,-0.9053,-0.8127,0.0,0.0,0.0,0.0,0.0,0.0,0.0,0.0,0.0,0.0,0.0,0.0,0.0,0.0,0.0,0.0,0.0,0.0,0.0,0.0,0.0,0.0,0.0,0.0,0.0,0.0,0.0,0.0,0.0,0.0,0.0,0.0,0.0,0.0,0.0,0.0,0.0,0.0,0.0,0.0,0.0,0.0,0.0,0.0,0.0,0.0,0.0,0.0,0.0,0.0,0.0,0.0,0.0,0.0,0.0,0.0,0.0,0.0,0.0,0.0,0.4363,0.0,0.0,0.0,0.0,0.0,0.0,0.0,0.0,0.0,0.0,0.0,0.0,0.0,0.0,0.0,0.0,0.0,0.0,0.0,0.0,0.0,0.0,0.0,0.0,0.0,0.0,0.0,0.0,0.0,0.0,0.0,0.0,0.0,0.0,0.0,0.0,0.0,0.0,0.0,0.0,-0.5257,-0.5956,-0.6714,-0.7405,-0.8156,-0.8795,-0.9257,-0.9365,-0.9334,-0.91,-0.8492,0.0,0.0,0.0,0.0,0.0,0.0,0.0,0.0,0.0,0.0,0.0,0.0,0.0,0.0,0.0,0.0,0.0,0.0,0.0,0.0,0.0,0.0,0.0,0.0,0.0,0.0,0.0,0.0,0.0,0.0,0.0,0.0,0.0,0.0,0.0,0.0,0.0,0.0,0.0,0.0,0.0,0.0,0.0,0.0,0.0,0.0,0.0,0.0,0.0,0.0,0.0,0.0,0.0,0.7304,0.7441,0.7613,0.7613,0.7516,0.7303,0.645,0.5755,0.5024,0.3828,0.0,0.0,0.0,0.0,0.0,0.0,0.0,0.0,0.0,0.0,0.0,0.0,0.0,0.0,0.0,0.0,0.0,0.0,0.0,0.0,0.0,0.0,0.0,0.0,-0.4599,-0.4454,0.0,0.0,0.0,0.0,0.0,0.0,0.0,0.0,0.0,0.0,0.0,0.0,-0.5447,-0.5722,-0.6203,-0.718,-0.7242,-0.7606,-0.8619,-0.8701,-0.8783,-0.898,-0.874,-0.8343,0.0,0.0,0.0,0.0,0.0,0.0,0.0,0.0,0.0,0.0,0.0,0.0,0.0,0.0,0.0,0.0,0.0,0.0,0.0,0.0,0.0,0.0,0.0,0.0,0.0,0.0,0.0,0.0,0.0,0.0,0.0,0.0,1.0491,1.0948,0.0,0.0,0.0,0.0,0.0,0.0,0.0,0.0,0.0,0.0,0.0,0.0,0.0,0.718,0.7448,0.7723,0.7833,0.7877,0.818,0.8316,0.8336,0.8336,0.8336,0.833,0.8166,0.0,0.567,0.5403,0.0,0.0,0.0,0.0,0.0,0.0,0.0,0.0,0.0,0.0,0.0,0.0,0.0,0.0,0.0,0.0,0.0,0.0,0.0,0.0,0.0,0.0,-0.4,-0.4739,-0.4944,-0.4866,0.0,-0.4197,-0.3926,-0.4139,-0.3812,0.0,0.0,0.0,0.0,0.0,0.0,0.0,-0.5378,-0.5745,-0.6105,-0.6433,-0.6904,-0.7208,-0.7174,-0.764,-0.8127,-0.8554,-0.832,-0.8289,-0.8537,-0.7903,0.0,0.0,0.0,0.0,0.0,0.0,0.0,0.0,0.0,0.0,0.0,0.0,0.0,0.0,0.0,0.0,0.0,0.0,0.0,0.0,0.0,0.0,0.0,0.0,0.0,0.0,0.0,0.0,0.0,1.0166,1.1087,1.1441,1.093,1.0451,0.0,0.0,0.0,0.0,0.0,0.0,0.0,0.0,0.0,0.7506,0.7553,0.7753,0.7974,0.8184,0.833,0.8418,0.8547,0.8655,0.8737,0.8737,0.8737,0.8737,0.8737,0.8256,0.7344,0.6485,0.5539,0.4464,0.0,0.0,0.0,0.0,0.0601,0.051,0.0211,0.0085,0.0,0.0,0.0,0.0,0.0,0.0,0.0,0.0,0.0,0.0,0.0,0.0,-0.3822,-0.429,-0.4806,-0.5186,-0.5117,-0.4725,-0.4417,0.0,-0.416,-0.3932,-0.3924,0.0,0.0,0.0,0.0,-0.5086,-0.5559,-0.5854,-0.6088,-0.6282,-0.6376,-0.656,-0.6885,-0.6954,-0.7277,-0.7847,-0.8169,-0.8325,-0.8359,-0.828,-0.7866,0.0,0.0,0.0,0.0,0.0,0.0,0.0,0.0,0.0,0.0,0.0,0.0,0.0,0.0,0.0,0.0,0.0,0.0,0.0,0.0,0.0,0.0,0.0,0.0,0.0,0.0,0.0,0.0,1.0821,1.1648,1.1958,1.1868,1.1589,0.0,0.0,0.0,0.0,0.0,0.0,0.8837,0.8066,0.7736,0.8031,0.815,0.8286,0.8438,0.8547,0.8655,0.8767,0.8767,0.8828,0.8885,0.8885,0.8885,0.8885,0.8885,0.8817,0.8666,0.7478,0.6644,0.5974,0.4345,0.3406,0.2843,0.1528,0.0914,0.0681,0.0228,0.0092,0.009,0.0,0.0,0.0,0.0,0.0,0.0,0.0,0.0,-0.0756,-0.1218,-0.2162,-0.3212,-0.3846,-0.4565,-0.5156,-0.5378,-0.5181,-0.4874,0.0,-0.4467,-0.4326,-0.4261,0.0,0.0,0.0,0.0,-0.5174,-0.5702,-0.5878,-0.6039,-0.6193,-0.5962,-0.6001,-0.6533,-0.6316,-0.6433,-0.7088,-0.7674,-0.7955,-0.7923,-0.834,-0.8229,-0.7547,0.0,0.0,0.0,0.0,0.0,0.0,0.0,0.0,0.0,0.0,0.0,0.0,0.0,0.0,0.0,0.0,0.0,0.0,0.0,0.0,0.0,0.0,0.0,0.0,0.0,0.0,0.0,0.0,0.0,1.335,1.3823,0.0,0.0,0.0,0.0,1.1047,1.0767,1.0266,0.9306,0.8639,0.836,0.8655,0.8672,0.875,0.8848,0.8858,0.8865,0.8871,0.8871,0.8875,0.8885,0.8885,0.8885,0.8885,0.8885,0.8878,0.8848,0.8517,0.7744,0.6729,0.6506,0.5117,0.326,0.2957,0.2104,0.1015,0.052,0.0376,0.0325,0.0096,0.0,0.0,0.0,0.0,0.0,0.0,-0.004,-0.0239,-0.1149,-0.147,-0.1998,-0.3818,-0.433,-0.4572,-0.5348,-0.5436,-0.5312,0.0,-0.4694,-0.452,-0.4662,0.0,-0.4706,-0.4843,-0.5048,-0.5321,-0.5656,-0.5841,-0.5918,-0.6016,-0.5898,-0.5745,-0.5682,-0.5521,-0.5752,-0.64,-0.6494,-0.6789,-0.7405,-0.787,-0.7862,-0.7335,-0.7451,0.0,0.0,0.0,0.0,0.0,0.0,0.0,0.0,0.0,0.0,0.0,0.0,0.0,0.0,0.0,0.0,0.0,0.0,0.0,0.0,0.0,0.0,0.0,0.0,0.0,0.0,0.0,0.0,1.3707,1.4238,0.0,1.3785,1.3906,1.3826,1.3431,1.284,1.2062,1.1095,1.0294,0.9591,0.9043,0.8994,0.9069,0.9222,0.9225,0.9174,0.9076,0.9076,0.9028,0.8885,0.8885,0.8885,0.8885,0.8885,0.8885,0.8875,0.8821,0.8491,0.7928,0.7113,0.6291,0.5416,0.3673,0.2732,0.2144,0.0854,0.0398,0.0343,0.0098,0.0,0.0,0.0,0.0,0.0,0.0,0.0,-0.0086,-0.0397,-0.0932,-0.1554,-0.2282,-0.3403,-0.4378,-0.4656,-0.5079,-0.5385,-0.526,-0.4925,-0.4662,-0.4749,-0.464,-0.4655,-0.4853,-0.5045,-0.526,-0.5641,-0.5729,-0.5818,-0.5996,-0.5813,-0.5644,-0.5593,-0.5484,-0.5491,-0.5752,-0.6174,-0.6498,-0.6761,-0.7343,-0.7612,-0.7549,-0.7296,-0.6726,0.0,0.0,0.0,0.0,0.0,0.0,0.0,0.0,0.0,0.0,0.0,0.0,0.0,0.0,0.0,0.0,0.0,0.0,0.0,0.0,0.0,0.0,0.0,0.0,0.0,1.291,1.3719,1.425,1.4865,1.5101,1.4739,1.495,1.499,1.467,1.4217,1.3507,1.2467,1.1449,1.0575,0.9902,0.951,0.9337,0.9381,0.9381,0.9361,0.921,0.921,0.9079,0.8885,0.8885,0.8885,0.8885,0.8885,0.8885,0.8885,0.8885,0.8824,0.8669,0.7863,0.7318,0.6741,0.4632,0.3523,0.2897,0.1237,0.0612,0.0504,0.0199,0.0145,0.014,0.0047,0.0,0.0,0.0,0.0,0.0,0.0,-0.0449,-0.0987,-0.1346,-0.2362,-0.35,-0.412,-0.4581,-0.4976,-0.5267,-0.506,-0.48,-0.4844,-0.4762,-0.472,-0.4913,-0.4991,-0.5194,-0.5531,-0.5529,-0.5557,-0.5701,-0.559,-0.5497,-0.5446,-0.542,-0.5395,-0.5395,-0.5815,-0.6075,-0.6075,-0.6672,-0.7124,-0.735,-0.7208,-0.6942,-0.6526,0.0,0.0,0.0,0.0,0.0,0.0,0.0,0.0,0.0,0.0,0.0,0.0,0.0,0.0,0.0,0.0,0.0,0.0,0.0,0.0,0.0,0.0,0.0,1.3041,1.3833,1.4521,1.5071,1.5819,1.6097,1.5596,1.626,1.6157,1.4778,1.4914,1.4524,1.3312,1.206,1.138,1.1331,1.0135,0.9446,0.9395,0.9395,0.9317,0.9217,0.9217,0.9083,0.8885,0.8885,0.8885,0.8885,0.8885,0.8885,0.8885,0.8885,0.8885,0.8885,0.8885,0.8185,0.7018,0.5778,0.4521,0.3152,0.1727,0.101,0.0758,0.0505,0.0394,0.0334,0.0095,0.0,0.0,0.0,0.0,0.0,0.0,0.0,-0.0225,-0.1121,-0.1368,-0.1866,-0.3639,-0.3974,-0.4131,-0.4985,-0.5054,-0.5018,-0.5018,-0.5018,-0.5015,-0.5012,-0.5012,0.0,-0.527,-0.5156,-0.5103,-0.5198,-0.524,-0.5242,-0.51,-0.5292,-0.5395,-0.5395,-0.5395,-0.5395,-0.5395,-0.5892,-0.6342,-0.6717,-0.7279,-0.7576,-0.7595,0.0,0.0,0.0,0.0,0.0,0.0,0.0,0.0,0.0,0.0,0.0,0.0,0.0,0.0,0.0,0.0,0.0,0.0,0.0,0.0,0.0,1.2693,1.3586,1.3924,1.4503,1.5083,1.5614,1.6211,1.6604,1.6652,1.7026,1.7044,1.6433,1.648,1.5909,1.4586,1.4174,1.3222,1.1516,1.1114,1.0532,0.9696,0.97,0.9571,0.9317,0.9317,0.9184,0.8885,0.8885,0.8885,0.8885,0.8885,0.8885,0.8885,0.8885,0.8885,0.8885,0.8885,0.8692,0.8249,0.6967,0.499,0.2841,0.1626,0.101,0.0758,0.0505,0.0394,0.0334,0.0095,0.0,0.0,0.0,0.0,0.0,0.0,0.0,-0.0045,-0.0308,-0.0917,-0.1557,-0.2041,-0.3062,-0.397,-0.4214,-0.4656,-0.5018,-0.5018,-0.5018,-0.4949,-0.486,-0.4847,0.0,-0.5061,-0.4937,-0.4912,-0.5227,-0.5201,-0.5132,-0.509,-0.5292,-0.5326,-0.519,-0.5326,-0.5395,-0.5395,-0.5552,-0.6061,-0.6971,-0.7058,-0.7257,0.0,0.0,0.0,0.0,0.0,0.0,0.0,0.0,0.0,0.0,0.0,0.0,0.0,0.0,0.0,0.0,0.0,0.0,0.0,0.0,0.0,0.0,1.3845,1.4745,1.5234,1.5481,1.5807,1.6332,1.6863,1.7298,1.7569,1.7732,1.7708,1.7443,1.7418,1.7007,1.6103,1.5569,1.4639,1.324,1.2124,1.1283,1.0604,1.0002,0.9615,0.9381,0.9317,0.9164,0.8885,0.8885,0.8885,0.0,0.8885,0.8885,0.8885,0.8885,0.8885,0.0,0.0,0.0,0.0,0.0,0.482,0.2863,0.1774,0.1263,0.1111,0.0808,0.0738,0.0668,0.0286,0.0186,0.0135,0.0045,0.0,0.0,0.0,0.0,0.0,0.0,-0.0435,-0.0897,-0.1264,-0.2128,-0.3034,-0.3713,-0.4187,0.0,-0.4937,-0.4936,-0.4895,-0.4876,-0.4822,-0.4788,-0.4919,-0.4758,-0.4714,-0.4957,-0.4904,-0.4891,-0.4891,-0.506,0.0,0.0,0.0,-0.5266,-0.5267,-0.5524,0.0,0.0,0.0,0.0,0.0,0.0,0.0,0.0,-0.7994,-0.7958,0.0,0.0,0.0,0.0,0.0,0.0,0.0,0.0,0.0,0.0,0.0,0.0,0.0,0.0,0.0,0.0,1.5065,1.5861,1.6634,1.6622,1.6694,1.7129,1.7618,1.8034,1.8312,1.8366,1.8251,1.7943,1.7919,1.7793,1.7497,0.0,0.0,0.0,0.0,1.186,1.1659,1.0327,0.9523,0.9354,0.9275,0.9079,0.8885,0.8885,0.8885,0.8885,0.8885,0.8885,0.8885,0.8885,0.8885,0.8881,0.8865,0.8818,0.8378,0.612,0.4497,0.3224,0.217,0.0,0.0,0.131,0.1179,0.1096,0.0571,0.0416,0.0359,0.009,0.0045,0.0,0.0,0.0,0.0,0.0,0.0,-0.021,-0.1002,-0.1211,-0.1722,-0.3246,-0.3675,-0.4027,-0.474,-0.4849,-0.4849,-0.4944,-0.4838,-0.4723,-0.4744,-0.4594,-0.4484,-0.4519,0.0,0.0,-0.4592,-0.4728,-0.4861,-0.5024,-0.5087,-0.5098,-0.513,-0.5661,-0.6322,-0.7204,-0.7741,-0.8511,-0.9516,-0.9516,-0.9516,-0.9492,-0.8519,-0.8327,0.0,0.0,0.0,0.0,0.0,0.0,0.0,0.0,0.0,0.0,0.0,0.0,0.0,0.0,0.0,1.4805,1.5614,1.6338,1.693,1.7533,1.7859,1.7738,1.801,1.8318,1.8583,1.8801,1.8728,1.8251,1.8215,1.7998,1.7509,1.7244,1.6644,1.5634,1.4083,1.2751,1.1533,1.0269,0.9469,0.9255,0.0,0.0,0.8885,0.8885,0.8885,0.8885,0.8885,0.8885,0.8885,0.8885,0.8885,0.8871,0.8804,0.8662,0.8345,0.6921,0.5563,0.4325,0.3274,0.2321,0.1562,0.129,0.1215,0.1141,0.0748,0.0549,0.0,0.0359,0.018,0.0,0.0,0.0,0.0,0.0,0.0,-0.0042,-0.0201,-0.079,-0.141,-0.1723,-0.2893,-0.383,-0.3988,-0.4564,-0.4917,-0.4841,-0.4746,-0.4662,-0.4586,-0.442,-0.4397,-0.4562,-0.4606,-0.4592,-0.4592,-0.4728,-0.4761,-0.4691,-0.4954,-0.5176,-0.5351,-0.5446,-0.6094,-0.7325,-0.7487,-0.8189,-0.9516,-0.9516,-0.9516,-0.951,-0.9274,-0.9232,0.0,0.0,0.0,0.0,0.0,0.0,0.0,0.0,0.0,0.0,0.0,1.3079,1.361,0.0,1.4968,1.5777,1.6453,1.7074,1.7618,1.8155,1.839,1.8118,1.8438,1.8734,1.8867,1.8879,1.8716,1.8324,1.8167,1.7907,1.7503,1.7485,1.7185,1.6585,1.4679,1.3323,1.247,1.0461,0.9381,0.921,0.9079,0.9008,0.8885,0.8885,0.8885,0.8885,0.8885,0.8885,0.8885,0.8885,0.8838,0.8808,0.8655,0.855,0.8347,0.7049,0.6131,0.5379,0.3775,0.2856,0.2284,0.1625,0.1396,0.1313,0.0974,0.0821,0.0718,0.0448,0.0314,0.018,0.0045,0.0,0.0,0.0,0.0,0.0,0.0,-0.0356,-0.0784,-0.1215,-0.1957,-0.2817,-0.3675,-0.4069,-0.4426,-0.4849,-0.467,-0.4531,-0.4588,-0.4409,-0.4334,-0.4431,-0.4464,-0.4464,-0.4464,-0.4595,-0.4694,-0.4694,-0.4957,-0.519,-0.5395,-0.5395,-0.5885,-0.6892,-0.7218,-0.7939,-0.8985,-0.935,-0.9516,-0.9516,-0.9516,-0.9516,0.0,0.0,0.0,0.0,0.0,0.0,0.0,1.2134,1.2525,1.3059,1.3725,1.4346,1.4787,1.5294,1.5879,1.6585,1.7183,1.7732,1.8227,1.8517,1.8607,1.8396,1.874,1.9,1.9,1.8764,1.8499,1.8233,1.8004,1.7756,1.7497,1.7485,1.7485,1.7485,1.4994,1.3558,1.334,1.0674,0.9262,0.9166,0.8994,0.8885,0.8885,0.8885,0.8885,0.8885,0.8885,0.8885,0.8885,0.8885,0.8794,0.8696,0.854,0.8465,0.8304,0.7125,0.6587,0.6134,0.4176,0.3383,0.3033,0.1954,0.1525,0.148,0.1243,0.1136,0.1031,0.0628,0.0493,0.0404,0.0135,0.009,0.0044,0.0,0.0,0.0,0.0,0.0,-0.0196,-0.0902,-0.1176,-0.172,-0.307,-0.3467,-0.3896,-0.4809,-0.461,-0.4401,-0.4627,-0.4465,-0.43,-0.43,-0.43,-0.43,-0.43,-0.4464,-0.4595,-0.4761,-0.4924,-0.5123,-0.5326,-0.5395,-0.5719,-0.6396,-0.6924,-0.7647,-0.849,-0.9049,-0.9382,-0.9516,-0.9516,-0.9516,0.7712,0.8263,0.8845,0.9749,0.9728,1.0126,0.0,1.2862,1.3015,1.4535,1.5095,1.5342,1.5403,1.5843,1.6308,1.6646,1.7334,1.7937,1.8251,1.8517,1.8674,1.8644,1.8692,1.8728,1.8728,1.8493,1.8221,1.7943,1.7895,1.7756,1.7497,1.7485,1.7485,1.7485,1.4833,1.3393,1.3231,1.055,0.9106,0.8905,0.8892,0.8885,0.8885,0.8885,0.8885,0.8885,0.8885,0.8885,0.8885,0.8885,0.8794,0.8696,0.854,0.8404,0.8272,0.7952,0.7238,0.6234,0.5027,0.3975,0.3027,0.1875,0.1508,0.1476,0.1403,0.1258,0.1076,0.1031,0.0852,0.0628,0.0404,0.0354,0.0304,0.0042,0.0,0.0,0.0,0.0,-0.0039,-0.0118,-0.0784,-0.1362,-0.156,-0.2598,-0.3756,-0.4686,-0.4624,-0.4495,-0.4523,-0.4379,-0.43,-0.43,-0.43,-0.43,-0.43,-0.4334,-0.4431,-0.4625,-0.4761,-0.4927,-0.512,-0.5292,-0.5719,-0.6396,-0.6465,-0.7181,-0.849,-0.8587,-0.892,-0.9516,-0.9516,-0.9516,0.7649,0.8005,0.8432,0.9338,0.9549,1.0013,1.1742,1.2586,1.3299,1.4156,1.5065,1.5728,1.5728,1.6163,1.6616,1.6881,1.7461,1.8028,1.8463,1.8342,1.8269,1.8438,1.8179,1.8106,1.8426,1.8209,1.7998,1.7883,1.7732,1.7599,1.7491,1.7485,1.7485,1.7485,1.4801,1.3355,1.3198,1.0523,0.9083,0.8885,0.8885,0.8885,0.8885,0.8885,0.8885,0.8885,0.8885,0.8885,0.8885,0.8885,0.8798,0.857,0.8506,0.834,0.813,0.8012,0.7739,0.7176,0.6005,0.4933,0.3885,0.2685,0.194,0.1452,0.1394,0.1345,0.1256,0.1121,0.1031,0.0894,0.0619,0.0482,0.0345,0.0208,0.0082,0.0,0.0,0.0,0.0,0.0,-0.0275,-0.0704,-0.1199,-0.1718,-0.2337,-0.3209,-0.3923,-0.4395,-0.4495,-0.4371,-0.43,-0.43,-0.43,-0.43,-0.43,-0.43,-0.4398,-0.4592,-0.4728,-0.4894,-0.5087,-0.5292,-0.5524,-0.5818,-0.6203,-0.6887,-0.7869,-0.8296,-0.885,-0.9516,-0.9516,-0.9516,0.758,0.7767,0.8094,0.8818,0.9229,0.9736,1.081,1.1907,1.2793,1.3324,1.4461,1.5405,1.5405,1.6053,1.667,1.6942,1.7424,1.7925,1.8396,1.8058,1.7841,1.8046,1.7593,1.7449,1.7919,1.7841,1.7768,1.7768,1.7587,1.7485,1.7485,1.7485,1.7485,1.7485,1.5099,1.3644,1.3198,1.0811,0.9374,0.8885,0.8885,0.8885,0.8885,0.8885,0.8885,0.8885,0.8885,0.8885,0.8885,0.8885,0.8781,0.854,0.8499,0.8326,0.8099,0.8005,0.7988,0.7816,0.664,0.5552,0.4501,0.3302,0.2234,0.1391,0.1391,0.1391,0.139,0.1211,0.1166,0.1116,0.0831,0.0693,0.0513,0.0329,0.0203,0.008,0.0,0.0,0.0,0.0,0.0,-0.0195,-0.0847,-0.1045,-0.1305,-0.1891,-0.2962,-0.3785,-0.4098,-0.4248,-0.43,-0.43,-0.43,-0.43,-0.43,-0.43,-0.4367,-0.4495,-0.4661,-0.4827,-0.5024,-0.5226,-0.5326,-0.5395,-0.5881,-0.647,-0.712,-0.7837,-0.8554,-0.9215,-0.942,-0.9516,0.7634,0.7923,0.834,0.848,0.8743,0.9244,1.0433,1.0761,1.1093,1.2186,1.3393,1.4272,1.4272,1.5404,1.6386,1.667,1.7153,1.7587,1.7859,1.7666,1.7497,1.7503,1.7044,1.6833,0.0,1.7346,1.7497,1.7497,1.7485,1.7485,1.7485,1.7485,1.7485,1.7485,1.5811,1.4406,1.3198,1.1518,1.008,0.8885,0.8885,0.8885,0.8885,0.8885,0.8885,0.8885,0.8885,0.8885,0.8885,0.8885,0.8845,0.8689,0.854,0.8391,0.8245,0.8096,0.7988,0.7816,0.664,0.5552,0.4501,0.3302,0.2234,0.1391,0.1391,0.1391,0.1391,0.1391,0.1391,0.1339,0.105,0.0985,0.088,0.0409,0.028,0.0236,0.0039,0.0,0.0,0.0,0.0,0.0,-0.0037,-0.062,-0.1111,-0.1121,-0.1714,-0.2415,-0.3153,-0.3861,-0.43,-0.43,-0.43,-0.43,-0.43,-0.43,-0.43,-0.43,-0.4498,-0.4661,-0.4797,-0.499,-0.519,-0.5395,-0.5428,-0.5752,-0.6429,-0.7088,-0.7809,-0.8554,-0.9183,-0.9516,0.7977,0.8225,0.8445,0.8598,0.8788,0.8992,0.9427,1.0131,1.0836,1.1214,1.2856,1.4223,1.4223,1.5338,1.6374,1.6658,1.6996,1.7376,1.7811,1.7648,1.7418,1.7243,1.7219,0.0,0.0,0.0,0.0,1.7455,1.7322,1.7298,1.7473,1.7485,1.7406,1.7231,1.5778,1.4327,1.2936,1.1449,1.0076,0.8885,0.8885,0.8885,0.8885,0.8885,0.8885,0.8885,0.8885,0.8885,0.8885,0.8885,0.8791,0.8554,0.8503,0.8333,0.8109,0.8008,0.7988,0.7918,0.7424,0.6559,0.5489,0.4318,0.3232,0.2285,0.1614,0.1391,0.1391,0.1391,0.1391,0.1379,0.1247,0.1101,0.0959,0.0763,0.0513,0.0275,0.0196,0.0079,0.0,0.0,0.0,0.0,0.0,-0.0224,-0.0537,-0.1017,-0.1678,-0.238,-0.3115,-0.3418,-0.3756,-0.4233,-0.43,-0.43,-0.43,-0.43,-0.43,-0.43,-0.4495,-0.4661,-0.4797,-0.499,-0.519,-0.5395,-0.5395,-0.5719,-0.64,-0.6629,-0.7344,-0.849,-0.8721,-0.9087,0.8306,0.8533,0.8679,0.8832,0.8984,0.9069,0.8908,0.9478,1.0061,1.0,1.1446,1.2893,1.327,1.4384,1.5523,1.6409,1.6694,1.702,1.7648,1.7509,1.728,1.7111,1.7159,1.7111,1.6863,1.6754,0.0,1.7443,1.7328,1.7304,1.7473,1.7485,1.7364,1.7098,1.6142,1.4695,1.2831,1.1803,1.0511,0.8885,0.8885,0.8885,0.8885,0.8885,0.8885,0.8885,0.8885,0.8885,0.8878,0.8824,0.8743,0.8554,0.8448,0.8289,0.8116,0.8008,0.7988,0.7961,0.7804,0.7048,0.6045,0.5197,0.4025,0.2778,0.2152,0.1704,0.1391,0.1391,0.1391,0.1377,0.1321,0.1221,0.1083,0.0914,0.0707,0.0471,0.0314,0.0196,0.0079,0.0,0.0,0.0,0.0,0.0,-0.0177,-0.0644,-0.1076,-0.1712,-0.2681,-0.3049,-0.3384,-0.3859,-0.4131,-0.43,-0.43,-0.43,-0.43,-0.43,-0.4431,-0.4561,-0.4728,-0.4858,-0.5024,-0.5292,-0.5292,-0.5554,-0.6042,-0.6268,-0.6985,-0.8102,-0.8393,-0.8856,0.8604,0.8838,0.8994,0.9187,0.9323,0.9296,0.9011,0.8885,0.8828,0.873,0.947,1.0483,1.1494,1.2526,1.3874,1.588,1.6229,1.6524,1.7388,1.7298,1.7147,1.7135,1.6936,1.6881,1.7092,1.6899,1.696,1.7449,0.0,1.7473,1.7485,1.7485,1.7358,1.708,1.6833,1.5423,1.2817,1.2402,1.1114,0.8885,0.8885,0.8885,0.8885,0.8885,0.8885,0.8885,0.8885,0.8885,0.8871,0.8774,0.8706,0.8669,0.8384,0.8316,0.8241,0.8092,0.7988,0.7948,0.7702,0.7026,0.6225,0.5848,0.452,0.3045,0.2913,0.224,0.148,0.1436,0.1391,0.1377,0.1321,0.1305,0.1249,0.0993,0.0904,0.0786,0.0432,0.0314,0.0236,0.0039,0.0,0.0,0.0,0.0,0.0,0.0,0.0,-0.0505,-0.1913,-0.2714,-0.3182,-0.3251,-0.3892,-0.43,-0.43,-0.43,-0.43,-0.43,-0.43,-0.4398,-0.4592,-0.4592,-0.4758,-0.5087,-0.5087,-0.519,-0.5395,-0.6042,-0.6695,-0.7354,-0.8102,-0.8818,0.8763,0.9069,0.9276,0.9313,0.9323,0.9248,0.9117,0.8927,0.8723,0.857,0.9346,1.0058,1.0132,1.1344,1.2879,1.4562,1.5091,1.5886,1.7541,1.7895,1.7913,1.7702,1.7974,1.7968,1.7436,1.7497,1.7545,0.0,1.7298,1.728,1.7473,1.7485,1.7274,1.6815,1.6736,1.5344,1.2552,1.07,0.9482,0.8885,0.8885,0.8885,0.8885,0.8885,0.8885,0.8885,0.8885,0.8885,0.8871,0.8774,0.8645,0.8523,0.834,0.8201,0.8092,0.8005,0.7988,0.7948,0.7702,0.7456,0.7092,0.6173,0.5472,0.4739,0.3314,0.2732,0.2376,0.1614,0.1391,0.1377,0.1321,0.1305,0.1291,0.1232,0.1061,0.0864,0.0786,0.051,0.0275,0.0236,0.0118,0.0,0.0,0.0,0.0,0.0,0.0,-0.0505,-0.1913,-0.2281,-0.2817,-0.3894,-0.4197,-0.43,-0.43,-0.43,-0.43,-0.43,-0.43,-0.4398,-0.4592,-0.4592,-0.4758,-0.5087,-0.5087,-0.519,-0.5395,-0.5557,-0.6013,-0.6662,-0.7349,-0.8069,0.9157,0.9354,0.9466,0.9398,0.9317,0.9241,0.8972,0.873,0.8513,0.8167,0.8508,0.894,0.9178,1.0084,1.1288,1.2899,1.4121,1.5302,1.6753,1.763,1.8094,1.8058,1.833,1.8287,1.7708,1.7787,1.7768,1.7503,1.7346,1.7328,1.7473,1.7376,1.7123,1.6712,1.6579,1.5198,1.2417,1.008,0.8885,0.8885,0.8885,0.8885,0.8885,0.8885,0.8885,0.8885,0.0,0.8844,0.8825,0.8672,0.8523,0.8374,0.8228,0.8116,0.7988,0.7988,0.7988,0.7948,0.7702,0.76,0.747,0.6694,0.6084,0.5408,0.3979,0.3223,0.2688,0.1704,0.1381,0.1405,0.1317,0.1296,0.1316,0.1308,0.1178,0.1061,0.0943,0.0707,0.051,0.0353,0.0157,0.0,0.0,0.0,0.0,0.0,0.0,-0.041,-0.1513,-0.1913,-0.2549,-0.3692,-0.4097,-0.43,-0.43,-0.43,-0.43,-0.43,-0.43,-0.4364,-0.4464,-0.4461,-0.4595,-0.4891,-0.4924,-0.5057,-0.5259,-0.5359,-0.5752,-0.64,-0.6793,-0.7512,0.95,0.9625,0.9602,0.9449,0.9398,0.9228,0.8645,0.8465,0.8262,0.7689,0.7431,0.7576,0.8281,0.8738,0.9502,1.1191,1.2913,1.4463,1.5531,1.6683,1.7623,1.8306,1.8219,1.8049,1.7956,1.7895,1.7768,1.7503,1.7485,1.7485,1.7485,1.7237,1.6954,1.6658,1.6093,1.4685,1.2417,1.008,0.8885,0.8885,0.8885,0.8885,0.8885,0.8885,0.8885,0.8881,0.8861,0.0,0.8696,0.8523,0.8381,0.8255,0.8099,0.7988,0.7988,0.7988,0.7978,0.7921,0.7695,0.7587,0.7522,0.7189,0.6564,0.5719,0.4779,0.3846,0.2865,0.1877,0.1498,0.1382,0.1308,0.1281,0.1295,0.1304,0.1296,0.1218,0.1021,0.0943,0.0786,0.0393,0.0157,0.0039,0.0,0.0,0.0,0.0,0.0,-0.0278,-0.1017,-0.1615,-0.228,-0.3115,-0.3758,-0.4197,-0.43,-0.43,-0.43,-0.43,-0.43,-0.43,-0.43,-0.43,-0.4406,-0.4618,-0.4703,-0.4903,-0.5116,-0.5289,-0.5708,-0.6268,-0.6391,-0.7091,0.9554,0.9696,0.9751,0.9605,0.9473,0.9256,0.8781,0.8384,0.798,0.7509,0.7193,0.6999,0.7052,0.7427,0.8296,1.0004,1.085,1.233,1.5301,1.5173,1.5713,1.8304,1.7594,1.7241,1.8123,1.801,1.7768,0.0,1.7485,1.7485,1.7485,1.7237,1.6875,1.6392,1.4233,1.2831,1.2417,1.008,0.8885,0.8885,0.8885,0.8885,0.8885,0.8885,0.8885,0.8875,0.8804,0.0,0.8689,0.8418,0.8344,0.8255,0.8099,0.7988,0.7988,0.7988,0.7911,0.7828,0.7658,0.7516,0.738,0.7156,0.7007,0.6697,0.5761,0.4781,0.3831,0.2849,0.2002,0.1378,0.1324,0.1307,0.1295,0.1304,0.1296,0.1296,0.1257,0.1061,0.0786,0.0393,0.0275,0.0196,0.0039,0.0,0.0,0.0,0.0,-0.028,-0.1009,-0.1194,-0.1779,-0.3049,-0.3318,-0.3623,-0.4233,-0.43,-0.43,-0.43,-0.43,-0.43,-0.43,-0.43,-0.4414,-0.4683,-0.4647,-0.4846,-0.5267,-0.5302,-0.5413,-0.5594,-0.6255,-0.6691,0.9568,0.9713,0.9768,0.9547,0.9435,0.9201,0.8516,0.8083,0.775,0.7146,0.6844,0.6647,0.6498,0.6898,0.7573,0.8483,0.9622,1.1349,1.4114,1.4654,1.5639,1.8193,1.791,1.7613,1.804,1.7956,1.7768,1.7503,1.7485,1.7424,1.7286,1.6893,1.6489,1.6103,1.4272,1.3019,1.2417,1.0676,0.9537,0.8885,0.8885,0.8885,0.8885,0.8885,0.8885,0.8875,0.8777,0.0,0.8574,0.836,0.8221,0.8143,0.8019,0.7988,0.7982,0.7901,0.7875,0.778,0.7556,0.7434,0.7346,0.7146,0.7095,0.6918,0.5985,0.5406,0.4727,0.3273,0.2518,0.1996,0.1458,0.1303,0.1315,0.13,0.1296,0.1296,0.1296,0.11,0.0825,0.051,0.0353,0.0236,0.0039,0.0,0.0,0.0,0.0,-0.0142,-0.0492,-0.0514,-0.1076,-0.248,-0.2982,-0.3351,-0.3689,-0.4064,-0.43,-0.43,-0.43,-0.43,-0.43,-0.4357,-0.4449,-0.461,-0.4623,-0.476,-0.4994,-0.5126,-0.5225,-0.5263,-0.5818,-0.6264,0.9508,0.947,0.9382,0.9397,0.9357,0.9106,0.8187,0.7872,0.7522,0.6841,0.6556,0.6443,0.6361,0.6685,0.7078,0.7329,0.8653,1.0377,1.2525,1.3743,1.5234,1.7453,1.7739,1.7808,1.7895,1.7823,1.7702,1.7497,1.7376,1.7225,1.702,1.6549,1.6163,1.5897,1.4815,1.3619,1.2417,1.1273,1.0237,0.9261,0.9047,0.9047,0.9265,0.8992,0.8865,0.8824,0.8726,0.0,0.0,0.8282,0.815,0.7988,0.7988,0.7988,0.7971,0.7868,0.779,0.7729,0.7461,0.735,0.7302,0.7136,0.7095,0.6962,0.621,0.5852,0.5359,0.3648,0.2984,0.2558,0.1549,0.1298,0.1296,0.1296,0.1296,0.1296,0.1296,0.1139,0.0904,0.0707,0.051,0.0314,0.0118,0.0039,0.0,0.0,0.0,0.0,0.0,0.0,-0.0438,-0.1544,-0.2313,-0.2882,-0.3182,-0.3723,-0.4131,-0.43,-0.43,-0.43,-0.43,-0.4387,-0.4479,-0.4503,-0.4585,-0.4668,-0.4757,-0.4965,-0.5113,-0.5184,-0.5471,-0.5923,0.9209,0.8862,0.8288,0.916,0.9333,0.903,0.816,0.7712,0.7275,0.68,0.6478,0.6354,0.647,0.6538,0.676,0.7323,0.7626,0.8548,1.0563,1.1342,1.2739,1.558,1.6014,1.6502,1.7751,1.766,1.7509,1.7485,1.7044,1.6761,1.6736,1.6447,1.6163,1.5897,1.4815,1.3619,1.2417,1.1273,1.0617,1.0511,0.9427,0.9482,1.0511,0.9427,0.8807,0.8723,0.857,0.0,0.0,0.8126,0.8002,0.7988,0.7988,0.7988,0.7971,0.7868,0.7729,0.7597,0.7431,0.7278,0.7115,0.7102,0.7095,0.7095,0.7007,0.6384,0.5474,0.4407,0.3459,0.2549,0.1559,0.1282,0.1296,0.1296,0.1296,0.1296,0.1296,0.1296,0.1178,0.0943,0.0707,0.051,0.0314,0.0118,0.0,0.0,0.0,0.0,0.0,0.0,-0.0034,-0.0168,-0.0841,-0.1812,-0.3082,-0.3251,-0.3587,-0.4267,-0.43,-0.43,-0.43,-0.4311,-0.4363,-0.4503,-0.4402,-0.4525,-0.4892,-0.4952,-0.5161,-0.5451,-0.5622,-0.5835,0.9154,0.9088,0.8853,0.9181,0.9133,0.8828,0.8072,0.7628,0.7262,0.6675,0.6439,0.6317,0.6375,0.6453,0.661,0.7034,0.7156,0.8092,1.0652,1.1241,1.2578,1.567,1.6247,1.6704,1.7546,1.7545,1.7418,1.7255,1.6748,1.6447,1.6447,1.6193,1.6,1.5891,1.5458,1.4648,1.3511,1.3019,1.2417,1.1705,1.0566,1.0241,1.0668,0.9381,0.8767,0.8696,0.8459,0.0,0.0,0.8102,0.7988,0.7988,0.7988,0.7988,0.7961,0.7773,0.7648,0.7563,0.7316,0.7146,0.7095,0.7095,0.7095,0.7095,0.7095,0.683,0.6239,0.4685,0.3952,0.3276,0.1712,0.1294,0.1296,0.1296,0.1296,0.1296,0.1296,0.1296,0.1218,0.0943,0.0746,0.055,0.0353,0.0118,0.0,0.0,0.0,0.0,0.0,0.0,0.0,0.0,-0.0652,-0.1478,-0.2447,-0.3029,-0.3644,-0.4367,-0.4506,-0.4514,-0.444,-0.4509,-0.4569,-0.4616,-0.4572,-0.4629,-0.4836,-0.491,-0.5054,-0.5339,-0.5587,-0.58,0.8907,0.8943,0.8875,0.9134,0.9011,0.8632,0.7974,0.7546,0.7146,0.6627,0.6399,0.63,0.63,0.6381,0.6532,0.0,0.0,0.7683,0.9918,1.1,1.2435,1.4826,1.5965,1.6718,1.7092,1.7201,1.7141,1.6869,1.6495,1.6247,1.6169,1.5988,1.5891,1.5891,1.5998,1.5405,1.4223,1.4272,1.3835,1.2911,1.1433,1.0891,1.1156,0.9475,0.8686,0.8628,0.8381,0.0,0.0,0.8032,0.7988,0.7988,0.7988,0.7961,0.7891,0.7692,0.757,0.7495,0.7186,0.7095,0.7095,0.7095,0.7095,0.7095,0.7095,0.7095,0.6782,0.5181,0.4249,0.3415,0.1718,0.1296,0.1296,0.1296,0.1296,0.1296,0.1296,0.1296,0.1257,0.1061,0.0825,0.0628,0.051,0.0275,0.0079,0.0079,0.0038,0.0,0.0,0.0,0.0,0.0,-0.0458,-0.1067,-0.1754,-0.2589,-0.3393,-0.4134,-0.4497,-0.4649,-0.4564,-0.4643,-0.469,-0.469,-0.469,-0.475,-0.4795,-0.4859,-0.4981,-0.5236,-0.5479,-0.5714,0.8511,0.8184,0.7707,0.8903,0.893,0.8554,0.795,0.7419,0.697,0.6566,0.6399,0.63,0.63,0.6303,0.6351,0.6494,0.6729,0.0,0.7586,0.9979,1.1841,1.2212,1.465,1.629,1.6296,1.6543,1.6592,1.6308,1.6284,0.0,1.5903,1.5891,1.5891,1.5891,1.6164,1.5624,1.4223,1.4476,1.4476,1.4164,1.1819,1.1269,1.2299,0.985,0.8628,0.0,0.0,0.0,0.0,0.7988,0.7988,0.7988,0.7988,0.7897,0.7794,0.7651,0.7502,0.7353,0.7149,0.7095,0.7095,0.7095,0.7095,0.7095,0.7095,0.7095,0.6918,0.5941,0.4292,0.259,0.1556,0.128,0.1296,0.1296,0.1296,0.1296,0.1296,0.1296,0.1296,0.1296,0.1061,0.0904,0.0904,0.055,0.0314,0.0314,0.0115,0.0,0.0,0.0,0.0,0.0,0.0,-0.0328,-0.1056,-0.1856,-0.2617,-0.3378,-0.4215,-0.469,-0.4687,-0.469,-0.469,-0.469,-0.469,-0.475,-0.4795,-0.4795,-0.4969,-0.5315,-0.5318,-0.5512,0.7975,0.8001,0.7878,0.8052,0.8021,0.7821,0.7322,0.7055,0.6868,0.646,0.633,0.63,0.63,0.63,0.6446,0.6854,0.6967,0.7406,0.8532,0.9665,1.0773,1.1808,1.3272,1.4173,1.4173,0.0,1.521,1.5126,1.5675,1.5976,1.5891,1.6051,1.6164,1.6164,1.6057,1.5891,1.5624,1.5559,1.5458,1.5351,1.2909,1.1928,1.2186,0.977,0.8691,0.0,0.0,0.0,0.0,0.8283,0.8187,0.7988,0.7988,0.7897,0.7794,0.7651,0.7502,0.735,0.7149,0.7095,0.7095,0.7095,0.7095,0.7095,0.7095,0.7095,0.6782,0.5181,0.3815,0.2557,0.1544,0.1296,0.1296,0.1296,0.1296,0.1296,0.1296,0.1296,0.1296,0.1296,0.11,0.0904,0.0904,0.0668,0.0471,0.0314,0.0234,0.0155,0.0,0.0,0.0,0.0,0.0,-0.0303,-0.1024,-0.1921,-0.2759,-0.3509,-0.44,-0.4863,-0.4779,-0.4776,-0.4776,-0.4776,-0.4776,-0.4838,-0.492,-0.492,-0.5054,-0.5321,-0.5589,-0.5786,0.7697,0.7849,0.7925,0.7736,0.7693,0.7545,0.7101,0.6967,0.6812,0.6378,0.63,0.63,0.63,0.63,0.6419,0.6749,0.6902,0.7285,0.8286,0.9119,1.0213,1.1704,1.237,1.2766,0.0,1.3959,1.4543,1.444,1.5439,0.0,1.6051,1.6217,1.6377,1.6643,1.6483,1.6424,1.6477,1.6424,1.6215,1.5905,1.4026,1.2795,1.213,1.0266,0.9431,0.0,0.0,0.0,0.0,0.8627,0.8283,0.8137,0.8038,0.7864,0.7719,0.7725,0.7603,0.7455,0.7398,0.7319,0.7234,0.7234,0.7187,0.7095,0.7095,0.7095,0.6782,0.527,0.4118,0.3106,0.2102,0.1587,0.1296,0.1296,0.1296,0.1296,0.1296,0.1296,0.1296,0.1296,0.1178,0.1061,0.1061,0.0864,0.0668,0.055,0.0393,0.0236,0.0118,0.0039,0.0,0.0,0.0,-0.0194,-0.0639,-0.1518,-0.2372,-0.3139,-0.4037,-0.4629,-0.4868,-0.4866,-0.4866,-0.4866,-0.4866,-0.4903,-0.5018,-0.5018,-0.5054,-0.5207,-0.5515,-0.567,0.0,0.7745,0.7834,0.7823,0.7763,0.7581,0.7239,0.7097,0.0,0.6379,0.6282,0.6289,0.631,0.6306,0.632,0.6385,0.6576,0.6854,0.7115,0.8415,0.9945,1.1565,1.1762,1.1884,1.2236,1.3604,1.4363,1.4218,0.0,0.0,1.6324,1.6324,1.6643,1.7179,1.7232,1.706,1.673,1.7014,1.6773,1.5921,1.4995,1.3803,1.2279,1.1208,1.0714,0.0,0.0,0.0,0.0,0.9069,0.8531,0.8382,0.8137,0.7907,0.7691,0.7875,0.777,0.7547,0.7812,0.7724,0.7507,0.7507,0.7323,0.7095,0.7095,0.7095,0.6918,0.593,0.5023,0.4066,0.3056,0.207,0.1375,0.1296,0.1296,0.1296,0.1296,0.1296,0.1296,0.1296,0.1296,0.1296,0.1296,0.11,0.0904,0.0904,0.0589,0.0314,0.0314,0.0118,0.0,0.0,0.0,0.0,0.0,-0.0784,-0.1605,-0.2386,-0.3285,-0.4146,-0.4898,-0.4976,-0.5018,-0.5018,-0.5018,-0.5018,-0.5018,-0.5018,-0.5018,-0.5018,-0.5207,-0.5282,0.6817,0.0,0.7202,0.7163,0.7197,0.7208,0.0,0.6896,0.6737,0.638,0.6303,0.6339,0.6419,0.6371,0.6525,0.7173,0.7244,0.736,0.7722,0.8313,0.8929,0.9541,0.9647,1.0038,1.0996,1.2195,1.3334,1.4422,0.0,1.6377,1.6577,1.6855,1.7073,1.7179,1.7378,1.7378,1.7067,1.6902,1.6596,1.6161,1.4956,1.4061,1.3457,1.2379,1.1879,0.0,0.0,0.0,1.0685,1.0391,0.9657,0.8676,0.8627,0.8434,0.8153,0.82,0.804,0.7812,0.79,0.7856,0.7768,0.7547,0.7323,0.7095,0.7095,0.7095,0.6895,0.5825,0.5387,0.4797,0.3077,0.2444,0.208,0.1453,0.1296,0.1296,0.1296,0.1296,0.1296,0.1296,0.1296,0.1296,0.1296,0.1257,0.1139,0.0943,0.0825,0.0628,0.0353,0.0275,0.0157,0.0,0.0,0.0,0.0,-0.0784,-0.1371,-0.1567,-0.2973,-0.3871,-0.4068,-0.4659,-0.5018,-0.5018,-0.5018,-0.5018,-0.5018,-0.5018,-0.5018,-0.5018,-0.5207,-0.5282,0.6651,0.6849,0.7098,0.7045,0.7148,0.7204,0.7152,0.6976,0.673,0.6376,0.6281,0.63,0.6276,0.6376,0.662,0.7109,0.7292,0.76,0.8222,0.8449,0.8726,0.9075,0.8992,0.9154,0.0,1.1651,1.3053,0.0,0.0,1.6802,1.6902,1.712,1.7279,1.7378,1.7403,1.7336,1.7186,1.7016,1.6652,1.613,1.552,1.4751,1.3857,1.3423,1.3221,0.0,0.0,0.0,1.2344,1.1219,1.0391,0.9649,0.8988,0.856,0.8282,0.8347,0.8204,0.8072,0.8164,0.8164,0.7984,0.7635,0.7415,0.7279,0.7143,0.7051,0.6897,0.6294,0.5833,0.5245,0.4074,0.3467,0.2976,0.2546,0.2157,0.1845,0.1845,0.1571,0.1296,0.1296,0.1296,0.1296,0.1296,0.1296,0.1257,0.11,0.0982,0.0786,0.0471,0.0353,0.0236,0.0039,0.0,0.0,0.0,-0.0432,-0.0862,-0.1293,-0.2152,-0.301,-0.3752,-0.4226,-0.4621,-0.4979,-0.5018,-0.5018,-0.5018,-0.5018,-0.5018,-0.5018,-0.5129,-0.5168,0.6771,0.7029,0.7285,0.7195,0.7328,0.7462,0.7434,0.7184,0.6845,0.6433,0.638,0.6337,0.6122,0.6461,0.6766,0.6854,0.7231,0.7845,0.8663,0.8709,0.8876,0.9357,0.9103,0.0,0.921,1.1647,0.0,0.0,0.0,1.7232,1.7279,1.7279,1.7364,1.7515,1.7333,1.7159,1.7072,1.7112,1.6757,1.5967,1.6175,1.558,1.4196,1.4436,1.4538,1.449,0.0,0.0,1.4148,1.1999,1.0974,1.0716,0.9276,0.8581,0.8411,0.8432,0.8397,0.8292,0.852,0.8428,0.8113,0.7724,0.7547,0.7455,0.7248,0.7067,0.6919,0.6917,0.6299,0.5591,0.527,0.4565,0.3947,0.383,0.3132,0.2511,0.2511,0.1884,0.1296,0.1296,0.1296,0.1296,0.1296,0.1296,0.1296,0.1296,0.11,0.0904,0.0668,0.051,0.0314,0.0079,0.0039,0.0039,0.0,0.0,-0.0314,-0.1058,-0.1215,-0.2035,-0.3713,-0.3791,-0.4185,-0.4979,-0.5018,-0.5018,-0.5018,-0.5018,-0.5018,-0.5018,-0.5018,-0.5018,0.7017,0.7423,0.7607,0.7304,0.7474,0.7676,0.7518,0.7328,0.7039,0.6626,0.6624,0.6687,0.659,0.6759,0.7058,0.756,0.7916,0.8405,0.9016,0.8897,0.8876,0.9357,0.0,0.9372,1.0621,0.0,0.0,0.0,0.0,1.7279,1.7536,1.7529,1.7468,1.728,1.7226,1.6965,1.6462,1.6647,1.6607,1.6224,1.6273,1.6016,1.5493,1.554,1.5588,1.554,0.0,1.4914,1.4196,1.2926,1.1901,1.1005,0.9759,0.9151,0.8979,0.8798,0.8666,0.8564,0.8568,0.8428,0.8201,0.8113,0.7808,0.7522,0.7512,0.7368,0.7126,0.6866,0.661,0.6147,0.5258,0.494,0.4652,0.3949,0.3132,0.2511,0.2511,0.1884,0.1296,0.1296,0.1296,0.1296,0.1296,0.1296,0.1296,0.1296,0.1257,0.1139,0.0904,0.0825,0.0668,0.0275,0.0236,0.0196,0.0,0.0,-0.0039,-0.0196,-0.0902,-0.2035,-0.3713,-0.3791,-0.4185,-0.4979,-0.5018,-0.5018,-0.5018,-0.5018,-0.5018,-0.5018,-0.5018,-0.5018,0.6686,0.7123,0.7431,0.7227,0.7784,0.8284,0.8151,0.7809,0.7457,0.7126,0.6965,0.6859,0.6716,0.6956,0.7363,0.796,0.8313,0.8712,0.933,0.9215,0.9187,0.0,0.0,0.943,1.0135,0.0,0.0,0.0,0.0,0.0,1.7355,1.74,1.7266,1.6921,1.6811,1.6596,1.6279,1.6246,1.6166,1.6032,1.6032,1.5965,1.5784,1.5784,1.5784,1.5784,0.0,1.554,1.501,1.336,1.2362,1.17,0.994,0.9108,0.8926,0.8751,0.8633,0.8612,0.8612,0.852,0.8384,0.8245,0.8069,0.7866,0.7651,0.7458,0.7219,0.6906,0.6718,0.652,0.5863,0.5709,0.5592,0.5237,0.4499,0.3717,0.3288,0.2547,0.1806,0.1375,0.1296,0.1296,0.1296,0.1296,0.1296,0.1296,0.1296,0.1218,0.0943,0.0904,0.0746,0.0353,0.0314,0.0236,0.0,0.0,0.0,0.0,-0.0824,-0.1644,-0.2426,-0.2854,-0.3482,-0.4343,-0.4343,-0.4582,-0.5018,-0.5018,-0.5018,-0.5018,-0.5018,-0.5018,0.6541,0.6872,0.7207,0.733,0.7967,0.8572,0.8612,0.821,0.782,0.7638,0.7375,0.7161,0.6951,0.7278,0.7794,0.8445,0.8729,0.9085,0.9676,0.9625,0.9596,0.9871,0.9599,0.9434,0.0,0.0,0.0,0.0,0.0,0.0,1.7061,1.7099,1.6958,1.6613,1.6386,1.6239,1.6166,1.5945,1.5784,1.5784,1.5784,1.5784,1.5784,1.5784,1.5784,1.5784,1.5784,1.5744,1.5583,1.3706,1.2738,1.217,1.0158,0.91,0.8743,0.8617,0.8612,0.8612,0.8612,0.8612,0.8564,0.838,0.8217,0.8071,0.7854,0.7617,0.7424,0.709,0.6987,0.6842,0.6415,0.63,0.63,0.63,0.5631,0.4846,0.4222,0.3249,0.2315,0.1689,0.1414,0.1296,0.1296,0.1296,0.1296,0.1296,0.1296,0.1218,0.1021,0.0982,0.0864,0.0471,0.0432,0.0353,0.0079,0.0039,0.0,0.0,-0.0628,-0.1097,-0.1293,-0.1879,-0.2737,-0.3791,-0.3791,-0.4185,-0.5018,-0.5018,-0.5018,-0.5018,-0.5018,-0.5018,0.6993,0.7159,0.7305,0.7677,0.782,0.8004,0.8498,0.8206,0.7906,0.8176,0.8037,0.7762,0.7579,0.7902,0.847,0.9123,0.932,0.9581,1.0182,0.0,0.9871,1.0202,0.9761,0.0,0.0,0.0,0.0,0.0,0.0,0.0,1.6754,1.674,1.6607,1.6362,1.6335,1.6139,1.5865,1.5791,1.5784,1.5784,1.5784,1.5784,1.5784,1.5784,1.5784,1.5784,1.5784,1.5678,1.5332,1.4186,1.3043,1.1925,1.0614,0.9486,0.8629,0.8616,0.8612,0.8612,0.8612,0.8612,0.8612,0.8568,0.8277,0.7967,0.8164,0.7998,0.769,0.7638,0.7514,0.7192,0.6493,0.63,0.63,0.63,0.5631,0.5002,0.4927,0.364,0.247,0.2433,0.1805,0.1296,0.1296,0.1296,0.1296,0.1296,0.1296,0.1296,0.1257,0.1257,0.1178,0.0904,0.0864,0.0707,0.0314,0.0118,0.0,0.0,-0.0039,-0.0471,-0.1254,-0.1371,-0.2152,-0.3752,-0.3791,-0.4185,-0.5018,-0.5018,-0.5018,-0.5018,-0.5018,-0.5018,0.6531,0.6883,0.7219,0.7395,0.7849,0.8416,0.88,0.8644,0.8503,0.8739,0.8605,0.8375,0.8421,0.8635,0.8929,0.925,0.9408,0.9643,1.0241,1.0202,1.0104,1.0105,0.0,0.0,0.0,0.0,0.0,0.0,0.0,0.0,1.6453,1.6433,1.6306,1.6005,1.5999,1.5945,1.5784,1.5784,1.5784,1.5784,1.5784,1.5784,1.5784,1.5784,1.5784,1.5771,1.5638,1.5498,1.5285,1.4068,1.32,1.2539,1.1367,0.9925,0.8656,0.9213,0.9087,0.8612,0.8612,0.8612,0.8612,0.8612,0.8476,0.8292,0.8144,0.7986,0.7808,0.7473,0.7328,0.7168,0.6742,0.656,0.6451,0.6338,0.6064,0.567,0.5121,0.4496,0.3756,0.2705,0.2237,0.1884,0.1375,0.1296,0.1296,0.1296,0.1296,0.1296,0.1296,0.1296,0.1178,0.0943,0.0786,0.0589,0.0314,0.0236,0.0118,0.0,0.0,-0.0157,-0.0471,-0.051,-0.1058,-0.2231,-0.2737,-0.3402,-0.4265,-0.474,-0.5018,-0.5018,-0.5018,-0.5018,0.6282,0.6676,0.7167,0.7281,0.7898,0.8617,0.9145,0.9065,0.9014,0.933,0.9035,0.8849,0.9037,0.9,0.9083,0.0,0.9576,0.9758,1.026,1.0291,1.0212,0.0,0.0,0.0,0.0,0.0,0.0,0.0,0.0,0.0,0.0,1.6132,1.6039,1.5791,1.5784,1.5784,1.5784,1.5784,1.5784,1.5784,1.5784,1.5784,1.5784,1.5784,1.5731,1.5678,1.5484,1.5291,1.5058,1.4122,1.3427,1.2822,1.1429,1.012,0.9087,0.9689,0.9345,0.8612,0.8612,0.8612,0.86,0.8543,0.8522,0.8422,0.8109,0.8012,0.7922,0.7565,0.7418,0.7328,0.7048,0.6799,0.6563,0.6335,0.63,0.6141,0.5553,0.5201,0.4652,0.3524,0.2862,0.2314,0.1766,0.1453,0.1296,0.1296,0.1296,0.1296,0.1296,0.1296,0.1218,0.1061,0.0825,0.0628,0.051,0.0432,0.0314,0.0118,0.0079,0.0079,0.0,0.0,-0.0392,-0.1293,-0.184,-0.266,-0.3791,-0.4343,-0.474,-0.5018,-0.5018,-0.5018,0.6469,0.6684,0.7077,0.7437,0.7898,0.8536,0.9425,0.9385,0.933,0.9887,0.9432,0.9005,0.9411,0.9078,0.9032,1.0028,0.9899,0.9853,1.035,1.0274,1.0212,0.0,0.0,0.0,0.0,0.0,0.0,0.0,0.0,0.0,0.0,1.5784,1.5784,1.5784,1.5778,1.5778,1.5778,1.5771,1.5771,1.5771,1.5771,1.5778,1.5784,1.5778,1.5665,1.5398,1.5391,1.5057,1.4522,1.4516,1.3775,1.2528,1.0679,0.9946,0.9903,0.9903,0.9345,0.8612,0.8612,0.8612,0.858,0.8353,0.8292,0.8256,0.8069,0.8012,0.8012,0.8012,0.789,0.7756,0.7469,0.6988,0.6563,0.6335,0.63,0.63,0.63,0.5631,0.5004,0.5004,0.364,0.2511,0.2511,0.1846,0.1296,0.1296,0.1296,0.1296,0.1296,0.1296,0.1296,0.1296,0.1061,0.0904,0.0904,0.0707,0.051,0.0314,0.0314,0.0196,0.0,0.0,-0.0392,-0.1254,-0.1293,-0.2113,-0.3791,-0.3791,-0.4226,-0.4979,-0.4979,-0.5018,0.6399,0.6863,0.742,0.7657,0.8408,0.9145,0.9535,0.9522,0.9556,1.0124,0.9838,0.9567,0.9936,0.9622,0.0,0.9937,0.9914,0.9927,1.0217,1.0249,0.0,0.0,0.0,0.0,0.0,0.0,0.0,0.0,0.0,0.0,0.0,1.5784,1.5784,1.5784,1.5631,1.5524,1.5524,1.5317,1.5217,1.5217,1.5217,1.5431,1.5771,1.5618,1.5478,1.5378,1.4957,1.4683,1.4502,1.4302,1.3638,1.2705,1.279,1.1623,0.999,1.0636,0.9907,0.8612,0.8612,0.8612,0.8604,0.8547,0.8398,0.8256,0.8069,0.7927,0.7877,0.7877,0.7743,0.7555,0.7434,0.7227,0.6949,0.6602,0.6412,0.63,0.63,0.6103,0.5747,0.5121,0.4613,0.3873,0.2705,0.2315,0.1962,0.1375,0.1296,0.1296,0.1296,0.1296,0.1296,0.1296,0.1218,0.11,0.0904,0.0864,0.0707,0.051,0.0393,0.0196,0.0,0.0,-0.0118,-0.0392,-0.098,-0.1528,-0.2035,-0.3207,-0.391,-0.4185,-0.474,-0.5018,0.6686,0.7204,0.7772,0.8097,0.8723,0.9336,0.9657,0.9766,0.9904,1.0239,0.9932,0.9689,1.0003,0.9718,0.0,0.9855,0.9827,0.9847,1.0026,0.9994,0.0,0.0,0.0,0.0,0.0,0.0,0.0,0.0,0.0,0.0,0.0,1.5718,1.5658,1.5658,1.5378,1.5224,1.5224,1.5095,1.5008,1.5008,1.5008,1.515,1.5478,1.5304,1.5164,1.5023,1.4549,1.4349,1.4292,1.3766,1.344,1.3264,1.3483,1.2491,1.1025,1.1241,1.0376,0.9087,0.874,0.8612,0.8588,0.8394,0.8321,0.8227,0.7902,0.7784,0.7784,0.771,0.7608,0.7508,0.7458,0.7332,0.7107,0.6679,0.6525,0.6412,0.63,0.63,0.6141,0.5631,0.5237,0.4691,0.368,0.294,0.2353,0.1845,0.1492,0.1301,0.1313,0.1304,0.1301,0.1314,0.1304,0.1228,0.1089,0.1042,0.096,0.0767,0.0641,0.0478,0.0279,0.0118,0.0,0.0,-0.051,-0.0941,-0.1293,-0.2309,-0.2973,-0.3324,-0.4148,-0.454,0.7175,0.761,0.8142,0.8686,0.8999,0.9295,0.9774,1.0014,1.0188,1.0371,0.9924,0.9634,0.9833,0.9546,0.9383,0.9785,0.973,0.9685,0.9839,0.9726,0.0,0.0,0.0,0.0,0.0,0.0,0.0,0.0,0.0,0.0,0.0,1.5504,1.5357,1.5357,1.5122,1.4968,1.4968,1.4941,1.4928,0.0,1.4928,1.4928,1.4928,1.4955,1.4763,1.4469,1.4202,1.4088,1.4046,1.3179,1.3307,1.3997,1.3179,1.2705,1.2491,1.1628,1.0679,0.9685,0.8872,0.8612,0.8555,0.8174,0.8154,0.8174,0.7679,0.7665,0.7743,0.7592,0.7496,0.7488,0.7504,0.7381,0.7142,0.6756,0.6641,0.6563,0.6338,0.63,0.63,0.63,0.567,0.5082,0.5004,0.3765,0.2676,0.2564,0.1814,0.1312,0.1303,0.1283,0.1316,0.1303,0.1282,0.1288,0.1302,0.1281,0.1236,0.1051,0.0991,0.0898,0.0735,0.0279,0.0039,0.0039,0.0,-0.0392,-0.1176,-0.1254,-0.1684,-0.2426,-0.3285,-0.3675,0.7175,0.761,0.8142,0.8686,0.9271,0.9746,0.986,0.9916,0.9998,1.018,0.9991,0.9833,0.9884,0.9692,0.9541,0.9627,0.9652,0.9591,0.9677,0.0,0.0,0.0,0.0,0.0,0.0,0.0,0.0,0.0,0.0,0.0,1.5112,1.5135,1.5102,1.5102,1.477,1.4616,1.4616,1.4389,1.4275,0.0,1.4275,1.4275,1.4282,1.4509,1.4456,1.4175,1.4115,1.4088,1.4088,1.387,1.3913,1.4088,1.387,1.2918,1.1585,1.137,1.0294,0.8872,0.8656,0.8612,0.86,0.8518,0.8276,0.8052,0.7935,0.7732,0.7604,0.771,0.7637,0.7516,0.7702,0.7594,0.7369,0.7142,0.6834,0.6563,0.6338,0.63,0.63,0.63,0.6141,0.5789,0.5121,0.4807,0.421,0.2929,0.1918,0.1304,0.1292,0.1291,0.1289,0.1296,0.129,0.1292,0.1305,0.13,0.1299,0.1221,0.109,0.0962,0.092,0.0482,0.0236,0.0236,0.0079,-0.0079,-0.0275,-0.098,-0.1371,-0.1567,-0.2387,-0.2776,0.7232,0.7675,0.8182,0.8897,0.9421,0.9762,0.9762,0.9693,0.9706,0.9804,0.9766,0.9734,0.9698,0.9559,0.947,0.9388,0.9372,0.9372,0.9372,0.0,0.0,0.0,0.0,0.0,0.0,0.0,0.0,0.0,0.0,1.4,1.497,1.4874,1.475,1.475,1.4469,1.4315,1.4315,1.4162,1.4088,1.4088,1.4088,1.4088,1.4088,1.4242,1.4229,1.4088,1.4088,1.4088,1.4088,1.4088,1.4088,1.4088,1.4088,1.3222,1.1929,1.1451,1.0419,0.9174,0.874,0.8612,0.8596,0.8506,0.8243,0.8,0.7914,0.7699,0.7539,0.7641,0.7596,0.7543,0.7641,0.7596,0.7446,0.7257,0.6949,0.6676,0.649,0.6377,0.63,0.63,0.63,0.6141,0.5709,0.5026,0.414,0.2969,0.1928,0.1294,0.1365,0.1314,0.1311,0.1324,0.1313,0.1317,0.1344,0.1333,0.1331,0.1345,0.1247,0.1196,0.1196,0.0827,0.0525,0.036,0.0197,0.0079,0.0,-0.0471,-0.0667,-0.0706,-0.1528,-0.1918,0.7139,0.7646,0.8215,0.9102,0.9401,0.9535,0.9535,0.9417,0.9359,0.9359,0.9433,0.949,0.9388,0.9359,0.931,0.912,0.9096,0.9096,0.9096,0.0,0.0,0.0,0.0,0.0,0.0,0.0,0.0,0.0,0.0,1.3758,1.4772,1.4576,1.4442,1.4442,1.4215,1.4088,1.4088,1.4088,1.4088,1.4088,1.4088,1.4062,1.4008,1.4008,1.4041,1.4082,1.4035,1.4008,1.4008,1.3955,1.3968,1.4008,1.4008,1.3396,1.2357,1.1585,1.0722,0.9772,0.8915,0.8696,0.875,0.8392,0.8166,0.7979,0.7849,0.7669,0.7484,0.7484,0.7484,0.7484,0.7484,0.7484,0.7446,0.7296,0.7099,0.6907,0.6676,0.649,0.6335,0.6335,0.6338,0.6306,0.633,0.5079,0.3827,0.3145,0.2182,0.1536,0.1394,0.1335,0.1329,0.1395,0.1334,0.1339,0.1386,0.1412,0.1408,0.1389,0.1412,0.1397,0.1397,0.1199,0.088,0.0491,0.04,0.0237,0.0079,0.0039,0.0,0.0,-0.0745,-0.1058,0.6534,0.7273,0.8154,0.8743,0.9031,0.9169,0.9169,0.9149,0.9133,0.9133,0.9149,0.9161,0.9137,0.9133,0.9125,0.91,0.9096,0.9096,0.0,0.0,0.0,0.0,0.0,0.0,0.0,0.0,0.0,0.0,1.242,1.3399,1.4173,1.4168,1.4142,1.4142,1.4108,1.4088,1.4088,1.4088,1.4088,1.4088,1.4088,1.3948,1.366,1.366,1.3841,1.4075,1.3773,1.366,1.3646,1.3434,1.3474,1.366,1.366,1.2751,1.1451,1.137,1.0722,0.9772,0.8915,0.9087,0.9566,0.8602,0.8166,0.7979,0.7849,0.7669,0.7484,0.7484,0.7484,0.7484,0.7484,0.7484,0.7484,0.7484,0.7296,0.7103,0.6903,0.6714,0.6563,0.6563,0.6412,0.6337,0.6463,0.5657,0.4774,0.4048,0.3159,0.2309,0.1514,0.1381,0.1381,0.1384,0.1381,0.1382,0.139,0.1387,0.1386,0.139,0.1387,0.1385,0.1385,0.1356,0.1199,0.0923,0.0574,0.0365,0.0365,0.0119,0.0,0.0,-0.0118,-0.0157,0.6436,0.7208,0.8,0.8544,0.8812,0.897,0.9076,0.9015,0.8942,0.8942,0.8865,0.8832,0.8926,0.8942,0.8909,0.8816,0.88,0.88,0.0,0.0,0.0,0.0,0.0,0.0,0.0,0.0,0.0,0.0,1.2721,1.3739,1.4095,1.3928,1.3841,1.3841,1.3681,1.3601,1.3601,1.3754,1.3921,1.4082,1.3915,1.3726,1.3593,1.3433,1.3474,1.3587,1.346,1.336,1.3353,1.3267,1.3287,1.3373,1.354,1.2883,1.1868,1.2049,1.1154,0.9859,0.9471,0.9183,0.8905,0.8444,0.8101,0.7858,0.7824,0.7669,0.7484,0.7484,0.7484,0.7484,0.7484,0.7484,0.7484,0.7484,0.7446,0.733,0.7249,0.6907,0.6563,0.6451,0.6439,0.6467,0.6573,0.5921,0.5273,0.5046,0.3795,0.2704,0.2283,0.1749,0.1391,0.1391,0.1391,0.1391,0.1391,0.1391,0.1391,0.1391,0.1391,0.1391,0.1391,0.1378,0.1366,0.1222,0.0917,0.0647,0.0519,0.0395,0.0275,0.0157,0.0157,0.0157,0.6379,0.7013,0.76,0.8188,0.8422,0.8597,0.8779,0.8714,0.8613,0.0,0.8515,0.8463,0.8593,0.8694,0.8714,0.8633,0.8612,0.8612,0.0,0.0,0.0,0.0,0.0,0.0,0.0,0.0,0.0,0.0,1.2729,1.3723,1.3975,1.3653,1.3493,1.3493,1.328,1.3213,1.3213,1.3387,1.3606,1.3861,1.3641,1.3453,1.3407,1.3193,1.3053,1.2986,1.306,1.3093,1.3086,1.3013,1.3026,1.3113,1.3333,1.2888,1.2199,1.2506,1.1538,1.0047,0.989,0.9303,0.8548,0.8254,0.8016,0.7792,0.7743,0.7633,0.7484,0.7484,0.7484,0.7484,0.7484,0.7484,0.7484,0.7484,0.7484,0.7484,0.7446,0.7095,0.6726,0.6497,0.6562,0.6674,0.6713,0.6246,0.5829,0.5659,0.4501,0.3448,0.2956,0.224,0.1704,0.1436,0.1391,0.1391,0.1391,0.1391,0.1391,0.1391,0.1391,0.1391,0.1391,0.1391,0.1387,0.1379,0.1182,0.0936,0.072,0.0632,0.051,0.0393,0.0393,0.0393,0.622,0.6461,0.6656,0.7362,0.7718,0.7898,0.8032,0.8061,0.8057,0.8057,0.8048,0.8044,0.8052,0.8345,0.862,0.8612,0.8612,0.8612,0.0,0.0,0.0,0.0,0.0,0.0,0.0,0.0,0.0,0.0,1.1966,1.275,1.3585,1.3353,1.3233,1.3233,1.322,1.3213,1.3213,1.3227,1.324,1.3253,1.324,1.308,1.2831,1.2817,1.2656,1.2365,1.2683,1.2811,1.279,1.2465,1.2518,1.2811,1.2824,1.2414,1.1888,1.2193,1.1588,1.0478,0.9908,0.9548,0.9172,0.8159,0.7816,0.7767,0.7588,0.7492,0.7484,0.7484,0.7484,0.7484,0.7484,0.7484,0.7484,0.7484,0.7484,0.7446,0.7257,0.7305,0.7245,0.6933,0.6965,0.7014,0.6837,0.6819,0.654,0.5631,0.5514,0.4917,0.3135,0.2867,0.2464,0.148,0.1391,0.1391,0.1391,0.1391,0.1391,0.1391,0.1391,0.1391,0.1391,0.1391,0.1422,0.1393,0.1319,0.1177,0.0965,0.0723,0.0589,0.0589,0.0589,0.0589,0.6143,0.6404,0.6697,0.7169,0.7306,0.7355,0.7606,0.7764,0.789,0.789,0.7939,0.8012,0.8012,0.8122,0.8211,0.8211,0.8211,0.8211,0.0,0.0,0.0,0.0,0.0,0.0,0.0,0.0,0.0,0.0,0.0,1.2463,1.3287,1.308,1.2951,1.2951,1.2726,1.2719,1.2951,1.2951,1.3013,1.3206,1.3045,1.2891,1.2777,1.2589,1.2405,1.2311,1.2412,1.2496,1.2452,1.2345,1.2365,1.2516,1.271,1.2652,1.2473,1.2769,1.224,1.1272,1.0545,0.9771,0.8981,0.8095,0.7718,0.7608,0.7539,0.7484,0.7484,0.7484,0.7484,0.7484,0.7484,0.7484,0.7551,0.7669,0.7698,0.7691,0.7721,0.7502,0.7277,0.7239,0.7241,0.7255,0.7135,0.7193,0.7112,0.6621,0.6045,0.5453,0.4783,0.4158,0.3444,0.2464,0.2376,0.2107,0.1436,0.1391,0.1391,0.1391,0.1391,0.1391,0.1391,0.1391,0.1385,0.1419,0.1329,0.1254,0.1195,0.1078,0.0943,0.0786,0.0786,0.0786,0.6083,0.6341,0.6679,0.7031,0.6982,0.6968,0.7331,0.7475,0.7547,0.7608,0.7671,0.7764,0.7825,0.7833,0.7874,0.7996,0.8012,0.8012,0.0,0.0,0.0,0.0,0.0,0.0,0.0,0.0,0.0,0.0,0.0,0.0,1.3014,1.2804,1.2636,1.2636,1.2405,1.2398,1.263,1.2636,1.2699,1.2899,1.273,1.2636,1.263,1.2392,1.2305,1.2305,1.2305,1.2305,1.2305,1.2305,1.2305,1.2318,1.2556,1.2636,1.267,1.2939,1.2277,1.11,1.0659,0.9622,0.8395,0.7859,0.762,0.7484,0.7484,0.7484,0.7484,0.7484,0.7484,0.7484,0.7484,0.7484,0.7567,0.7755,0.78,0.7845,0.7975,0.7757,0.7572,0.7577,0.7621,0.7631,0.7513,0.7487,0.7459,0.7279,0.6609,0.6074,0.5719,0.487,0.3933,0.3001,0.2598,0.2107,0.1436,0.1391,0.1391,0.1391,0.1391,0.1391,0.1391,0.1391,0.1391,0.1391,0.1335,0.1296,0.1318,0.1317,0.1218,0.1021,0.1021,0.1021,0.0,0.0,0.0,0.6804,0.6724,0.6676,0.7084,0.0,0.7016,0.7171,0.7175,0.7261,0.7435,0.7468,0.7581,0.7927,0.7988,0.8,0.0,0.0,0.0,0.0,0.0,0.0,0.0,0.0,0.0,0.0,1.034,1.095,1.2694,1.2496,1.2305,1.2305,1.2305,1.2305,1.2305,1.2305,1.2305,1.2305,1.2305,1.2305,1.2305,1.2305,1.2305,1.2305,1.2305,1.2305,1.2305,1.2305,1.2305,1.2305,1.2305,1.2305,1.2338,1.2663,1.1588,0.9965,1.0192,0.9087,0.7522,0.7522,0.7484,0.7484,0.7484,0.7484,0.7484,0.7484,0.7484,0.7484,0.7484,0.7484,0.7571,0.7763,0.7808,0.7853,0.7992,0.817,0.8243,0.8065,0.8138,0.8142,0.7944,0.7708,0.7507,0.7507,0.7279,0.6786,0.5852,0.4959,0.4022,0.3045,0.2061,0.148,0.1391,0.1391,0.1391,0.1391,0.1391,0.1391,0.1391,0.1391,0.139,0.1389,0.1334,0.1305,0.1304,0.1286,0.1296,0.1296,0.1296,0.1296,0.6641,0.0,0.0,0.0,0.0,0.0,0.0,0.0,0.6631,0.6812,0.6842,0.6895,0.7102,0.7135,0.7167,0.7269,0.746,0.763,0.0,0.0,0.0,0.0,0.0,0.0,0.0,0.0,0.0,0.0,1.003,1.0718,1.235,1.2345,1.2305,1.2305,1.2305,1.2305,1.2305,1.2305,1.2305,1.2305,1.2305,1.2305,1.2305,1.2305,1.2305,1.2305,1.2305,1.2305,1.2305,1.2305,1.2305,1.2305,1.2305,1.2305,1.2311,1.2392,1.1733,1.0706,1.0198,0.9271,0.8284,0.7672,0.7484,0.7484,0.7484,0.7484,0.7484,0.7484,0.7484,0.7484,0.7484,0.7484,0.7561,0.787,0.7943,0.8028,0.8345,0.8498,0.8518,0.8426,0.8342,0.8256,0.8119,0.8038,0.794,0.7812,0.7547,0.7279,0.7013,0.6609,0.5714,0.4067,0.3666,0.2907,0.1524,0.1391,0.1391,0.1391,0.1391,0.1391,0.1391,0.1391,0.138,0.1403,0.1324,0.1296,0.1315,0.1316,0.1296,0.1296,0.1296,0.1296,0.6878,0.6822,0.6852,0.6852,0.0,0.0,0.6561,0.6495,0.645,0.0,0.6692,0.6775,0.6955,0.6988,0.6988,0.6988,0.7163,0.7298,0.0,0.0,0.0,0.0,0.0,0.0,0.0,0.7484,0.8012,0.9296,0.9707,1.0608,1.2224,1.2305,1.2305,1.2305,1.2305,1.2305,1.2305,1.2305,1.2305,1.2305,1.2305,1.2305,1.2305,1.2305,1.2342,1.2415,1.2415,1.2489,1.2562,1.2562,1.2452,1.2305,1.2305,1.2305,1.2305,1.2305,1.1589,1.0539,1.0045,0.9145,0.8131,0.7633,0.7484,0.7484,0.7484,0.7484,0.7484,0.7484,0.7484,0.75,0.7616,0.758,0.7573,0.7927,0.8012,0.8093,0.839,0.8555,0.8612,0.8612,0.8522,0.8395,0.8364,0.8288,0.8157,0.8028,0.7812,0.7639,0.7507,0.701,0.6204,0.5003,0.4556,0.3666,0.2151,0.2017,0.1838,0.1436,0.1391,0.1391,0.1391,0.1391,0.1421,0.1391,0.1319,0.1285,0.1284,0.1305,0.1296,0.1296,0.1296,0.1296,0.6948,0.7036,0.719,0.719,0.6911,0.0,0.6833,0.6604,0.6447,0.0,0.6646,0.6683,0.6902,0.6956,0.6964,0.6944,0.6937,0.6978,0.0,0.0,0.0,0.0,0.0,0.0,0.7439,0.7456,0.7804,0.8623,0.9523,1.0659,1.2131,1.2265,1.2285,1.2258,1.2285,1.2305,1.2305,1.2271,1.2258,1.2258,1.2258,1.2258,1.2258,1.2321,1.2415,1.2599,1.2636,1.2716,1.29,1.29,1.2673,1.2342,1.2342,1.2335,1.2305,1.2305,1.1285,0.9895,0.9895,0.8841,0.7484,0.7484,0.7484,0.7484,0.7484,0.7484,0.7484,0.7484,0.7484,0.7559,0.7726,0.7661,0.7598,0.7931,0.8028,0.8093,0.828,0.8494,0.8612,0.8612,0.8612,0.8612,0.8612,0.8384,0.8245,0.8245,0.8072,0.7856,0.7591,0.683,0.616,0.5764,0.5003,0.4111,0.3135,0.3045,0.2643,0.1614,0.1569,0.1524,0.1391,0.1387,0.1416,0.1386,0.1311,0.1311,0.1296,0.1296,0.1296,0.1296,0.1296,0.1296,0.7427,0.728,0.719,0.719,0.6972,0.0,0.6672,0.6481,0.632,0.0,0.6289,0.6267,0.64,0.6555,0.6642,0.646,0.6623,0.6823,0.0,0.0,0.0,0.0,0.0,0.0,0.7257,0.7277,0.7668,0.8613,1.0056,1.1065,1.1547,1.2044,1.2191,1.1993,1.2178,1.2305,1.2305,1.2107,1.1986,1.1986,1.1986,1.1986,1.1993,1.238,1.2562,1.2599,1.2783,1.2856,1.29,1.29,1.2753,1.2526,1.2526,1.2452,1.2305,1.2305,1.1285,0.9895,0.9895,0.8841,0.7484,0.7484,0.7484,0.7484,0.7484,0.7484,0.7484,0.7484,0.7484,0.7492,0.7567,0.7661,0.7796,0.7963,0.813,0.8288,0.8518,0.8588,0.8612,0.8612,0.8612,0.8612,0.8612,0.8564,0.852,0.852,0.8292,0.8113,0.8069,0.776,0.7139,0.6115,0.5847,0.5267,0.4111,0.4022,0.3623,0.2688,0.2598,0.224,0.1436,0.1412,0.1385,0.1314,0.1303,0.1309,0.1296,0.1296,0.1296,0.1296,0.1296,0.1296,0.755,0.7418,0.7342,0.7342,0.7185,0.0,0.0,0.6671,0.6483,0.6568,0.6393,0.6249,0.6411,0.6524,0.6554,0.6458,0.6589,0.6742,0.6802,0.0,0.0,0.0,0.0,0.0,0.7074,0.709,0.7629,0.8963,0.9737,1.0563,1.1512,1.1739,1.1797,1.165,1.1931,1.2163,1.2229,1.2016,1.1942,1.2048,1.1794,1.172,1.1796,1.2208,1.2489,1.2676,1.2939,1.3119,1.32,1.32,1.3083,1.2863,1.2673,1.2489,1.2268,1.1855,1.095,0.9857,0.9448,0.8504,0.7484,0.7484,0.7484,0.7484,0.7484,0.7484,0.7484,0.7484,0.7484,0.7484,0.7484,0.7592,0.7706,0.7845,0.8024,0.8203,0.839,0.8547,0.8612,0.8612,0.8612,0.8612,0.8612,0.8612,0.8612,0.8612,0.8476,0.8336,0.8201,0.8113,0.776,0.7092,0.7003,0.6514,0.5312,0.5179,0.4734,0.3667,0.3578,0.3178,0.2196,0.2108,0.1839,0.1326,0.1281,0.1296,0.1296,0.1296,0.1296,0.1296,0.1296,0.1296,0.7612,0.7682,0.7738,0.0,0.0,0.7487,0.0,0.0,0.0,0.0,0.0,0.0,0.0,0.0,0.0,0.0,0.0,0.0,0.0,0.6485,0.0,0.0,0.0,0.0,0.0,0.697,0.7632,0.9264,0.9304,0.9937,1.1499,1.1533,1.143,1.1377,1.17,1.196,1.2108,1.1906,1.1907,1.2047,1.1628,1.1513,1.1662,1.2033,1.2347,1.2606,1.3007,1.3252,1.3404,1.347,1.3382,1.3156,1.2826,1.2562,1.2261,1.1446,1.0614,0.9782,0.9036,0.8208,0.7522,0.7561,0.7522,0.7484,0.7484,0.7484,0.7484,0.7484,0.7484,0.7484,0.7484,0.7547,0.762,0.7804,0.7943,0.8117,0.8304,0.8506,0.8612,0.8612,0.8612,0.8612,0.8612,0.8612,0.8612,0.8612,0.8612,0.852,0.8292,0.8288,0.8204,0.7984,0.794,0.754,0.6514,0.647,0.5935,0.4732,0.4643,0.4192,0.3161,0.2909,0.2439,0.1779,0.1467,0.1375,0.1532,0.1375,0.1296,0.1296,0.1296,0.1296,0.783,0.0,0.0,0.0,0.8136,0.0,0.0,0.0,0.7083,0.6859,0.0,0.0,0.0,0.0,0.0,0.0,0.0,0.0,0.6375,0.6485,0.0,0.0,0.0,0.0,0.0,0.6923,0.7562,0.9187,0.9361,0.9895,1.1114,1.1609,1.1641,1.124,1.1654,1.1847,1.1758,1.1625,1.1553,1.1586,1.1518,1.1504,1.1544,1.1986,1.223,1.2285,1.2816,1.3025,1.3082,1.3375,1.3382,1.32,1.3163,1.29,1.2489,1.1669,1.0726,0.982,0.9188,0.8318,0.7522,0.7723,0.7642,0.7484,0.7484,0.7484,0.7484,0.7484,0.7484,0.7484,0.7484,0.7645,0.7812,0.7943,0.8126,0.8308,0.8539,0.8596,0.8612,0.8612,0.8612,0.8612,0.8612,0.8612,0.8612,0.8612,0.8612,0.8568,0.8564,0.8564,0.8472,0.8201,0.8157,0.8025,0.772,0.7676,0.7183,0.598,0.5891,0.5313,0.4006,0.3093,0.2905,0.3497,0.2042,0.1649,0.2354,0.1649,0.1296,0.1296,0.1296,0.1296,0.0,0.0,0.0,0.0,0.0,0.0,0.8104,0.0,0.7199,0.0,0.0,0.0,0.0,0.0,0.0,0.0,0.6715,0.0,0.0,0.0,0.6422,0.0,0.0,0.0,0.0,0.0,0.0,0.0,0.9119,0.9635,1.1146,1.1368,1.1349,1.1159,1.1476,1.171,1.1743,1.1577,1.1547,1.1677,1.1403,1.1312,1.1383,1.18,1.2009,1.2123,1.2516,1.2833,1.3023,1.3155,1.3251,1.3382,1.3382,1.3119,1.2636,1.136,1.0608,1.0078,0.8889,0.8212,0.7834,0.7804,0.768,0.7484,0.7484,0.7484,0.7484,0.7484,0.7484,0.7484,0.7484,0.758,0.7686,0.7821,0.8,0.8178,0.8365,0.8406,0.8438,0.8592,0.8522,0.8442,0.8592,0.8612,0.8612,0.8612,0.8612,0.8612,0.8612,0.8612,0.8564,0.8428,0.8428,0.834,0.8116,0.8069,0.7804,0.7183,0.6393,0.5609,0.4921,0.3969,0.3647,0.3951,0.3402,0.3246,0.3599,0.3132,0.2938,0.2899,0.2275,0.1727,0.9047,0.0,0.0,0.0,0.0,0.0,0.0,0.0,0.0,0.0,0.0,0.0,0.0,0.0,0.6887,0.6805,0.0,0.6553,0.0,0.0,0.0,0.0,0.0,0.0,0.0,0.0,0.0,0.0,0.0,0.953,1.1281,1.1279,1.1216,1.1153,1.1404,1.1582,1.1646,1.1582,1.1614,1.175,1.1386,1.1279,1.1373,1.1642,1.1815,1.1926,1.2215,1.2485,1.276,1.2936,1.3148,1.3367,1.3455,1.3309,1.2856,1.1199,1.0559,1.0265,0.8737,0.814,0.8063,0.788,0.768,0.7484,0.7484,0.7484,0.7484,0.7484,0.7484,0.7484,0.7484,0.7484,0.7541,0.7812,0.7923,0.8077,0.8316,0.8365,0.8406,0.8588,0.8502,0.841,0.8588,0.8612,0.8612,0.8612,0.8612,0.8612,0.8612,0.8612,0.8612,0.8612,0.8612,0.852,0.8336,0.8292,0.8185,0.792,0.681,0.6105,0.5953,0.5026,0.4614,0.4846,0.4569,0.4528,0.4722,0.4375,0.4183,0.4144,0.3288,0.2547,0.0,0.0,0.0,0.9419,0.0,0.0,0.0,0.0,0.982,0.0,0.0,0.0,0.0,0.7758,0.7114,0.6854,0.6791,0.0,0.0,0.0,0.0,0.0,0.0,0.0,0.0,0.0,0.0,0.0,0.0,0.0,1.1492,1.1591,1.1498,1.1303,1.1474,1.1512,1.1324,1.1512,1.1606,1.1606,1.1599,1.1591,1.1591,1.1606,1.1606,1.1628,1.1911,1.2025,1.2083,1.2711,1.3016,1.306,1.3375,1.3492,1.3266,1.1465,1.0671,1.0303,0.8889,0.8255,0.8063,0.788,0.768,0.7484,0.7484,0.7484,0.7484,0.7484,0.7484,0.7484,0.7484,0.7484,0.7573,0.7923,0.8008,0.8113,0.8522,0.8604,0.8604,0.8608,0.8608,0.8604,0.8612,0.8612,0.8612,0.8612,0.8612,0.8612,0.8612,0.8612,0.8612,0.8612,0.8612,0.8612,0.8568,0.8568,0.8404,0.7928,0.7353,0.7042,0.7034,0.6094,0.5935,0.6788,0.5226,0.4802,0.5544,0.4763,0.4373,0.437,0.3947,0.3752,0.0,0.0,1.2239,1.1238,0.0,0.0,0.0,0.0,0.0,0.0,0.0,0.0,0.0,0.8459,0.7845,0.7737,0.7086,0.6464,0.0,0.0,0.0,0.0,0.0,0.0,0.0,0.0,0.0,0.0,0.8952,0.0,0.0,1.1591,1.156,1.1498,1.156,1.156,1.1498,1.156,1.1591,1.1591,1.1591,1.1591,1.1591,1.1591,1.1591,1.1599,1.1709,1.1838,1.2032,1.247,1.2811,1.3038,1.3367,1.3156,1.2562,1.1403,1.095,1.0689,0.9117,0.8365,0.8102,0.803,0.7757,0.7484,0.7484,0.7484,0.7484,0.7484,0.7484,0.7484,0.7484,0.7612,0.7763,0.7959,0.8105,0.8264,0.8559,0.8514,0.8422,0.8588,0.851,0.8422,0.8592,0.8612,0.8612,0.8612,0.8612,0.8612,0.8612,0.8612,0.8612,0.8612,0.8612,0.8612,0.8612,0.8498,0.8262,0.7996,0.7554,0.726,0.7153,0.6821,0.6791,0.7099,0.6665,0.6588,0.6861,0.6437,0.6244,0.624,0.5967,0.5267,1.2089,1.2521,0.0,1.2164,1.1748,0.0,1.0774,0.0,1.0471,0.0,0.0,0.0,0.0,0.9281,0.8527,0.8165,0.7462,0.6831,0.0,0.6166,0.0,0.0,0.0,0.0,0.0,0.0,0.7285,0.8802,0.889,0.0,0.0,0.0,1.1591,1.1591,1.1591,1.1591,1.1591,1.1591,1.1591,1.1591,1.1591,1.1591,1.1591,1.1591,1.1591,1.1591,1.1591,1.1709,1.1904,1.231,1.2616,1.2877,1.3323,1.301,1.2187,1.1409,1.0738,1.0094,0.9041,0.8475,0.8178,0.814,0.7872,0.7603,0.7522,0.7484,0.7484,0.7484,0.7484,0.7484,0.7484,0.7661,0.7841,0.7971,0.8154,0.8341,0.8571,0.8518,0.8426,0.8588,0.8514,0.8426,0.8592,0.8612,0.8612,0.8612,0.8612,0.8612,0.8612,0.8612,0.8612,0.8612,0.8612,0.8612,0.8612,0.8337,0.8142,0.802,0.7665,0.7407,0.73,0.7296,0.7296,0.7296,0.7446,0.7484,0.7484,0.7369,0.7296,0.7296,0.7173,0.6549]}]]